Darstellungsparameter: Aktuell verwendete Einstellungen:
Skalierung der Graphiken ... ?
xyx+y,   Skalierungsfaktor:      Skalierung: Modus: x, Faktor: 1
Darstellungszeitraum ... ?
Vom - - bis: - -   Zeitraum: 30.05.2020 - 05.06.2020
Min/Max/Avg-Anzeige ... ?
Zeige MMA aktuell
Zeige MMA Monat
Zeige MMA alles
Zeige --A aktuell
Zeige --A Monat
Zeige --A alles
Keine MMA-Anzeige
MMA:
Average (ber die Originaldaten)
MMA-Basis: 30.05.2020 - 05.06.2020
Quicknavigation für Darstellung... ?
Tage:      1T, 2T, 3T, 5T -1T -2T -3T -5T +1T +2T +3T +5T
Wochen: 1W, 2W, 3W -1W -2W -3W +1W +2W +3W
Monate: 1M, 3M, 6M -1M -3M -6M +1M +3M +6M
Jahre:    1J, 3J, 5J, 10J -1J -3J -5J -10J +1J +3J +5J +10J
Nutze für die Darstellung ... ?
Originaldaten oder Mittelwerte auf ...
Stundenbasis Tagesbasis Wochenbasis
Monatsbasis Jahresbasis      Datenbasis: Original-Daten
Darstellen als:
Statistik (Auto) Statistik J:M      Darstellung:
Zur Graphik,    zurück zur Übersicht aller Sensoren.
 
Tabellarische Datenbersicht: ?
 
Sensor: Nr:Datum:Temp:Abs-Feuchte:Windchill:Wind:
Aussen-T/F 1 30-05-2020 00:00:00 13.3 C 6.82 g/m*3 13.3 C 3.2 km/h
2 30-05-2020 00:05:00 13.3 C 6.93 g/m*3 13.3 C 1.6 km/h
3 30-05-2020 00:10:00 13.3 C 6.82 g/m*3 13.3 C 3.2 km/h
4 30-05-2020 00:15:00 13.3 C 6.82 g/m*3 13.3 C 1.6 km/h
5 30-05-2020 00:20:00 13.3 C 6.93 g/m*3 13.3 C 1.6 km/h
6 30-05-2020 00:25:00 13.2 C 7 g/m*3 13.2 C 1.6 km/h
7 30-05-2020 00:30:00 13.2 C 7 g/m*3 13.2 C 4.8 km/h
8 30-05-2020 00:35:00 13.1 C 7.07 g/m*3 13.1 C 0 km/h
9 30-05-2020 00:40:00 13 C 7.03 g/m*3 13 C 3.2 km/h
10 30-05-2020 00:45:00 12.9 C 6.99 g/m*3 12.9 C 1.6 km/h
11 30-05-2020 00:50:00 12.8 C 6.94 g/m*3 12.8 C 4.8 km/h
12 30-05-2020 00:55:00 12.8 C 6.94 g/m*3 12.8 C 0 km/h
13 30-05-2020 01:00:00 12.7 C 7.01 g/m*3 12.7 C 0 km/h
14 30-05-2020 01:05:00 12.6 C 6.97 g/m*3 12.6 C 1.6 km/h
15 30-05-2020 01:10:00 12.5 C 6.82 g/m*3 12.5 C 3.2 km/h
16 30-05-2020 01:15:00 12.4 C 6.77 g/m*3 12.4 C 3.2 km/h
17 30-05-2020 01:20:00 12.4 C 6.77 g/m*3 12.4 C 1.6 km/h
18 30-05-2020 01:25:00 12.3 C 6.84 g/m*3 12.3 C 0 km/h
19 30-05-2020 01:30:00 12.3 C 6.73 g/m*3 12.3 C 3.2 km/h
20 30-05-2020 01:35:00 12.3 C 6.95 g/m*3 12.3 C 3.2 km/h
21 30-05-2020 01:40:00 12.2 C 6.91 g/m*3 12.2 C 3.2 km/h
22 30-05-2020 01:45:00 12.1 C 6.86 g/m*3 12.1 C 3.2 km/h
23 30-05-2020 01:50:00 11.9 C 6.78 g/m*3 11.9 C 3.2 km/h
24 30-05-2020 01:55:00 11.8 C 6.84 g/m*3 11.8 C 3.2 km/h
25 30-05-2020 02:00:00 11.7 C 6.8 g/m*3 11.7 C 4.8 km/h
Sensor: Nr:Datum:Temp:Abs-Feuchte:Windchill:Wind:
Aussen-T/F 26 30-05-2020 02:05:00 11.6 C 6.76 g/m*3 11.6 C 1.6 km/h
27 30-05-2020 02:10:00 11.4 C 6.77 g/m*3 11.4 C 3.2 km/h
28 30-05-2020 02:15:00 11.4 C 6.77 g/m*3 11.4 C 3.2 km/h
29 30-05-2020 02:20:00 11.3 C 6.83 g/m*3 11.3 C 3.2 km/h
30 30-05-2020 02:25:00 11.3 C 6.83 g/m*3 11.3 C 0 km/h
31 30-05-2020 02:30:00 11.3 C 6.83 g/m*3 11.3 C 0 km/h
32 30-05-2020 02:35:00 11.2 C 6.79 g/m*3 11.2 C 3.2 km/h
33 30-05-2020 02:40:00 11.1 C 6.75 g/m*3 11.1 C 0 km/h
34 30-05-2020 02:45:00 11.1 C 6.85 g/m*3 11.1 C 1.6 km/h
35 30-05-2020 02:50:00 11 C 6.81 g/m*3 11 C 0 km/h
36 30-05-2020 02:55:00 10.9 C 6.76 g/m*3 10.9 C 1.6 km/h
37 30-05-2020 03:00:00 10.9 C 6.76 g/m*3 10.9 C 1.6 km/h
38 30-05-2020 03:05:00 10.8 C 6.72 g/m*3 10.8 C 1.6 km/h
39 30-05-2020 03:10:00 10.8 C 6.72 g/m*3 10.8 C 3.2 km/h
40 30-05-2020 03:15:00 10.8 C 6.72 g/m*3 10.8 C 1.6 km/h
41 30-05-2020 03:20:00 10.7 C 6.68 g/m*3 10.7 C 3.2 km/h
42 30-05-2020 03:25:00 10.6 C 6.73 g/m*3 10.6 C 3.2 km/h
43 30-05-2020 03:30:00 10.6 C 6.73 g/m*3 10.6 C 3.2 km/h
44 30-05-2020 03:35:00 10.5 C 6.69 g/m*3 10.5 C 1.6 km/h
45 30-05-2020 03:40:00 10.4 C 6.75 g/m*3 10.4 C 3.2 km/h
46 30-05-2020 03:45:00 10.3 C 6.7 g/m*3 10.3 C 3.2 km/h
47 30-05-2020 03:50:00 10.2 C 6.66 g/m*3 10.2 C 3.2 km/h
48 30-05-2020 03:55:00 10.1 C 6.62 g/m*3 10.1 C 3.2 km/h
49 30-05-2020 04:00:00 10.1 C 6.71 g/m*3 10.1 C 3.2 km/h
50 30-05-2020 04:05:00 10 C 6.67 g/m*3 10 C 4.8 km/h
Sensor: Nr:Datum:Temp:Abs-Feuchte:Windchill:Wind:
Aussen-T/F 51 30-05-2020 04:10:00 9.9 C 6.63 g/m*3 9.9 C 4.8 km/h
52 30-05-2020 04:15:00 9.8 C 6.68 g/m*3 9.8 C 3.2 km/h
53 30-05-2020 04:20:00 9.8 C 6.68 g/m*3 9.8 C 1.6 km/h
54 30-05-2020 04:25:00 9.7 C 6.64 g/m*3 9.7 C 1.6 km/h
55 30-05-2020 04:30:00 9.6 C 6.69 g/m*3 9.6 C 0 km/h
56 30-05-2020 04:35:00 9.4 C 6.69 g/m*3 9.4 C 0 km/h
57 30-05-2020 04:40:00 9.4 C 6.69 g/m*3 9.4 C 3.2 km/h
58 30-05-2020 04:45:00 9.3 C 6.74 g/m*3 9.3 C 4.8 km/h
59 30-05-2020 04:50:00 9.3 C 6.65 g/m*3 9.3 C 1.6 km/h
60 30-05-2020 04:55:00 9.3 C 6.74 g/m*3 9.3 C 0 km/h
61 30-05-2020 05:00:00 9.2 C 6.7 g/m*3 9.2 C 0 km/h
62 30-05-2020 05:05:00 9.1 C 6.74 g/m*3 9.1 C 0 km/h
63 30-05-2020 05:10:00 8.9 C 6.66 g/m*3 8.9 C 0 km/h
64 30-05-2020 05:15:00 8.9 C 6.66 g/m*3 8.9 C 0 km/h
65 30-05-2020 05:20:00 8.8 C 6.7 g/m*3 8.8 C 0 km/h
66 30-05-2020 05:25:00 8.7 C 6.66 g/m*3 8.7 C 0 km/h
67 30-05-2020 05:30:00 8.6 C 6.62 g/m*3 8.6 C 0 km/h
68 30-05-2020 05:35:00 8.6 C 6.7 g/m*3 8.6 C 0 km/h
69 30-05-2020 05:40:00 8.4 C 6.7 g/m*3 8.4 C 0 km/h
70 30-05-2020 05:45:00 8.4 C 6.7 g/m*3 8.4 C 0 km/h
71 30-05-2020 05:50:00 8.3 C 6.74 g/m*3 8.3 C 0 km/h
72 30-05-2020 05:55:00 8.2 C 6.7 g/m*3 8.2 C 0 km/h
73 30-05-2020 06:00:00 8.2 C 6.78 g/m*3 8.2 C 0 km/h
74 30-05-2020 06:05:00 8.1 C 6.74 g/m*3 8.1 C 0 km/h
75 30-05-2020 06:10:00 8.1 C 6.74 g/m*3 8.1 C 0 km/h
Sensor: Nr:Datum:Temp:Abs-Feuchte:Windchill:Wind:
Aussen-T/F 76 30-05-2020 06:15:00 8.1 C 6.82 g/m*3 8.1 C 0 km/h
77 30-05-2020 06:20:00 8 C 6.78 g/m*3 8 C 0 km/h
78 30-05-2020 06:25:00 8 C 6.78 g/m*3 8 C 0 km/h
79 30-05-2020 06:30:00 8 C 6.86 g/m*3 8 C 0 km/h
80 30-05-2020 06:35:00 8.1 C 6.91 g/m*3 8.1 C 0 km/h
81 30-05-2020 06:40:00 8.1 C 6.99 g/m*3 8.1 C 0 km/h
82 30-05-2020 06:45:00 8.2 C 7.03 g/m*3 8.2 C 0 km/h
83 30-05-2020 06:50:00 8.2 C 7.03 g/m*3 8.2 C 0 km/h
84 30-05-2020 06:55:00 8.3 C 7.16 g/m*3 8.3 C 0 km/h
85 30-05-2020 07:00:00 8.3 C 7.08 g/m*3 8.3 C 0 km/h
86 30-05-2020 07:05:00 8.3 C 7.16 g/m*3 8.3 C 0 km/h
87 30-05-2020 07:10:00 8.4 C 7.21 g/m*3 8.4 C 0 km/h
88 30-05-2020 07:15:00 8.4 C 7.21 g/m*3 8.4 C 0 km/h
89 30-05-2020 07:20:00 8.5 C 7.26 g/m*3 8.5 C 0 km/h
90 30-05-2020 07:25:00 8.6 C 7.3 g/m*3 8.6 C 0 km/h
91 30-05-2020 07:30:00 8.6 C 7.3 g/m*3 8.6 C 0 km/h
92 30-05-2020 07:35:00 8.7 C 7.44 g/m*3 8.7 C 0 km/h
93 30-05-2020 07:40:00 8.8 C 7.49 g/m*3 8.8 C 0 km/h
94 30-05-2020 07:45:00 8.8 C 7.49 g/m*3 8.8 C 0 km/h
95 30-05-2020 07:50:00 8.9 C 7.53 g/m*3 8.9 C 0 km/h
96 30-05-2020 07:55:00 9.1 C 7.63 g/m*3 9.1 C 0 km/h
97 30-05-2020 08:00:00 9.2 C 7.68 g/m*3 9.2 C 0 km/h
98 30-05-2020 08:05:00 9.3 C 7.73 g/m*3 9.3 C 1.6 km/h
99 30-05-2020 08:10:00 9.5 C 7.83 g/m*3 9.5 C 0 km/h
100 30-05-2020 08:15:00 9.7 C 7.84 g/m*3 9.7 C 0 km/h
Sensor: Nr:Datum:Temp:Abs-Feuchte:Windchill:Wind:
Aussen-T/F 101 30-05-2020 08:20:00 9.8 C 7.89 g/m*3 9.8 C 0 km/h
102 30-05-2020 08:25:00 10.1 C 7.94 g/m*3 10.1 C 0 km/h
103 30-05-2020 08:30:00 10.2 C 7.99 g/m*3 10.2 C 0 km/h
104 30-05-2020 08:35:00 10.4 C 8 g/m*3 10.4 C 0 km/h
105 30-05-2020 08:40:00 10.7 C 8.15 g/m*3 10.7 C 0 km/h
106 30-05-2020 08:45:00 10.8 C 8.11 g/m*3 10.8 C 0 km/h
107 30-05-2020 08:50:00 11.1 C 8.26 g/m*3 11.1 C 0 km/h
108 30-05-2020 08:55:00 11.3 C 8.26 g/m*3 11.3 C 0 km/h
109 30-05-2020 09:00:00 11.4 C 8.31 g/m*3 11.4 C 0 km/h
110 30-05-2020 09:05:00 11.7 C 8.37 g/m*3 11.7 C 0 km/h
111 30-05-2020 09:10:00 11.9 C 8.47 g/m*3 11.9 C 0 km/h
112 30-05-2020 09:15:00 12.1 C 8.47 g/m*3 12.1 C 0 km/h
113 30-05-2020 09:20:00 12.3 C 8.47 g/m*3 12.3 C 0 km/h
114 30-05-2020 09:25:00 12.6 C 8.52 g/m*3 12.6 C 0 km/h
115 30-05-2020 09:30:00 12.9 C 8.45 g/m*3 12.9 C 0 km/h
116 30-05-2020 09:35:00 13.2 C 8.61 g/m*3 13.2 C 8.1 km/h
117 30-05-2020 09:40:00 14.2 C 8.3 g/m*3 14.2 C 8.1 km/h
118 30-05-2020 09:45:00 15 C 7.95 g/m*3 15 C 6.4 km/h
119 30-05-2020 09:50:00 15.7 C 8.16 g/m*3 15.7 C 9.7 km/h
120 30-05-2020 09:55:00 16.2 C 7.72 g/m*3 16.2 C 8.1 km/h
121 30-05-2020 10:00:00 16.7 C 7.96 g/m*3 16.7 C 9.7 km/h
122 30-05-2020 10:05:00 17.1 C 7.86 g/m*3 17.1 C 11.3 km/h
123 30-05-2020 10:10:00 17.5 C 7.75 g/m*3 17.5 C 12.9 km/h
124 30-05-2020 10:15:00 17.8 C 7.74 g/m*3 17.8 C 9.7 km/h
125 30-05-2020 10:20:00 18 C 7.68 g/m*3 18 C 9.7 km/h
Sensor: Nr:Datum:Temp:Abs-Feuchte:Windchill:Wind:
Aussen-T/F 126 30-05-2020 10:25:00 18.2 C 7.62 g/m*3 18.2 C 9.7 km/h
127 30-05-2020 10:30:00 18.4 C 7.86 g/m*3 18.4 C 11.3 km/h
128 30-05-2020 10:35:00 18.7 C 7.68 g/m*3 18.7 C 6.4 km/h
129 30-05-2020 10:40:00 18.8 C 8.21 g/m*3 18.8 C 9.7 km/h
130 30-05-2020 10:45:00 19.1 C 7.87 g/m*3 19.1 C 8.1 km/h
131 30-05-2020 10:50:00 19.2 C 7.59 g/m*3 19.2 C 8.1 km/h
132 30-05-2020 10:55:00 19.4 C 7.67 g/m*3 19.4 C 11.3 km/h
133 30-05-2020 11:00:00 19.4 C 8.01 g/m*3 19.4 C 9.7 km/h
134 30-05-2020 11:05:00 19.4 C 7.01 g/m*3 19.4 C 22.5 km/h
135 30-05-2020 11:10:00 19.2 C 6.6 g/m*3 19.2 C 30.6 km/h
136 30-05-2020 11:15:00 19.1 C 6.72 g/m*3 19.1 C 22.5 km/h
137 30-05-2020 11:20:00 19.2 C 6.6 g/m*3 19.2 C 20.9 km/h
138 30-05-2020 11:25:00 19.2 C 6.43 g/m*3 19.2 C 17.7 km/h
139 30-05-2020 11:30:00 19.3 C 6.47 g/m*3 19.3 C 22.5 km/h
140 30-05-2020 11:35:00 19.3 C 6.63 g/m*3 19.3 C 19.3 km/h
141 30-05-2020 11:40:00 19.4 C 6.84 g/m*3 19.4 C 17.7 km/h
142 30-05-2020 11:45:00 19.4 C 6.51 g/m*3 19.4 C 22.5 km/h
143 30-05-2020 11:50:00 19.5 C 6.88 g/m*3 19.5 C 22.5 km/h
144 30-05-2020 11:55:00 19.5 C 6.71 g/m*3 19.5 C 14.5 km/h
145 30-05-2020 12:00:00 19.5 C 6.88 g/m*3 19.5 C 9.7 km/h
146 30-05-2020 12:05:00 19.6 C 6.92 g/m*3 19.6 C 19.3 km/h
147 30-05-2020 12:10:00 19.7 C 6.79 g/m*3 19.7 C 14.5 km/h
148 30-05-2020 12:15:00 19.6 C 6.75 g/m*3 19.6 C 16.1 km/h
149 30-05-2020 12:20:00 19.6 C 6.92 g/m*3 19.6 C 11.3 km/h
150 30-05-2020 12:25:00 19.7 C 6.62 g/m*3 19.7 C 11.3 km/h
Sensor: Nr:Datum:Temp:Abs-Feuchte:Windchill:Wind:
Aussen-T/F 151 30-05-2020 12:30:00 19.8 C 6.66 g/m*3 19.8 C 19.3 km/h
152 30-05-2020 12:35:00 19.8 C 6.49 g/m*3 19.8 C 20.9 km/h
153 30-05-2020 12:40:00 19.7 C 6.79 g/m*3 19.7 C 14.5 km/h
154 30-05-2020 12:45:00 19.7 C 6.96 g/m*3 19.7 C 20.9 km/h
155 30-05-2020 12:50:00 19.8 C 7 g/m*3 19.8 C 12.9 km/h
156 30-05-2020 12:55:00 20.1 C 6.95 g/m*3 20.1 C 17.7 km/h
157 30-05-2020 13:00:00 20.2 C 7.17 g/m*3 20.2 C 17.7 km/h
158 30-05-2020 13:05:00 20.1 C 7.13 g/m*3 20.1 C 14.5 km/h
159 30-05-2020 13:10:00 20 C 6.91 g/m*3 20 C 25.7 km/h
160 30-05-2020 13:15:00 19.9 C 7.04 g/m*3 19.9 C 19.3 km/h
161 30-05-2020 13:20:00 20.1 C 6.78 g/m*3 20.1 C 22.5 km/h
162 30-05-2020 13:25:00 20.2 C 6.99 g/m*3 20.2 C 16.1 km/h
163 30-05-2020 13:30:00 20.3 C 6.86 g/m*3 20.3 C 22.5 km/h
164 30-05-2020 13:35:00 20.6 C 6.8 g/m*3 20.6 C 22.5 km/h
165 30-05-2020 13:40:00 20.6 C 6.8 g/m*3 20.6 C 16.1 km/h
166 30-05-2020 13:45:00 20.4 C 6.55 g/m*3 20.4 C 22.5 km/h
167 30-05-2020 13:50:00 20.4 C 6.72 g/m*3 20.4 C 12.9 km/h
168 30-05-2020 13:55:00 20.5 C 6.94 g/m*3 20.5 C 8.1 km/h
169 30-05-2020 14:00:00 20.6 C 6.8 g/m*3 20.6 C 9.7 km/h
170 30-05-2020 14:05:00 20.7 C 6.66 g/m*3 20.7 C 14.5 km/h
171 30-05-2020 14:10:00 20.9 C 6.56 g/m*3 20.9 C 19.3 km/h
172 30-05-2020 14:15:00 20.9 C 6.56 g/m*3 20.9 C 17.7 km/h
173 30-05-2020 14:20:00 20.9 C 6.56 g/m*3 20.9 C 20.9 km/h
174 30-05-2020 14:25:00 20.9 C 6.74 g/m*3 20.9 C 20.9 km/h
175 30-05-2020 14:30:00 21 C 6.78 g/m*3 21 C 17.7 km/h
Sensor: Nr:Datum:Temp:Abs-Feuchte:Windchill:Wind:
Aussen-T/F 176 30-05-2020 14:35:00 21.2 C 6.86 g/m*3 21.2 C 17.7 km/h
177 30-05-2020 14:40:00 21.3 C 6.9 g/m*3 21.3 C 12.9 km/h
178 30-05-2020 14:45:00 21.4 C 6.94 g/m*3 21.4 C 12.9 km/h
179 30-05-2020 14:50:00 21.6 C 6.83 g/m*3 21.6 C 12.9 km/h
180 30-05-2020 14:55:00 21.8 C 6.91 g/m*3 21.8 C 17.7 km/h
181 30-05-2020 15:00:00 21.8 C 6.91 g/m*3 21.8 C 22.5 km/h
182 30-05-2020 15:05:00 21.8 C 6.72 g/m*3 21.8 C 16.1 km/h
183 30-05-2020 15:10:00 21.9 C 6.75 g/m*3 21.9 C 22.5 km/h
184 30-05-2020 15:15:00 21.8 C 6.91 g/m*3 21.8 C 16.1 km/h
185 30-05-2020 15:20:00 21.9 C 6.95 g/m*3 21.9 C 11.3 km/h
186 30-05-2020 15:25:00 22.3 C 7.31 g/m*3 22.3 C 16.1 km/h
187 30-05-2020 15:30:00 22.6 C 7.03 g/m*3 22.6 C 19.3 km/h
188 30-05-2020 15:35:00 22.2 C 6.87 g/m*3 22.2 C 17.7 km/h
189 30-05-2020 15:40:00 22.1 C 7.03 g/m*3 22.1 C 11.3 km/h
190 30-05-2020 15:45:00 22.1 C 7.03 g/m*3 22.1 C 9.7 km/h
191 30-05-2020 15:50:00 21.9 C 7.14 g/m*3 21.9 C 6.4 km/h
192 30-05-2020 15:55:00 22.2 C 7.07 g/m*3 22.2 C 12.9 km/h
193 30-05-2020 16:00:00 22.2 C 7.07 g/m*3 22.2 C 22.5 km/h
194 30-05-2020 16:05:00 22.3 C 7.31 g/m*3 22.3 C 17.7 km/h
195 30-05-2020 16:10:00 22.6 C 7.03 g/m*3 22.6 C 20.9 km/h
196 30-05-2020 16:15:00 22.6 C 7.03 g/m*3 22.6 C 25.7 km/h
197 30-05-2020 16:20:00 22.4 C 6.95 g/m*3 22.4 C 22.5 km/h
198 30-05-2020 16:25:00 22.2 C 7.07 g/m*3 22.2 C 20.9 km/h
199 30-05-2020 16:30:00 22.4 C 6.95 g/m*3 22.4 C 17.7 km/h
200 30-05-2020 16:35:00 22.4 C 6.95 g/m*3 22.4 C 19.3 km/h
Sensor: Nr:Datum:Temp:Abs-Feuchte:Windchill:Wind:
Aussen-T/F 201 30-05-2020 16:40:00 22.3 C 7.31 g/m*3 22.3 C 17.7 km/h
202 30-05-2020 16:45:00 22.5 C 6.99 g/m*3 22.5 C 20.9 km/h
203 30-05-2020 16:50:00 22.6 C 7.03 g/m*3 22.6 C 16.1 km/h
204 30-05-2020 16:55:00 22.8 C 6.91 g/m*3 22.8 C 14.5 km/h
205 30-05-2020 17:00:00 22.7 C 6.67 g/m*3 22.7 C 25.7 km/h
206 30-05-2020 17:05:00 22.1 C 6.83 g/m*3 22.1 C 20.9 km/h
207 30-05-2020 17:10:00 22 C 6.99 g/m*3 22 C 8.1 km/h
208 30-05-2020 17:15:00 22.4 C 6.75 g/m*3 22.4 C 19.3 km/h
209 30-05-2020 17:20:00 22.4 C 6.95 g/m*3 22.4 C 14.5 km/h
210 30-05-2020 17:25:00 22.5 C 6.79 g/m*3 22.5 C 17.7 km/h
211 30-05-2020 17:30:00 22.9 C 6.95 g/m*3 22.9 C 16.1 km/h
212 30-05-2020 17:35:00 22.8 C 6.71 g/m*3 22.8 C 16.1 km/h
213 30-05-2020 17:40:00 22.4 C 6.75 g/m*3 22.4 C 17.7 km/h
214 30-05-2020 17:45:00 22.5 C 6.79 g/m*3 22.5 C 20.9 km/h
215 30-05-2020 17:50:00 22.1 C 6.83 g/m*3 22.1 C 22.5 km/h
216 30-05-2020 17:55:00 21.6 C 6.64 g/m*3 21.6 C 19.3 km/h
217 30-05-2020 18:00:00 21.4 C 6.94 g/m*3 21.4 C 9.7 km/h
218 30-05-2020 18:05:00 22.2 C 7.07 g/m*3 22.2 C 19.3 km/h
219 30-05-2020 18:10:00 22.1 C 6.83 g/m*3 22.1 C 22.5 km/h
220 30-05-2020 18:15:00 21.7 C 7.06 g/m*3 21.7 C 11.3 km/h
221 30-05-2020 18:20:00 21.6 C 7.02 g/m*3 21.6 C 6.4 km/h
222 30-05-2020 18:25:00 21.4 C 6.94 g/m*3 21.4 C 11.3 km/h
223 30-05-2020 18:30:00 21.4 C 7.31 g/m*3 21.4 C 8.1 km/h
224 30-05-2020 18:35:00 21.4 C 7.31 g/m*3 21.4 C 9.7 km/h
225 30-05-2020 18:40:00 21.3 C 7.08 g/m*3 21.3 C 6.4 km/h
Sensor: Nr:Datum:Temp:Abs-Feuchte:Windchill:Wind:
Aussen-T/F 226 30-05-2020 18:45:00 21.3 C 6.9 g/m*3 21.3 C 14.5 km/h
227 30-05-2020 18:50:00 21.3 C 7.27 g/m*3 21.3 C 4.8 km/h
228 30-05-2020 18:55:00 21.4 C 7.12 g/m*3 21.4 C 9.7 km/h
229 30-05-2020 19:00:00 21.6 C 7.4 g/m*3 21.6 C 11.3 km/h
230 30-05-2020 19:05:00 21.3 C 8.02 g/m*3 21.3 C 9.7 km/h
231 30-05-2020 19:10:00 21 C 7.88 g/m*3 21 C 12.9 km/h
232 30-05-2020 19:15:00 20.6 C 7.16 g/m*3 20.6 C 14.5 km/h
233 30-05-2020 19:20:00 20.3 C 7.03 g/m*3 20.3 C 14.5 km/h
234 30-05-2020 19:25:00 20.2 C 7.34 g/m*3 20.2 C 3.2 km/h
235 30-05-2020 19:30:00 20.1 C 7.13 g/m*3 20.1 C 6.4 km/h
236 30-05-2020 19:35:00 20 C 7.09 g/m*3 20 C 9.7 km/h
237 30-05-2020 19:40:00 19.9 C 7.39 g/m*3 19.9 C 8.1 km/h
238 30-05-2020 19:45:00 19.8 C 7.17 g/m*3 19.8 C 0 km/h
239 30-05-2020 19:50:00 19.8 C 7.52 g/m*3 19.8 C 0 km/h
240 30-05-2020 19:55:00 19.6 C 7.09 g/m*3 19.6 C 8.1 km/h
241 30-05-2020 20:00:00 19.6 C 7.26 g/m*3 19.6 C 4.8 km/h
242 30-05-2020 20:05:00 19.7 C 7.13 g/m*3 19.7 C 9.7 km/h
243 30-05-2020 20:10:00 19.8 C 6.83 g/m*3 19.8 C 8.1 km/h
244 30-05-2020 20:15:00 19.9 C 7.22 g/m*3 19.9 C 1.6 km/h
245 30-05-2020 20:20:00 19.9 C 7.22 g/m*3 19.9 C 1.6 km/h
246 30-05-2020 20:25:00 19.9 C 7.04 g/m*3 19.9 C 1.6 km/h
247 30-05-2020 20:30:00 19.7 C 6.96 g/m*3 19.7 C 9.7 km/h
248 30-05-2020 20:35:00 19.5 C 7.55 g/m*3 19.5 C 1.6 km/h
249 30-05-2020 20:40:00 19.3 C 6.97 g/m*3 19.3 C 0 km/h
250 30-05-2020 20:45:00 19.2 C 7.26 g/m*3 19.2 C 1.6 km/h
Sensor: Nr:Datum:Temp:Abs-Feuchte:Windchill:Wind:
Aussen-T/F 251 30-05-2020 20:50:00 18.9 C 6.8 g/m*3 18.9 C 1.6 km/h
252 30-05-2020 20:55:00 18.8 C 7.41 g/m*3 18.8 C 4.8 km/h
253 30-05-2020 21:00:00 18.4 C 7.24 g/m*3 18.4 C 3.2 km/h
254 30-05-2020 21:05:00 18.1 C 7.11 g/m*3 18.1 C 4.8 km/h
255 30-05-2020 21:10:00 17.8 C 7.13 g/m*3 17.8 C 1.6 km/h
256 30-05-2020 21:15:00 17.4 C 6.97 g/m*3 17.4 C 0 km/h
257 30-05-2020 21:20:00 17.1 C 6.84 g/m*3 17.1 C 1.6 km/h
258 30-05-2020 21:25:00 16.7 C 6.96 g/m*3 16.7 C 1.6 km/h
259 30-05-2020 21:30:00 16.3 C 6.94 g/m*3 16.3 C 0 km/h
260 30-05-2020 21:35:00 16 C 6.95 g/m*3 16 C 0 km/h
261 30-05-2020 21:40:00 15.7 C 6.82 g/m*3 15.7 C 3.2 km/h
262 30-05-2020 21:45:00 15.4 C 6.96 g/m*3 15.4 C 0 km/h
263 30-05-2020 21:50:00 15.2 C 6.88 g/m*3 15.2 C 1.6 km/h
264 30-05-2020 21:55:00 15 C 6.92 g/m*3 15 C 1.6 km/h
265 30-05-2020 22:00:00 14.8 C 6.84 g/m*3 14.8 C 0 km/h
266 30-05-2020 22:05:00 14.7 C 6.92 g/m*3 14.7 C 1.6 km/h
267 30-05-2020 22:10:00 14.6 C 7.01 g/m*3 14.6 C 1.6 km/h
268 30-05-2020 22:15:00 14.4 C 6.8 g/m*3 14.4 C 3.2 km/h
269 30-05-2020 22:20:00 14.2 C 6.84 g/m*3 14.2 C 4.8 km/h
270 30-05-2020 22:25:00 14.1 C 6.8 g/m*3 14.1 C 4.8 km/h
271 30-05-2020 22:30:00 13.9 C 6.83 g/m*3 13.9 C 4.8 km/h
272 30-05-2020 22:35:00 13.8 C 6.79 g/m*3 13.8 C 3.2 km/h
273 30-05-2020 22:40:00 13.7 C 6.87 g/m*3 13.7 C 1.6 km/h
274 30-05-2020 22:45:00 13.6 C 6.83 g/m*3 13.6 C 3.2 km/h
275 30-05-2020 22:50:00 13.6 C 6.71 g/m*3 13.6 C 4.8 km/h
Sensor: Nr:Datum:Temp:Abs-Feuchte:Windchill:Wind:
Aussen-T/F 276 30-05-2020 22:55:00 13.6 C 6.71 g/m*3 13.6 C 4.8 km/h
277 30-05-2020 23:00:00 13.6 C 6.71 g/m*3 13.6 C 6.4 km/h
278 30-05-2020 23:05:00 13.6 C 6.71 g/m*3 13.6 C 4.8 km/h
279 30-05-2020 23:10:00 13.6 C 6.71 g/m*3 13.6 C 6.4 km/h
280 30-05-2020 23:15:00 13.6 C 6.71 g/m*3 13.6 C 6.4 km/h
281 30-05-2020 23:20:00 13.5 C 6.78 g/m*3 13.5 C 6.4 km/h
282 30-05-2020 23:25:00 13.4 C 6.74 g/m*3 13.4 C 4.8 km/h
283 30-05-2020 23:30:00 13.3 C 6.7 g/m*3 13.3 C 3.2 km/h
284 30-05-2020 23:35:00 13.2 C 6.77 g/m*3 13.2 C 3.2 km/h
285 30-05-2020 23:40:00 13.2 C 6.77 g/m*3 13.2 C 4.8 km/h
286 30-05-2020 23:45:00 13.1 C 6.73 g/m*3 13.1 C 3.2 km/h
287 30-05-2020 23:50:00 13 C 6.8 g/m*3 13 C 3.2 km/h
288 30-05-2020 23:55:00 12.8 C 6.72 g/m*3 12.8 C 1.6 km/h
289 31-05-2020 00:00:00 12.8 C 6.72 g/m*3 12.8 C 3.2 km/h
290 31-05-2020 00:05:00 12.7 C 6.79 g/m*3 12.7 C 4.8 km/h
291 31-05-2020 00:10:00 12.6 C 6.75 g/m*3 12.6 C 4.8 km/h
292 31-05-2020 00:15:00 12.6 C 6.75 g/m*3 12.6 C 3.2 km/h
293 31-05-2020 00:20:00 12.4 C 6.77 g/m*3 12.4 C 3.2 km/h
294 31-05-2020 00:25:00 12.3 C 6.73 g/m*3 12.3 C 6.4 km/h
295 31-05-2020 00:30:00 12.3 C 6.84 g/m*3 12.3 C 6.4 km/h
296 31-05-2020 00:35:00 12.1 C 6.86 g/m*3 12.1 C 3.2 km/h
297 31-05-2020 00:40:00 11.9 C 6.99 g/m*3 11.9 C 0 km/h
298 31-05-2020 00:45:00 11.7 C 6.9 g/m*3 11.7 C 3.2 km/h
299 31-05-2020 00:50:00 11.5 C 6.92 g/m*3 11.5 C 0 km/h
300 31-05-2020 00:55:00 11.3 C 6.94 g/m*3 11.3 C 0 km/h
Sensor: Nr:Datum:Temp:Abs-Feuchte:Windchill:Wind:
Aussen-T/F 301 31-05-2020 01:00:00 11.2 C 6.89 g/m*3 11.2 C 1.6 km/h
302 31-05-2020 01:05:00 11.1 C 6.85 g/m*3 11.1 C 3.2 km/h
303 31-05-2020 01:10:00 10.9 C 6.86 g/m*3 10.9 C 3.2 km/h
304 31-05-2020 01:15:00 10.8 C 6.92 g/m*3 10.8 C 0 km/h
305 31-05-2020 01:20:00 10.7 C 6.97 g/m*3 10.7 C 0 km/h
306 31-05-2020 01:25:00 10.6 C 6.93 g/m*3 10.6 C 1.6 km/h
307 31-05-2020 01:30:00 10.4 C 6.84 g/m*3 10.4 C 0 km/h
308 31-05-2020 01:35:00 10.3 C 6.9 g/m*3 10.3 C 0 km/h
309 31-05-2020 01:40:00 10.3 C 6.9 g/m*3 10.3 C 0 km/h
310 31-05-2020 01:45:00 10.2 C 6.85 g/m*3 10.2 C 0 km/h
311 31-05-2020 01:50:00 10.2 C 6.85 g/m*3 10.2 C 0 km/h
312 31-05-2020 01:55:00 10.1 C 6.9 g/m*3 10.1 C 0 km/h
313 31-05-2020 02:00:00 10 C 6.86 g/m*3 10 C 0 km/h
314 31-05-2020 02:05:00 9.9 C 6.91 g/m*3 9.9 C 0 km/h
315 31-05-2020 02:10:00 9.8 C 6.87 g/m*3 9.8 C 0 km/h
316 31-05-2020 02:15:00 9.7 C 6.82 g/m*3 9.7 C 0 km/h
317 31-05-2020 02:20:00 9.6 C 6.87 g/m*3 9.6 C 0 km/h
318 31-05-2020 02:25:00 9.4 C 6.87 g/m*3 9.4 C 0 km/h
319 31-05-2020 02:30:00 9.3 C 6.83 g/m*3 9.3 C 0 km/h
320 31-05-2020 02:35:00 9.2 C 6.79 g/m*3 9.2 C 0 km/h
321 31-05-2020 02:40:00 9.1 C 6.83 g/m*3 9.1 C 0 km/h
322 31-05-2020 02:45:00 9.1 C 6.83 g/m*3 9.1 C 0 km/h
323 31-05-2020 02:50:00 9 C 6.79 g/m*3 9 C 0 km/h
324 31-05-2020 02:55:00 8.9 C 6.83 g/m*3 8.9 C 0 km/h
325 31-05-2020 03:00:00 8.8 C 6.79 g/m*3 8.8 C 0 km/h
Sensor: Nr:Datum:Temp:Abs-Feuchte:Windchill:Wind:
Aussen-T/F 326 31-05-2020 03:05:00 8.7 C 6.75 g/m*3 8.7 C 0 km/h
327 31-05-2020 03:10:00 8.7 C 6.83 g/m*3 8.7 C 0 km/h
328 31-05-2020 03:15:00 8.6 C 6.79 g/m*3 8.6 C 0 km/h
329 31-05-2020 03:20:00 8.4 C 6.7 g/m*3 8.4 C 0 km/h
330 31-05-2020 03:25:00 8.4 C 6.79 g/m*3 8.4 C 0 km/h
331 31-05-2020 03:30:00 8.3 C 6.74 g/m*3 8.3 C 0 km/h
332 31-05-2020 03:35:00 8.3 C 6.74 g/m*3 8.3 C 0 km/h
333 31-05-2020 03:40:00 8.3 C 6.83 g/m*3 8.3 C 0 km/h
334 31-05-2020 03:45:00 8.4 C 6.96 g/m*3 8.4 C 0 km/h
335 31-05-2020 03:50:00 8.5 C 7 g/m*3 8.5 C 0 km/h
336 31-05-2020 03:55:00 8.6 C 7.05 g/m*3 8.6 C 0 km/h
337 31-05-2020 04:00:00 8.7 C 7.09 g/m*3 8.7 C 0 km/h
338 31-05-2020 04:05:00 8.8 C 7.14 g/m*3 8.8 C 0 km/h
339 31-05-2020 04:10:00 8.9 C 7.18 g/m*3 8.9 C 0 km/h
340 31-05-2020 04:15:00 9 C 7.23 g/m*3 9 C 0 km/h
341 31-05-2020 04:20:00 9 C 7.23 g/m*3 9 C 0 km/h
342 31-05-2020 04:25:00 9 C 7.23 g/m*3 9 C 0 km/h
343 31-05-2020 04:30:00 9 C 7.14 g/m*3 9 C 0 km/h
344 31-05-2020 04:35:00 8.9 C 7.1 g/m*3 8.9 C 0 km/h
345 31-05-2020 04:40:00 8.9 C 7.1 g/m*3 8.9 C 0 km/h
346 31-05-2020 04:45:00 8.9 C 7.1 g/m*3 8.9 C 0 km/h
347 31-05-2020 04:50:00 8.9 C 7.18 g/m*3 8.9 C 0 km/h
348 31-05-2020 04:55:00 8.8 C 7.14 g/m*3 8.8 C 0 km/h
349 31-05-2020 05:00:00 8.9 C 7.18 g/m*3 8.9 C 0 km/h
350 31-05-2020 05:05:00 8.9 C 7.18 g/m*3 8.9 C 0 km/h
Sensor: Nr:Datum:Temp:Abs-Feuchte:Windchill:Wind:
Aussen-T/F 351 31-05-2020 05:10:00 9 C 7.23 g/m*3 9 C 0 km/h
352 31-05-2020 05:15:00 9.1 C 7.36 g/m*3 9.1 C 0 km/h
353 31-05-2020 05:20:00 9.1 C 7.28 g/m*3 9.1 C 0 km/h
354 31-05-2020 05:25:00 9.1 C 7.28 g/m*3 9.1 C 0 km/h
355 31-05-2020 05:30:00 9.2 C 7.32 g/m*3 9.2 C 0 km/h
356 31-05-2020 05:35:00 9.2 C 7.41 g/m*3 9.2 C 0 km/h
357 31-05-2020 05:40:00 9.2 C 7.41 g/m*3 9.2 C 0 km/h
358 31-05-2020 05:45:00 9.2 C 7.32 g/m*3 9.2 C 0 km/h
359 31-05-2020 05:50:00 9.3 C 7.46 g/m*3 9.3 C 0 km/h
360 31-05-2020 05:55:00 9.2 C 7.32 g/m*3 9.2 C 1.6 km/h
361 31-05-2020 06:00:00 9.2 C 7.32 g/m*3 9.2 C 1.6 km/h
362 31-05-2020 06:05:00 9.2 C 7.32 g/m*3 9.2 C 0 km/h
363 31-05-2020 06:10:00 9 C 7.23 g/m*3 9 C 0 km/h
364 31-05-2020 06:15:00 8.8 C 7.14 g/m*3 8.8 C 0 km/h
365 31-05-2020 06:20:00 8.7 C 7.18 g/m*3 8.7 C 0 km/h
366 31-05-2020 06:25:00 8.6 C 7.13 g/m*3 8.6 C 0 km/h
367 31-05-2020 06:30:00 8.5 C 7.17 g/m*3 8.5 C 0 km/h
368 31-05-2020 06:35:00 8.4 C 7.13 g/m*3 8.4 C 0 km/h
369 31-05-2020 06:40:00 8.4 C 7.13 g/m*3 8.4 C 1.6 km/h
370 31-05-2020 06:45:00 8.3 C 7.16 g/m*3 8.3 C 0 km/h
371 31-05-2020 06:50:00 8.3 C 7.16 g/m*3 8.3 C 0 km/h
372 31-05-2020 06:55:00 8.2 C 7.2 g/m*3 8.2 C 0 km/h
373 31-05-2020 07:00:00 8.2 C 7.2 g/m*3 8.2 C 0 km/h
374 31-05-2020 07:05:00 8.2 C 7.29 g/m*3 8.2 C 0 km/h
375 31-05-2020 07:10:00 8.2 C 7.29 g/m*3 8.2 C 0 km/h
Sensor: Nr:Datum:Temp:Abs-Feuchte:Windchill:Wind:
Aussen-T/F 376 31-05-2020 07:15:00 8.2 C 7.29 g/m*3 8.2 C 0 km/h
377 31-05-2020 07:20:00 8.3 C 7.33 g/m*3 8.3 C 0 km/h
378 31-05-2020 07:25:00 8.3 C 7.33 g/m*3 8.3 C 0 km/h
379 31-05-2020 07:30:00 8.3 C 7.42 g/m*3 8.3 C 0 km/h
380 31-05-2020 07:35:00 8.4 C 7.47 g/m*3 8.4 C 0 km/h
381 31-05-2020 07:40:00 8.4 C 7.47 g/m*3 8.4 C 0 km/h
382 31-05-2020 07:45:00 8.6 C 7.65 g/m*3 8.6 C 0 km/h
383 31-05-2020 07:50:00 8.8 C 7.75 g/m*3 8.8 C 0 km/h
384 31-05-2020 07:55:00 8.9 C 7.8 g/m*3 8.9 C 0 km/h
385 31-05-2020 08:00:00 9.1 C 7.9 g/m*3 9.1 C 0 km/h
386 31-05-2020 08:05:00 9.3 C 7.91 g/m*3 9.3 C 1.6 km/h
387 31-05-2020 08:10:00 9.6 C 7.97 g/m*3 9.6 C 0 km/h
388 31-05-2020 08:15:00 9.8 C 7.98 g/m*3 9.8 C 0 km/h
389 31-05-2020 08:20:00 10.1 C 8.23 g/m*3 10.1 C 0 km/h
390 31-05-2020 08:25:00 10.3 C 8.24 g/m*3 10.3 C 0 km/h
391 31-05-2020 08:30:00 10.5 C 8.24 g/m*3 10.5 C 0 km/h
392 31-05-2020 08:35:00 10.8 C 8.4 g/m*3 10.8 C 0 km/h
393 31-05-2020 08:40:00 11 C 8.51 g/m*3 11 C 0 km/h
394 31-05-2020 08:45:00 11.2 C 8.51 g/m*3 11.2 C 0 km/h
395 31-05-2020 08:50:00 11.3 C 8.47 g/m*3 11.3 C 0 km/h
396 31-05-2020 08:55:00 11.5 C 8.57 g/m*3 11.5 C 0 km/h
397 31-05-2020 09:00:00 11.6 C 8.52 g/m*3 11.6 C 0 km/h
398 31-05-2020 09:05:00 11.8 C 8.63 g/m*3 11.8 C 0 km/h
399 31-05-2020 09:10:00 12 C 8.63 g/m*3 12 C 0 km/h
400 31-05-2020 09:15:00 12.2 C 8.63 g/m*3 12.2 C 0 km/h
Sensor: Nr:Datum:Temp:Abs-Feuchte:Windchill:Wind:
Aussen-T/F 401 31-05-2020 09:20:00 12.4 C 8.74 g/m*3 12.4 C 0 km/h
402 31-05-2020 09:25:00 12.6 C 8.85 g/m*3 12.6 C 0 km/h
403 31-05-2020 09:30:00 12.7 C 8.91 g/m*3 12.7 C 0 km/h
404 31-05-2020 09:35:00 12.8 C 8.4 g/m*3 12.8 C 0 km/h
405 31-05-2020 09:40:00 13.2 C 8.27 g/m*3 13.2 C 8.1 km/h
406 31-05-2020 09:45:00 13.6 C 8.24 g/m*3 13.6 C 8.1 km/h
407 31-05-2020 09:50:00 14.1 C 8.25 g/m*3 14.1 C 6.4 km/h
408 31-05-2020 09:55:00 14.6 C 8.26 g/m*3 14.6 C 6.4 km/h
409 31-05-2020 10:00:00 14.9 C 8.16 g/m*3 14.9 C 9.7 km/h
410 31-05-2020 10:05:00 15.3 C 7.84 g/m*3 15.3 C 16.1 km/h
411 31-05-2020 10:10:00 15.5 C 7.93 g/m*3 15.5 C 3.2 km/h
412 31-05-2020 10:15:00 15.7 C 8.03 g/m*3 15.7 C 4.8 km/h
413 31-05-2020 10:20:00 16 C 7.63 g/m*3 16 C 11.3 km/h
414 31-05-2020 10:25:00 16.1 C 7.54 g/m*3 16.1 C 14.5 km/h
415 31-05-2020 10:30:00 16.3 C 7.35 g/m*3 16.3 C 14.5 km/h
416 31-05-2020 10:35:00 16.4 C 7.4 g/m*3 16.4 C 12.9 km/h
417 31-05-2020 10:40:00 16.6 C 7.63 g/m*3 16.6 C 14.5 km/h
418 31-05-2020 10:45:00 16.7 C 7.67 g/m*3 16.7 C 4.8 km/h
419 31-05-2020 10:50:00 16.8 C 7.58 g/m*3 16.8 C 11.3 km/h
420 31-05-2020 10:55:00 16.8 C 7.29 g/m*3 16.8 C 12.9 km/h
421 31-05-2020 11:00:00 16.9 C 7.48 g/m*3 16.9 C 11.3 km/h
422 31-05-2020 11:05:00 16.8 C 7.43 g/m*3 16.8 C 8.1 km/h
423 31-05-2020 11:10:00 16.9 C 7.62 g/m*3 16.9 C 11.3 km/h
424 31-05-2020 11:15:00 17.3 C 7.66 g/m*3 17.3 C 11.3 km/h
425 31-05-2020 11:20:00 17.6 C 7.5 g/m*3 17.6 C 12.9 km/h
Sensor: Nr:Datum:Temp:Abs-Feuchte:Windchill:Wind:
Aussen-T/F 426 31-05-2020 11:25:00 17.7 C 7.54 g/m*3 17.7 C 12.9 km/h
427 31-05-2020 11:30:00 17.8 C 7.44 g/m*3 17.8 C 16.1 km/h
428 31-05-2020 11:35:00 17.9 C 7.48 g/m*3 17.9 C 16.1 km/h
429 31-05-2020 11:40:00 17.8 C 7.44 g/m*3 17.8 C 11.3 km/h
430 31-05-2020 11:45:00 17.7 C 7.39 g/m*3 17.7 C 20.9 km/h
431 31-05-2020 11:50:00 17.6 C 7.35 g/m*3 17.6 C 12.9 km/h
432 31-05-2020 11:55:00 17.4 C 7.26 g/m*3 17.4 C 12.9 km/h
433 31-05-2020 12:00:00 17.3 C 7.37 g/m*3 17.3 C 9.7 km/h
434 31-05-2020 12:05:00 17.4 C 7.26 g/m*3 17.4 C 12.9 km/h
435 31-05-2020 12:10:00 17.6 C 6.9 g/m*3 17.6 C 9.7 km/h
436 31-05-2020 12:15:00 17.7 C 7.24 g/m*3 17.7 C 14.5 km/h
437 31-05-2020 12:20:00 17.8 C 7.44 g/m*3 17.8 C 8.1 km/h
438 31-05-2020 12:25:00 17.8 C 7.29 g/m*3 17.8 C 9.7 km/h
439 31-05-2020 12:30:00 17.9 C 7.02 g/m*3 17.9 C 9.7 km/h
440 31-05-2020 12:35:00 17.9 C 7.02 g/m*3 17.9 C 17.7 km/h
441 31-05-2020 12:40:00 17.9 C 7.18 g/m*3 17.9 C 11.3 km/h
442 31-05-2020 12:45:00 18.1 C 7.11 g/m*3 18.1 C 17.7 km/h
443 31-05-2020 12:50:00 18.2 C 6.99 g/m*3 18.2 C 16.1 km/h
444 31-05-2020 12:55:00 18.3 C 7.04 g/m*3 18.3 C 16.1 km/h
445 31-05-2020 13:00:00 18.4 C 7.08 g/m*3 18.4 C 12.9 km/h
446 31-05-2020 13:05:00 18.6 C 7.32 g/m*3 18.6 C 14.5 km/h
447 31-05-2020 13:10:00 18.7 C 7.04 g/m*3 18.7 C 16.1 km/h
448 31-05-2020 13:15:00 18.6 C 6.84 g/m*3 18.6 C 14.5 km/h
449 31-05-2020 13:20:00 18.4 C 6.76 g/m*3 18.4 C 12.9 km/h
450 31-05-2020 13:25:00 18.6 C 6.84 g/m*3 18.6 C 9.7 km/h
Sensor: Nr:Datum:Temp:Abs-Feuchte:Windchill:Wind:
Aussen-T/F 451 31-05-2020 13:30:00 18.8 C 6.6 g/m*3 18.8 C 6.4 km/h
452 31-05-2020 13:35:00 18.8 C 6.76 g/m*3 18.8 C 12.9 km/h
453 31-05-2020 13:40:00 19.1 C 6.88 g/m*3 19.1 C 9.7 km/h
454 31-05-2020 13:45:00 19.1 C 6.72 g/m*3 19.1 C 16.1 km/h
455 31-05-2020 13:50:00 19.1 C 6.88 g/m*3 19.1 C 12.9 km/h
456 31-05-2020 13:55:00 19.1 C 7.05 g/m*3 19.1 C 14.5 km/h
457 31-05-2020 14:00:00 19.2 C 6.93 g/m*3 19.2 C 14.5 km/h
458 31-05-2020 14:05:00 19.3 C 7.13 g/m*3 19.3 C 11.3 km/h
459 31-05-2020 14:10:00 19.5 C 7.22 g/m*3 19.5 C 12.9 km/h
460 31-05-2020 14:15:00 19.7 C 7.13 g/m*3 19.7 C 17.7 km/h
461 31-05-2020 14:20:00 19.7 C 7.13 g/m*3 19.7 C 19.3 km/h
462 31-05-2020 14:25:00 19.8 C 7.17 g/m*3 19.8 C 22.5 km/h
463 31-05-2020 14:30:00 19.8 C 7.17 g/m*3 19.8 C 20.9 km/h
464 31-05-2020 14:35:00 19.8 C 7.17 g/m*3 19.8 C 12.9 km/h
465 31-05-2020 14:40:00 19.8 C 7 g/m*3 19.8 C 20.9 km/h
466 31-05-2020 14:45:00 19.8 C 7.17 g/m*3 19.8 C 16.1 km/h
467 31-05-2020 14:50:00 19.9 C 7.39 g/m*3 19.9 C 14.5 km/h
468 31-05-2020 14:55:00 20.1 C 7.3 g/m*3 20.1 C 20.9 km/h
469 31-05-2020 15:00:00 20.3 C 7.74 g/m*3 20.3 C 9.7 km/h
470 31-05-2020 15:05:00 20.4 C 7.25 g/m*3 20.4 C 24.1 km/h
471 31-05-2020 15:10:00 20.4 C 7.43 g/m*3 20.4 C 14.5 km/h
472 31-05-2020 15:15:00 20.6 C 7.7 g/m*3 20.6 C 17.7 km/h
473 31-05-2020 15:20:00 20.6 C 7.87 g/m*3 20.6 C 14.5 km/h
474 31-05-2020 15:25:00 20.8 C 7.79 g/m*3 20.8 C 19.3 km/h
475 31-05-2020 15:30:00 20.9 C 7.47 g/m*3 20.9 C 12.9 km/h
Sensor: Nr:Datum:Temp:Abs-Feuchte:Windchill:Wind:
Aussen-T/F 476 31-05-2020 15:35:00 21.1 C 7.55 g/m*3 21.1 C 14.5 km/h
477 31-05-2020 15:40:00 21.2 C 7.97 g/m*3 21.2 C 12.9 km/h
478 31-05-2020 15:45:00 21.3 C 7.83 g/m*3 21.3 C 16.1 km/h
479 31-05-2020 15:50:00 21.4 C 8.06 g/m*3 21.4 C 12.9 km/h
480 31-05-2020 15:55:00 21.6 C 8.16 g/m*3 21.6 C 16.1 km/h
481 31-05-2020 16:00:00 21.4 C 8.06 g/m*3 21.4 C 17.7 km/h
482 31-05-2020 16:05:00 21.3 C 8.02 g/m*3 21.3 C 8.1 km/h
483 31-05-2020 16:10:00 21.4 C 8.25 g/m*3 21.4 C 16.1 km/h
484 31-05-2020 16:15:00 21.4 C 7.69 g/m*3 21.4 C 14.5 km/h
485 31-05-2020 16:20:00 21.3 C 7.64 g/m*3 21.3 C 17.7 km/h
486 31-05-2020 16:25:00 21.2 C 7.78 g/m*3 21.2 C 8.1 km/h
487 31-05-2020 16:30:00 21.4 C 8.25 g/m*3 21.4 C 3.2 km/h
488 31-05-2020 16:35:00 21.6 C 7.97 g/m*3 21.6 C 16.1 km/h
489 31-05-2020 16:40:00 21.3 C 7.83 g/m*3 21.3 C 19.3 km/h
490 31-05-2020 16:45:00 21.4 C 7.87 g/m*3 21.4 C 16.1 km/h
491 31-05-2020 16:50:00 21.3 C 7.83 g/m*3 21.3 C 19.3 km/h
492 31-05-2020 16:55:00 21.2 C 7.97 g/m*3 21.2 C 17.7 km/h
493 31-05-2020 17:00:00 21.6 C 7.97 g/m*3 21.6 C 22.5 km/h
494 31-05-2020 17:05:00 21.4 C 8.06 g/m*3 21.4 C 20.9 km/h
495 31-05-2020 17:10:00 21.9 C 7.91 g/m*3 21.9 C 12.9 km/h
496 31-05-2020 17:15:00 21.7 C 7.63 g/m*3 21.7 C 19.3 km/h
497 31-05-2020 17:20:00 21.4 C 7.87 g/m*3 21.4 C 19.3 km/h
498 31-05-2020 17:25:00 21.5 C 7.73 g/m*3 21.5 C 17.7 km/h
499 31-05-2020 17:30:00 21.5 C 7.54 g/m*3 21.5 C 14.5 km/h
500 31-05-2020 17:35:00 21.7 C 7.44 g/m*3 21.7 C 19.3 km/h
Sensor: Nr:Datum:Temp:Abs-Feuchte:Windchill:Wind:
Aussen-T/F 501 31-05-2020 17:40:00 21.7 C 7.63 g/m*3 21.7 C 14.5 km/h
502 31-05-2020 17:45:00 21.7 C 7.63 g/m*3 21.7 C 6.4 km/h
503 31-05-2020 17:50:00 21.6 C 7.4 g/m*3 21.6 C 8.1 km/h
504 31-05-2020 17:55:00 21.6 C 7.78 g/m*3 21.6 C 9.7 km/h
505 31-05-2020 18:00:00 21.8 C 7.67 g/m*3 21.8 C 12.9 km/h
506 31-05-2020 18:05:00 22.2 C 7.66 g/m*3 22.2 C 12.9 km/h
507 31-05-2020 18:10:00 22.2 C 7.66 g/m*3 22.2 C 9.7 km/h
508 31-05-2020 18:15:00 22.2 C 7.85 g/m*3 22.2 C 9.7 km/h
509 31-05-2020 18:20:00 22.3 C 7.7 g/m*3 22.3 C 14.5 km/h
510 31-05-2020 18:25:00 22.2 C 7.85 g/m*3 22.2 C 19.3 km/h
511 31-05-2020 18:30:00 22.2 C 7.85 g/m*3 22.2 C 8.1 km/h
512 31-05-2020 18:35:00 21.7 C 7.44 g/m*3 21.7 C 19.3 km/h
513 31-05-2020 18:40:00 21.5 C 7.54 g/m*3 21.5 C 14.5 km/h
514 31-05-2020 18:45:00 21.4 C 7.5 g/m*3 21.4 C 20.9 km/h
515 31-05-2020 18:50:00 21.4 C 7.5 g/m*3 21.4 C 14.5 km/h
516 31-05-2020 18:55:00 21.3 C 7.64 g/m*3 21.3 C 16.1 km/h
517 31-05-2020 19:00:00 21.3 C 7.64 g/m*3 21.3 C 14.5 km/h
518 31-05-2020 19:05:00 21.5 C 7.73 g/m*3 21.5 C 9.7 km/h
519 31-05-2020 19:10:00 21.7 C 7.63 g/m*3 21.7 C 12.9 km/h
520 31-05-2020 19:15:00 21.7 C 7.82 g/m*3 21.7 C 12.9 km/h
521 31-05-2020 19:20:00 21.5 C 7.54 g/m*3 21.5 C 11.3 km/h
522 31-05-2020 19:25:00 21.3 C 7.46 g/m*3 21.3 C 14.5 km/h
523 31-05-2020 19:30:00 21.1 C 7.37 g/m*3 21.1 C 12.9 km/h
524 31-05-2020 19:35:00 21 C 7.51 g/m*3 21 C 12.9 km/h
525 31-05-2020 19:40:00 20.9 C 7.47 g/m*3 20.9 C 9.7 km/h
Sensor: Nr:Datum:Temp:Abs-Feuchte:Windchill:Wind:
Aussen-T/F 526 31-05-2020 19:45:00 20.8 C 7.79 g/m*3 20.8 C 8.1 km/h
527 31-05-2020 19:50:00 20.8 C 7.79 g/m*3 20.8 C 8.1 km/h
528 31-05-2020 19:55:00 20.8 C 7.79 g/m*3 20.8 C 9.7 km/h
529 31-05-2020 20:00:00 20.7 C 7.74 g/m*3 20.7 C 11.3 km/h
530 31-05-2020 20:05:00 20.6 C 7.7 g/m*3 20.6 C 12.9 km/h
531 31-05-2020 20:10:00 20.4 C 7.61 g/m*3 20.4 C 14.5 km/h
532 31-05-2020 20:15:00 20.4 C 7.96 g/m*3 20.4 C 8.1 km/h
533 31-05-2020 20:20:00 20.4 C 7.78 g/m*3 20.4 C 4.8 km/h
534 31-05-2020 20:25:00 20.4 C 7.78 g/m*3 20.4 C 6.4 km/h
535 31-05-2020 20:30:00 20.3 C 7.91 g/m*3 20.3 C 4.8 km/h
536 31-05-2020 20:35:00 20.3 C 8.09 g/m*3 20.3 C 1.6 km/h
537 31-05-2020 20:40:00 20.3 C 7.91 g/m*3 20.3 C 6.4 km/h
538 31-05-2020 20:45:00 20.1 C 8.17 g/m*3 20.1 C 8.1 km/h
539 31-05-2020 20:50:00 19.9 C 7.9 g/m*3 19.9 C 3.2 km/h
540 31-05-2020 20:55:00 19.8 C 8.03 g/m*3 19.8 C 4.8 km/h
541 31-05-2020 21:00:00 19.6 C 8.61 g/m*3 19.6 C 0 km/h
542 31-05-2020 21:05:00 19.3 C 7.96 g/m*3 19.3 C 3.2 km/h
543 31-05-2020 21:10:00 19.1 C 8.52 g/m*3 19.1 C 0 km/h
544 31-05-2020 21:15:00 18.7 C 8.33 g/m*3 18.7 C 3.2 km/h
545 31-05-2020 21:20:00 18.3 C 8.29 g/m*3 18.3 C 4.8 km/h
546 31-05-2020 21:25:00 17.9 C 8.24 g/m*3 17.9 C 0 km/h
547 31-05-2020 21:30:00 17.6 C 8.1 g/m*3 17.6 C 1.6 km/h
548 31-05-2020 21:35:00 17.2 C 8.05 g/m*3 17.2 C 6.4 km/h
549 31-05-2020 21:40:00 16.9 C 8.05 g/m*3 16.9 C 3.2 km/h
550 31-05-2020 21:45:00 16.7 C 7.96 g/m*3 16.7 C 3.2 km/h
Sensor: Nr:Datum:Temp:Abs-Feuchte:Windchill:Wind:
Aussen-T/F 551 31-05-2020 21:50:00 16.5 C 8 g/m*3 16.5 C 1.6 km/h
552 31-05-2020 21:55:00 16.3 C 7.91 g/m*3 16.3 C 1.6 km/h
553 31-05-2020 22:00:00 16.1 C 8.09 g/m*3 16.1 C 4.8 km/h
554 31-05-2020 22:05:00 15.9 C 7.99 g/m*3 15.9 C 0 km/h
555 31-05-2020 22:10:00 15.7 C 8.03 g/m*3 15.7 C 1.6 km/h
556 31-05-2020 22:15:00 15.5 C 8.06 g/m*3 15.5 C 1.6 km/h
557 31-05-2020 22:20:00 15.3 C 8.1 g/m*3 15.3 C 0 km/h
558 31-05-2020 22:25:00 15.1 C 8 g/m*3 15.1 C 4.8 km/h
559 31-05-2020 22:30:00 15 C 8.08 g/m*3 15 C 3.2 km/h
560 31-05-2020 22:35:00 14.8 C 7.98 g/m*3 14.8 C 1.6 km/h
561 31-05-2020 22:40:00 14.7 C 7.93 g/m*3 14.7 C 1.6 km/h
562 31-05-2020 22:45:00 14.6 C 8.01 g/m*3 14.6 C 3.2 km/h
563 31-05-2020 22:50:00 14.4 C 7.91 g/m*3 14.4 C 0 km/h
564 31-05-2020 22:55:00 14.3 C 7.86 g/m*3 14.3 C 1.6 km/h
565 31-05-2020 23:00:00 14.2 C 7.94 g/m*3 14.2 C 3.2 km/h
566 31-05-2020 23:05:00 14.2 C 7.94 g/m*3 14.2 C 0 km/h
567 31-05-2020 23:10:00 14.1 C 7.89 g/m*3 14.1 C 1.6 km/h
568 31-05-2020 23:15:00 14 C 7.84 g/m*3 14 C 1.6 km/h
569 31-05-2020 23:20:00 14 C 7.96 g/m*3 14 C 3.2 km/h
570 31-05-2020 23:25:00 13.9 C 7.91 g/m*3 13.9 C 1.6 km/h
571 31-05-2020 23:30:00 13.8 C 7.98 g/m*3 13.8 C 0 km/h
572 31-05-2020 23:35:00 13.8 C 7.98 g/m*3 13.8 C 0 km/h
573 31-05-2020 23:40:00 13.7 C 7.93 g/m*3 13.7 C 0 km/h
574 31-05-2020 23:45:00 13.7 C 7.93 g/m*3 13.7 C 0 km/h
575 31-05-2020 23:50:00 13.6 C 8 g/m*3 13.6 C 3.2 km/h
Sensor: Nr:Datum:Temp:Abs-Feuchte:Windchill:Wind:
Aussen-T/F 576 31-05-2020 23:55:00 13.6 C 8 g/m*3 13.6 C 1.6 km/h
577 01-06-2020 00:00:00 13.4 C 7.9 g/m*3 13.4 C 1.6 km/h
578 01-06-2020 00:05:00 13.4 C 7.9 g/m*3 13.4 C 1.6 km/h
579 01-06-2020 00:10:00 13.3 C 7.97 g/m*3 13.3 C 4.8 km/h
580 01-06-2020 00:15:00 13.2 C 7.92 g/m*3 13.2 C 4.8 km/h
581 01-06-2020 00:20:00 13.2 C 7.92 g/m*3 13.2 C 1.6 km/h
582 01-06-2020 00:25:00 13.1 C 7.87 g/m*3 13.1 C 1.6 km/h
583 01-06-2020 00:30:00 13 C 7.94 g/m*3 13 C 3.2 km/h
584 01-06-2020 00:35:00 12.8 C 7.84 g/m*3 12.8 C 3.2 km/h
585 01-06-2020 00:40:00 12.7 C 7.79 g/m*3 12.7 C 3.2 km/h
586 01-06-2020 00:45:00 12.7 C 7.79 g/m*3 12.7 C 3.2 km/h
587 01-06-2020 00:50:00 12.6 C 7.85 g/m*3 12.6 C 4.8 km/h
588 01-06-2020 00:55:00 12.5 C 7.81 g/m*3 12.5 C 4.8 km/h
589 01-06-2020 01:00:00 12.4 C 7.87 g/m*3 12.4 C 4.8 km/h
590 01-06-2020 01:05:00 12.4 C 7.87 g/m*3 12.4 C 3.2 km/h
591 01-06-2020 01:10:00 12.3 C 7.82 g/m*3 12.3 C 3.2 km/h
592 01-06-2020 01:15:00 12.2 C 7.88 g/m*3 12.2 C 1.6 km/h
593 01-06-2020 01:20:00 12.2 C 7.88 g/m*3 12.2 C 0 km/h
594 01-06-2020 01:25:00 12.1 C 7.94 g/m*3 12.1 C 0 km/h
595 01-06-2020 01:30:00 11.9 C 7.84 g/m*3 11.9 C 0 km/h
596 01-06-2020 01:35:00 11.7 C 7.84 g/m*3 11.7 C 1.6 km/h
597 01-06-2020 01:40:00 11.6 C 7.8 g/m*3 11.6 C 1.6 km/h
598 01-06-2020 01:45:00 11.4 C 7.8 g/m*3 11.4 C 0 km/h
599 01-06-2020 01:50:00 11.3 C 7.75 g/m*3 11.3 C 0 km/h
600 01-06-2020 01:55:00 11.2 C 7.8 g/m*3 11.2 C 0 km/h
Sensor: Nr:Datum:Temp:Abs-Feuchte:Windchill:Wind:
Aussen-T/F 601 01-06-2020 02:00:00 11.1 C 7.76 g/m*3 11.1 C 0 km/h
602 01-06-2020 02:05:00 11 C 7.71 g/m*3 11 C 0 km/h
603 01-06-2020 02:10:00 10.9 C 7.76 g/m*3 10.9 C 0 km/h
604 01-06-2020 02:15:00 10.8 C 7.71 g/m*3 10.8 C 0 km/h
605 01-06-2020 02:20:00 10.8 C 7.71 g/m*3 10.8 C 0 km/h
606 01-06-2020 02:25:00 10.8 C 7.81 g/m*3 10.8 C 0 km/h
607 01-06-2020 02:30:00 10.7 C 7.76 g/m*3 10.7 C 0 km/h
608 01-06-2020 02:35:00 10.6 C 7.71 g/m*3 10.6 C 0 km/h
609 01-06-2020 02:40:00 10.5 C 7.66 g/m*3 10.5 C 0 km/h
610 01-06-2020 02:45:00 10.4 C 7.71 g/m*3 10.4 C 0 km/h
611 01-06-2020 02:50:00 10.3 C 7.66 g/m*3 10.3 C 0 km/h
612 01-06-2020 02:55:00 10.3 C 7.66 g/m*3 10.3 C 0 km/h
613 01-06-2020 03:00:00 10.3 C 7.66 g/m*3 10.3 C 0 km/h
614 01-06-2020 03:05:00 10.3 C 7.76 g/m*3 10.3 C 0 km/h
615 01-06-2020 03:10:00 10.2 C 7.71 g/m*3 10.2 C 0 km/h
616 01-06-2020 03:15:00 10.2 C 7.71 g/m*3 10.2 C 0 km/h
617 01-06-2020 03:20:00 10.1 C 7.66 g/m*3 10.1 C 0 km/h
618 01-06-2020 03:25:00 9.9 C 7.56 g/m*3 9.9 C 0 km/h
619 01-06-2020 03:30:00 9.9 C 7.66 g/m*3 9.9 C 0 km/h
620 01-06-2020 03:35:00 9.8 C 7.61 g/m*3 9.8 C 0 km/h
621 01-06-2020 03:40:00 9.8 C 7.61 g/m*3 9.8 C 0 km/h
622 01-06-2020 03:45:00 9.7 C 7.56 g/m*3 9.7 C 0 km/h
623 01-06-2020 03:50:00 9.6 C 7.6 g/m*3 9.6 C 0 km/h
624 01-06-2020 03:55:00 9.6 C 7.6 g/m*3 9.6 C 0 km/h
625 01-06-2020 04:00:00 9.6 C 7.6 g/m*3 9.6 C 0 km/h
Sensor: Nr:Datum:Temp:Abs-Feuchte:Windchill:Wind:
Aussen-T/F 626 01-06-2020 04:05:00 9.6 C 7.6 g/m*3 9.6 C 0 km/h
627 01-06-2020 04:10:00 9.4 C 7.51 g/m*3 9.4 C 0 km/h
628 01-06-2020 04:15:00 9.4 C 7.51 g/m*3 9.4 C 0 km/h
629 01-06-2020 04:20:00 9.3 C 7.55 g/m*3 9.3 C 0 km/h
630 01-06-2020 04:25:00 9.2 C 7.5 g/m*3 9.2 C 0 km/h
631 01-06-2020 04:30:00 9.2 C 7.5 g/m*3 9.2 C 0 km/h
632 01-06-2020 04:35:00 9.1 C 7.54 g/m*3 9.1 C 0 km/h
633 01-06-2020 04:40:00 9 C 7.49 g/m*3 9 C 0 km/h
634 01-06-2020 04:45:00 8.9 C 7.45 g/m*3 8.9 C 0 km/h
635 01-06-2020 04:50:00 8.8 C 7.49 g/m*3 8.8 C 0 km/h
636 01-06-2020 04:55:00 8.8 C 7.49 g/m*3 8.8 C 0 km/h
637 01-06-2020 05:00:00 8.7 C 7.44 g/m*3 8.7 C 0 km/h
638 01-06-2020 05:05:00 8.7 C 7.44 g/m*3 8.7 C 0 km/h
639 01-06-2020 05:10:00 8.7 C 7.52 g/m*3 8.7 C 0 km/h
640 01-06-2020 05:15:00 8.7 C 7.52 g/m*3 8.7 C 0 km/h
641 01-06-2020 05:20:00 8.6 C 7.48 g/m*3 8.6 C 0 km/h
642 01-06-2020 05:25:00 8.6 C 7.48 g/m*3 8.6 C 0 km/h
643 01-06-2020 05:30:00 8.5 C 7.43 g/m*3 8.5 C 0 km/h
644 01-06-2020 05:35:00 8.4 C 7.38 g/m*3 8.4 C 0 km/h
645 01-06-2020 05:40:00 8.4 C 7.38 g/m*3 8.4 C 0 km/h
646 01-06-2020 05:45:00 8.4 C 7.38 g/m*3 8.4 C 0 km/h
647 01-06-2020 05:50:00 8.4 C 7.47 g/m*3 8.4 C 0 km/h
648 01-06-2020 05:55:00 8.3 C 7.42 g/m*3 8.3 C 0 km/h
649 01-06-2020 06:00:00 8.3 C 7.42 g/m*3 8.3 C 0 km/h
650 01-06-2020 06:05:00 8.3 C 7.5 g/m*3 8.3 C 0 km/h
Sensor: Nr:Datum:Temp:Abs-Feuchte:Windchill:Wind:
Aussen-T/F 651 01-06-2020 06:10:00 8.4 C 7.55 g/m*3 8.4 C 0 km/h
652 01-06-2020 06:15:00 8.4 C 7.55 g/m*3 8.4 C 0 km/h
653 01-06-2020 06:20:00 8.4 C 7.55 g/m*3 8.4 C 0 km/h
654 01-06-2020 06:25:00 8.4 C 7.55 g/m*3 8.4 C 0 km/h
655 01-06-2020 06:30:00 8.4 C 7.55 g/m*3 8.4 C 0 km/h
656 01-06-2020 06:35:00 8.5 C 7.68 g/m*3 8.5 C 0 km/h
657 01-06-2020 06:40:00 8.5 C 7.68 g/m*3 8.5 C 0 km/h
658 01-06-2020 06:45:00 8.6 C 7.73 g/m*3 8.6 C 0 km/h
659 01-06-2020 06:50:00 8.6 C 7.73 g/m*3 8.6 C 0 km/h
660 01-06-2020 06:55:00 8.6 C 7.73 g/m*3 8.6 C 0 km/h
661 01-06-2020 07:00:00 8.7 C 7.87 g/m*3 8.7 C 0 km/h
662 01-06-2020 07:05:00 8.8 C 7.83 g/m*3 8.8 C 0 km/h
663 01-06-2020 07:10:00 8.8 C 7.92 g/m*3 8.8 C 0 km/h
664 01-06-2020 07:15:00 8.9 C 7.97 g/m*3 8.9 C 0 km/h
665 01-06-2020 07:20:00 8.9 C 7.97 g/m*3 8.9 C 0 km/h
666 01-06-2020 07:25:00 9.1 C 8.07 g/m*3 9.1 C 0 km/h
667 01-06-2020 07:30:00 9.1 C 8.07 g/m*3 9.1 C 0 km/h
668 01-06-2020 07:35:00 9.2 C 8.13 g/m*3 9.2 C 0 km/h
669 01-06-2020 07:40:00 9.3 C 8.18 g/m*3 9.3 C 0 km/h
670 01-06-2020 07:45:00 9.4 C 8.32 g/m*3 9.4 C 0 km/h
671 01-06-2020 07:50:00 9.6 C 8.43 g/m*3 9.6 C 0 km/h
672 01-06-2020 07:55:00 9.7 C 8.48 g/m*3 9.7 C 0 km/h
673 01-06-2020 08:00:00 9.8 C 8.54 g/m*3 9.8 C 0 km/h
674 01-06-2020 08:05:00 9.9 C 8.5 g/m*3 9.9 C 0 km/h
675 01-06-2020 08:10:00 10.1 C 8.7 g/m*3 10.1 C 0 km/h
Sensor: Nr:Datum:Temp:Abs-Feuchte:Windchill:Wind:
Aussen-T/F 676 01-06-2020 08:15:00 10.2 C 8.66 g/m*3 10.2 C 0 km/h
677 01-06-2020 08:20:00 10.4 C 8.77 g/m*3 10.4 C 1.6 km/h
678 01-06-2020 08:25:00 10.6 C 8.88 g/m*3 10.6 C 0 km/h
679 01-06-2020 08:30:00 10.7 C 8.94 g/m*3 10.7 C 0 km/h
680 01-06-2020 08:35:00 10.9 C 9.05 g/m*3 10.9 C 0 km/h
681 01-06-2020 08:40:00 11.1 C 9.07 g/m*3 11.1 C 0 km/h
682 01-06-2020 08:45:00 11.3 C 9.18 g/m*3 11.3 C 0 km/h
683 01-06-2020 08:50:00 11.4 C 9.24 g/m*3 11.4 C 0 km/h
684 01-06-2020 08:55:00 11.7 C 9.31 g/m*3 11.7 C 3.2 km/h
685 01-06-2020 09:00:00 12 C 9.38 g/m*3 12 C 3.2 km/h
686 01-06-2020 09:05:00 12.4 C 9.4 g/m*3 12.4 C 1.6 km/h
687 01-06-2020 09:10:00 12.7 C 9.46 g/m*3 12.7 C 0 km/h
688 01-06-2020 09:15:00 13.3 C 9.36 g/m*3 13.3 C 6.4 km/h
689 01-06-2020 09:20:00 13.8 C 9.65 g/m*3 13.8 C 6.4 km/h
690 01-06-2020 09:25:00 14.1 C 9.59 g/m*3 14.1 C 1.6 km/h
691 01-06-2020 09:30:00 14.4 C 9.52 g/m*3 14.4 C 3.2 km/h
692 01-06-2020 09:35:00 14.8 C 9.63 g/m*3 14.8 C 1.6 km/h
693 01-06-2020 09:40:00 15.2 C 9.61 g/m*3 15.2 C 1.6 km/h
694 01-06-2020 09:45:00 15.5 C 9.52 g/m*3 15.5 C 1.6 km/h
695 01-06-2020 09:50:00 15.8 C 9.56 g/m*3 15.8 C 9.7 km/h
696 01-06-2020 09:55:00 16.1 C 10.14 g/m*3 16.1 C 1.6 km/h
697 01-06-2020 10:00:00 16.2 C 9.65 g/m*3 16.2 C 8.1 km/h
698 01-06-2020 10:05:00 16.7 C 9.66 g/m*3 16.7 C 8.1 km/h
699 01-06-2020 10:10:00 17.1 C 9.75 g/m*3 17.1 C 4.8 km/h
700 01-06-2020 10:15:00 17.5 C 9.99 g/m*3 17.5 C 4.8 km/h
Sensor: Nr:Datum:Temp:Abs-Feuchte:Windchill:Wind:
Aussen-T/F 701 01-06-2020 10:20:00 17.9 C 9.92 g/m*3 17.9 C 3.2 km/h
702 01-06-2020 10:25:00 18.3 C 9.85 g/m*3 18.3 C 6.4 km/h
703 01-06-2020 10:30:00 18.8 C 9.66 g/m*3 18.8 C 9.7 km/h
704 01-06-2020 10:35:00 19.2 C 9.89 g/m*3 19.2 C 4.8 km/h
705 01-06-2020 10:40:00 19.5 C 9.9 g/m*3 19.5 C 11.3 km/h
706 01-06-2020 10:45:00 19.8 C 9.57 g/m*3 19.8 C 6.4 km/h
707 01-06-2020 10:50:00 20 C 9.33 g/m*3 20 C 9.7 km/h
708 01-06-2020 10:55:00 20.2 C 9.62 g/m*3 20.2 C 6.4 km/h
709 01-06-2020 11:00:00 20.3 C 9.5 g/m*3 20.3 C 3.2 km/h
710 01-06-2020 11:05:00 20.6 C 9.66 g/m*3 20.6 C 6.4 km/h
711 01-06-2020 11:10:00 20.8 C 9.42 g/m*3 20.8 C 9.7 km/h
712 01-06-2020 11:15:00 20.9 C 9.29 g/m*3 20.9 C 4.8 km/h
713 01-06-2020 11:20:00 21.1 C 9.21 g/m*3 21.1 C 3.2 km/h
714 01-06-2020 11:25:00 21.1 C 9.4 g/m*3 21.1 C 6.4 km/h
715 01-06-2020 11:30:00 21.2 C 9.27 g/m*3 21.2 C 11.3 km/h
716 01-06-2020 11:35:00 21.3 C 9.13 g/m*3 21.3 C 11.3 km/h
717 01-06-2020 11:40:00 21.4 C 9.19 g/m*3 21.4 C 9.7 km/h
718 01-06-2020 11:45:00 21.7 C 9.16 g/m*3 21.7 C 9.7 km/h
719 01-06-2020 11:50:00 21.8 C 9.21 g/m*3 21.8 C 6.4 km/h
720 01-06-2020 11:55:00 21.9 C 9.26 g/m*3 21.9 C 9.7 km/h
721 01-06-2020 12:00:00 22 C 9.12 g/m*3 22 C 9.7 km/h
722 01-06-2020 12:05:00 22.1 C 9.17 g/m*3 22.1 C 14.5 km/h
723 01-06-2020 12:10:00 22.2 C 9.03 g/m*3 22.2 C 8.1 km/h
724 01-06-2020 12:15:00 22.2 C 9.23 g/m*3 22.2 C 8.1 km/h
725 01-06-2020 12:20:00 22.3 C 9.08 g/m*3 22.3 C 14.5 km/h
Sensor: Nr:Datum:Temp:Abs-Feuchte:Windchill:Wind:
Aussen-T/F 726 01-06-2020 12:25:00 22.4 C 9.33 g/m*3 22.4 C 11.3 km/h
727 01-06-2020 12:30:00 22.4 C 9.33 g/m*3 22.4 C 9.7 km/h
728 01-06-2020 12:35:00 22.4 C 9.14 g/m*3 22.4 C 14.5 km/h
729 01-06-2020 12:40:00 22.6 C 9.24 g/m*3 22.6 C 8.1 km/h
730 01-06-2020 12:45:00 22.6 C 9.44 g/m*3 22.6 C 6.4 km/h
731 01-06-2020 12:50:00 22.6 C 9.24 g/m*3 22.6 C 8.1 km/h
732 01-06-2020 12:55:00 22.7 C 9.29 g/m*3 22.7 C 9.7 km/h
733 01-06-2020 13:00:00 22.7 C 9.29 g/m*3 22.7 C 16.1 km/h
734 01-06-2020 13:05:00 22.8 C 9.35 g/m*3 22.8 C 8.1 km/h
735 01-06-2020 13:10:00 22.8 C 9.35 g/m*3 22.8 C 14.5 km/h
736 01-06-2020 13:15:00 22.9 C 9.2 g/m*3 22.9 C 4.8 km/h
737 01-06-2020 13:20:00 22.9 C 9.4 g/m*3 22.9 C 11.3 km/h
738 01-06-2020 13:25:00 23.1 C 9.51 g/m*3 23.1 C 6.4 km/h
739 01-06-2020 13:30:00 23.2 C 9.15 g/m*3 23.2 C 9.7 km/h
740 01-06-2020 13:35:00 23.4 C 9.46 g/m*3 23.4 C 14.5 km/h
741 01-06-2020 13:40:00 23.6 C 9.36 g/m*3 23.6 C 14.5 km/h
742 01-06-2020 13:45:00 23.7 C 9.41 g/m*3 23.7 C 8.1 km/h
743 01-06-2020 13:50:00 23.8 C 9.46 g/m*3 23.8 C 12.9 km/h
744 01-06-2020 13:55:00 23.9 C 9.09 g/m*3 23.9 C 9.7 km/h
745 01-06-2020 14:00:00 23.9 C 9.09 g/m*3 23.9 C 11.3 km/h
746 01-06-2020 14:05:00 23.9 C 9.3 g/m*3 23.9 C 8.1 km/h
747 01-06-2020 14:10:00 23.9 C 9.3 g/m*3 23.9 C 9.7 km/h
748 01-06-2020 14:15:00 24 C 9.36 g/m*3 24 C 8.1 km/h
749 01-06-2020 14:20:00 24.1 C 8.97 g/m*3 24.1 C 8.1 km/h
750 01-06-2020 14:25:00 24.3 C 9.07 g/m*3 24.3 C 14.5 km/h
Sensor: Nr:Datum:Temp:Abs-Feuchte:Windchill:Wind:
Aussen-T/F 751 01-06-2020 14:30:00 24.5 C 9.18 g/m*3 24.5 C 16.1 km/h
752 01-06-2020 14:35:00 24.4 C 8.9 g/m*3 24.4 C 20.9 km/h
753 01-06-2020 14:40:00 24.4 C 9.12 g/m*3 24.4 C 8.1 km/h
754 01-06-2020 14:45:00 24.4 C 9.12 g/m*3 24.4 C 14.5 km/h
755 01-06-2020 14:50:00 24.6 C 9.23 g/m*3 24.6 C 6.4 km/h
756 01-06-2020 14:55:00 24.8 C 9.1 g/m*3 24.8 C 9.7 km/h
757 01-06-2020 15:00:00 25 C 8.98 g/m*3 25 C 9.7 km/h
758 01-06-2020 15:05:00 25.2 C 9.08 g/m*3 25.2 C 9.7 km/h
759 01-06-2020 15:10:00 25.1 C 8.8 g/m*3 25.1 C 11.3 km/h
760 01-06-2020 15:15:00 25.2 C 9.08 g/m*3 25.2 C 8.1 km/h
761 01-06-2020 15:20:00 25.7 C 9.34 g/m*3 25.7 C 11.3 km/h
762 01-06-2020 15:25:00 25.8 C 8.91 g/m*3 25.8 C 16.1 km/h
763 01-06-2020 15:30:00 25.7 C 9.1 g/m*3 25.7 C 12.9 km/h
764 01-06-2020 15:35:00 25.8 C 8.91 g/m*3 25.8 C 16.1 km/h
765 01-06-2020 15:40:00 25.9 C 8.47 g/m*3 25.9 C 17.7 km/h
766 01-06-2020 15:45:00 26 C 8.76 g/m*3 26 C 14.5 km/h
767 01-06-2020 15:50:00 26 C 8.76 g/m*3 26 C 12.9 km/h
768 01-06-2020 15:55:00 26.3 C 8.66 g/m*3 26.3 C 9.7 km/h
769 01-06-2020 16:00:00 26.3 C 8.66 g/m*3 26.3 C 12.9 km/h
770 01-06-2020 16:05:00 26.6 C 8.81 g/m*3 26.6 C 11.3 km/h
771 01-06-2020 16:10:00 26.8 C 8.65 g/m*3 26.8 C 12.9 km/h
772 01-06-2020 16:15:00 26.7 C 8.61 g/m*3 26.7 C 14.5 km/h
773 01-06-2020 16:20:00 26.8 C 8.91 g/m*3 26.8 C 6.4 km/h
774 01-06-2020 16:25:00 26.9 C 8.7 g/m*3 26.9 C 16.1 km/h
775 01-06-2020 16:30:00 26.9 C 8.96 g/m*3 26.9 C 11.3 km/h
Sensor: Nr:Datum:Temp:Abs-Feuchte:Windchill:Wind:
Aussen-T/F 776 01-06-2020 16:35:00 27.2 C 9.11 g/m*3 27.2 C 8.1 km/h
777 01-06-2020 16:40:00 27.5 C 9 g/m*3 27.5 C 12.9 km/h
778 01-06-2020 16:45:00 27.2 C 8.85 g/m*3 27.2 C 17.7 km/h
779 01-06-2020 16:50:00 26.7 C 8.86 g/m*3 26.7 C 12.9 km/h
780 01-06-2020 16:55:00 26.8 C 8.91 g/m*3 26.8 C 11.3 km/h
781 01-06-2020 17:00:00 26.9 C 8.7 g/m*3 26.9 C 9.7 km/h
782 01-06-2020 17:05:00 26.9 C 8.96 g/m*3 26.9 C 19.3 km/h
783 01-06-2020 17:10:00 26.7 C 8.86 g/m*3 26.7 C 11.3 km/h
784 01-06-2020 17:15:00 26.9 C 8.96 g/m*3 26.9 C 12.9 km/h
785 01-06-2020 17:20:00 27.3 C 8.9 g/m*3 27.3 C 12.9 km/h
786 01-06-2020 17:25:00 26.9 C 8.96 g/m*3 26.9 C 14.5 km/h
787 01-06-2020 17:30:00 27.1 C 9.06 g/m*3 27.1 C 9.7 km/h
788 01-06-2020 17:35:00 27 C 8.75 g/m*3 27 C 17.7 km/h
789 01-06-2020 17:40:00 26.8 C 8.91 g/m*3 26.8 C 16.1 km/h
790 01-06-2020 17:45:00 27.1 C 9.06 g/m*3 27.1 C 11.3 km/h
791 01-06-2020 17:50:00 27.1 C 8.8 g/m*3 27.1 C 14.5 km/h
792 01-06-2020 17:55:00 27 C 9.01 g/m*3 27 C 9.7 km/h
793 01-06-2020 18:00:00 27.3 C 8.63 g/m*3 27.3 C 11.3 km/h
794 01-06-2020 18:05:00 27.5 C 9 g/m*3 27.5 C 11.3 km/h
795 01-06-2020 18:10:00 27.3 C 8.63 g/m*3 27.3 C 16.1 km/h
796 01-06-2020 18:15:00 26.9 C 8.7 g/m*3 26.9 C 9.7 km/h
797 01-06-2020 18:20:00 26.9 C 8.7 g/m*3 26.9 C 12.9 km/h
798 01-06-2020 18:25:00 27 C 8.75 g/m*3 27 C 14.5 km/h
799 01-06-2020 18:30:00 26.9 C 8.96 g/m*3 26.9 C 14.5 km/h
800 01-06-2020 18:35:00 27 C 8.75 g/m*3 27 C 12.9 km/h
Sensor: Nr:Datum:Temp:Abs-Feuchte:Windchill:Wind:
Aussen-T/F 801 01-06-2020 18:40:00 27.1 C 8.8 g/m*3 27.1 C 12.9 km/h
802 01-06-2020 18:45:00 27.1 C 8.8 g/m*3 27.1 C 11.3 km/h
803 01-06-2020 18:50:00 26.8 C 8.91 g/m*3 26.8 C 16.1 km/h
804 01-06-2020 18:55:00 26.7 C 8.86 g/m*3 26.7 C 11.3 km/h
805 01-06-2020 19:00:00 26.7 C 8.86 g/m*3 26.7 C 12.9 km/h
806 01-06-2020 19:05:00 26.7 C 8.86 g/m*3 26.7 C 12.9 km/h
807 01-06-2020 19:10:00 26.6 C 8.81 g/m*3 26.6 C 14.5 km/h
808 01-06-2020 19:15:00 26.4 C 8.71 g/m*3 26.4 C 14.5 km/h
809 01-06-2020 19:20:00 26.3 C 8.66 g/m*3 26.3 C 14.5 km/h
810 01-06-2020 19:25:00 26.2 C 8.86 g/m*3 26.2 C 9.7 km/h
811 01-06-2020 19:30:00 26.1 C 8.57 g/m*3 26.1 C 19.3 km/h
812 01-06-2020 19:35:00 25.8 C 8.67 g/m*3 25.8 C 11.3 km/h
813 01-06-2020 19:40:00 25.7 C 8.86 g/m*3 25.7 C 9.7 km/h
814 01-06-2020 19:45:00 25.8 C 8.91 g/m*3 25.8 C 8.1 km/h
815 01-06-2020 19:50:00 25.7 C 8.62 g/m*3 25.7 C 12.9 km/h
816 01-06-2020 19:55:00 25.6 C 8.81 g/m*3 25.6 C 11.3 km/h
817 01-06-2020 20:00:00 25.4 C 8.71 g/m*3 25.4 C 16.1 km/h
818 01-06-2020 20:05:00 25.3 C 8.9 g/m*3 25.3 C 11.3 km/h
819 01-06-2020 20:10:00 25.3 C 9.13 g/m*3 25.3 C 4.8 km/h
820 01-06-2020 20:15:00 25.3 C 8.9 g/m*3 25.3 C 9.7 km/h
821 01-06-2020 20:20:00 25.2 C 9.31 g/m*3 25.2 C 6.4 km/h
822 01-06-2020 20:25:00 25.2 C 9.08 g/m*3 25.2 C 4.8 km/h
823 01-06-2020 20:30:00 25.2 C 9.54 g/m*3 25.2 C 4.8 km/h
824 01-06-2020 20:35:00 25.1 C 10.19 g/m*3 25.1 C 9.7 km/h
825 01-06-2020 20:40:00 25.1 C 10.19 g/m*3 25.1 C 3.2 km/h
Sensor: Nr:Datum:Temp:Abs-Feuchte:Windchill:Wind:
Aussen-T/F 826 01-06-2020 20:45:00 24.8 C 10.24 g/m*3 24.8 C 1.6 km/h
827 01-06-2020 20:50:00 24.5 C 10.3 g/m*3 24.5 C 3.2 km/h
828 01-06-2020 20:55:00 24.1 C 10.06 g/m*3 24.1 C 4.8 km/h
829 01-06-2020 21:00:00 23.5 C 9.73 g/m*3 23.5 C 3.2 km/h
830 01-06-2020 21:05:00 22.9 C 9.4 g/m*3 22.9 C 1.6 km/h
831 01-06-2020 21:10:00 22.4 C 9.33 g/m*3 22.4 C 0 km/h
832 01-06-2020 21:15:00 21.9 C 9.26 g/m*3 21.9 C 1.6 km/h
833 01-06-2020 21:20:00 21.5 C 9.05 g/m*3 21.5 C 1.6 km/h
834 01-06-2020 21:25:00 21.1 C 8.84 g/m*3 21.1 C 3.2 km/h
835 01-06-2020 21:30:00 20.8 C 8.87 g/m*3 20.8 C 4.8 km/h
836 01-06-2020 21:35:00 20.4 C 8.67 g/m*3 20.4 C 6.4 km/h
837 01-06-2020 21:40:00 20.2 C 8.57 g/m*3 20.2 C 8.1 km/h
838 01-06-2020 21:45:00 19.9 C 8.42 g/m*3 19.9 C 8.1 km/h
839 01-06-2020 21:50:00 19.7 C 8.49 g/m*3 19.7 C 6.4 km/h
840 01-06-2020 21:55:00 19.6 C 8.44 g/m*3 19.6 C 6.4 km/h
841 01-06-2020 22:00:00 19.3 C 8.29 g/m*3 19.3 C 6.4 km/h
842 01-06-2020 22:05:00 19.2 C 8.24 g/m*3 19.2 C 6.4 km/h
843 01-06-2020 22:10:00 19.1 C 8.2 g/m*3 19.1 C 6.4 km/h
844 01-06-2020 22:15:00 18.9 C 8.1 g/m*3 18.9 C 6.4 km/h
845 01-06-2020 22:20:00 18.8 C 8.21 g/m*3 18.8 C 6.4 km/h
846 01-06-2020 22:25:00 18.7 C 8.33 g/m*3 18.7 C 4.8 km/h
847 01-06-2020 22:30:00 18.6 C 8.28 g/m*3 18.6 C 3.2 km/h
848 01-06-2020 22:35:00 18.3 C 8.29 g/m*3 18.3 C 4.8 km/h
849 01-06-2020 22:40:00 18.2 C 8.39 g/m*3 18.2 C 4.8 km/h
850 01-06-2020 22:45:00 17.9 C 8.4 g/m*3 17.9 C 3.2 km/h
Sensor: Nr:Datum:Temp:Abs-Feuchte:Windchill:Wind:
Aussen-T/F 851 01-06-2020 22:50:00 17.7 C 8.45 g/m*3 17.7 C 0 km/h
852 01-06-2020 22:55:00 17.3 C 8.4 g/m*3 17.3 C 0 km/h
853 01-06-2020 23:00:00 17 C 8.39 g/m*3 17 C 1.6 km/h
854 01-06-2020 23:05:00 16.8 C 8.44 g/m*3 16.8 C 3.2 km/h
855 01-06-2020 23:10:00 16.7 C 8.38 g/m*3 16.7 C 3.2 km/h
856 01-06-2020 23:15:00 16.6 C 8.48 g/m*3 16.6 C 1.6 km/h
857 01-06-2020 23:20:00 16.4 C 8.51 g/m*3 16.4 C 1.6 km/h
858 01-06-2020 23:25:00 16.4 C 8.51 g/m*3 16.4 C 1.6 km/h
859 01-06-2020 23:30:00 16.3 C 8.46 g/m*3 16.3 C 1.6 km/h
860 01-06-2020 23:35:00 16.3 C 8.46 g/m*3 16.3 C 1.6 km/h
861 01-06-2020 23:40:00 16.2 C 8.41 g/m*3 16.2 C 1.6 km/h
862 01-06-2020 23:45:00 16.2 C 8.41 g/m*3 16.2 C 4.8 km/h
863 01-06-2020 23:50:00 16.2 C 8.55 g/m*3 16.2 C 0 km/h
864 01-06-2020 23:55:00 16.1 C 8.36 g/m*3 16.1 C 1.6 km/h
865 02-06-2020 00:00:00 16.1 C 8.5 g/m*3 16.1 C 1.6 km/h
866 02-06-2020 00:05:00 16.1 C 8.5 g/m*3 16.1 C 3.2 km/h
867 02-06-2020 00:10:00 16.1 C 8.5 g/m*3 16.1 C 3.2 km/h
868 02-06-2020 00:15:00 16.1 C 8.5 g/m*3 16.1 C 1.6 km/h
869 02-06-2020 00:20:00 16.1 C 8.5 g/m*3 16.1 C 1.6 km/h
870 02-06-2020 00:25:00 16.2 C 8.55 g/m*3 16.2 C 1.6 km/h
871 02-06-2020 00:30:00 16.2 C 8.55 g/m*3 16.2 C 1.6 km/h
872 02-06-2020 00:35:00 16.2 C 8.55 g/m*3 16.2 C 0 km/h
873 02-06-2020 00:40:00 16.1 C 8.64 g/m*3 16.1 C 0 km/h
874 02-06-2020 00:45:00 16.1 C 8.64 g/m*3 16.1 C 1.6 km/h
875 02-06-2020 00:50:00 16 C 8.45 g/m*3 16 C 1.6 km/h
Sensor: Nr:Datum:Temp:Abs-Feuchte:Windchill:Wind:
Aussen-T/F 876 02-06-2020 00:55:00 15.9 C 8.53 g/m*3 15.9 C 1.6 km/h
877 02-06-2020 01:00:00 15.8 C 8.48 g/m*3 15.8 C 3.2 km/h
878 02-06-2020 01:05:00 15.8 C 8.48 g/m*3 15.8 C 0 km/h
879 02-06-2020 01:10:00 15.7 C 8.43 g/m*3 15.7 C 1.6 km/h
880 02-06-2020 01:15:00 15.7 C 8.56 g/m*3 15.7 C 1.6 km/h
881 02-06-2020 01:20:00 15.7 C 8.56 g/m*3 15.7 C 1.6 km/h
882 02-06-2020 01:25:00 15.6 C 8.51 g/m*3 15.6 C 4.8 km/h
883 02-06-2020 01:30:00 15.5 C 8.46 g/m*3 15.5 C 1.6 km/h
884 02-06-2020 01:35:00 15.4 C 8.54 g/m*3 15.4 C 3.2 km/h
885 02-06-2020 01:40:00 15.2 C 8.44 g/m*3 15.2 C 3.2 km/h
886 02-06-2020 01:45:00 15.1 C 8.39 g/m*3 15.1 C 4.8 km/h
887 02-06-2020 01:50:00 14.9 C 8.41 g/m*3 14.9 C 4.8 km/h
888 02-06-2020 01:55:00 14.9 C 8.54 g/m*3 14.9 C 3.2 km/h
889 02-06-2020 02:00:00 14.8 C 8.49 g/m*3 14.8 C 1.6 km/h
890 02-06-2020 02:05:00 14.7 C 8.56 g/m*3 14.7 C 3.2 km/h
891 02-06-2020 02:10:00 14.6 C 8.51 g/m*3 14.6 C 3.2 km/h
892 02-06-2020 02:15:00 14.6 C 8.51 g/m*3 14.6 C 1.6 km/h
893 02-06-2020 02:20:00 14.4 C 8.53 g/m*3 14.4 C 1.6 km/h
894 02-06-2020 02:25:00 14.3 C 8.48 g/m*3 14.3 C 1.6 km/h
895 02-06-2020 02:30:00 14.2 C 8.55 g/m*3 14.2 C 1.6 km/h
896 02-06-2020 02:35:00 14 C 8.56 g/m*3 14 C 1.6 km/h
897 02-06-2020 02:40:00 13.9 C 8.51 g/m*3 13.9 C 0 km/h
898 02-06-2020 02:45:00 13.8 C 8.46 g/m*3 13.8 C 0 km/h
899 02-06-2020 02:50:00 13.7 C 8.53 g/m*3 13.7 C 0 km/h
900 02-06-2020 02:55:00 13.6 C 8.47 g/m*3 13.6 C 0 km/h
Sensor: Nr:Datum:Temp:Abs-Feuchte:Windchill:Wind:
Aussen-T/F 901 02-06-2020 03:00:00 13.5 C 8.54 g/m*3 13.5 C 0 km/h
902 02-06-2020 03:05:00 13.4 C 8.49 g/m*3 13.4 C 0 km/h
903 02-06-2020 03:10:00 13.2 C 8.38 g/m*3 13.2 C 0 km/h
904 02-06-2020 03:15:00 13.1 C 8.44 g/m*3 13.1 C 0 km/h
905 02-06-2020 03:20:00 12.8 C 8.4 g/m*3 12.8 C 0 km/h
906 02-06-2020 03:25:00 12.7 C 8.35 g/m*3 12.7 C 0 km/h
907 02-06-2020 03:30:00 12.6 C 8.52 g/m*3 12.6 C 0 km/h
908 02-06-2020 03:35:00 12.4 C 8.41 g/m*3 12.4 C 0 km/h
909 02-06-2020 03:40:00 12.3 C 8.47 g/m*3 12.3 C 0 km/h
910 02-06-2020 03:45:00 12.1 C 8.36 g/m*3 12.1 C 0 km/h
911 02-06-2020 03:50:00 12 C 8.42 g/m*3 12 C 0 km/h
912 02-06-2020 03:55:00 11.9 C 8.47 g/m*3 11.9 C 0 km/h
913 02-06-2020 04:00:00 11.8 C 8.42 g/m*3 11.8 C 0 km/h
914 02-06-2020 04:05:00 11.7 C 8.37 g/m*3 11.7 C 0 km/h
915 02-06-2020 04:10:00 11.6 C 8.32 g/m*3 11.6 C 0 km/h
916 02-06-2020 04:15:00 11.4 C 8.31 g/m*3 11.4 C 0 km/h
917 02-06-2020 04:20:00 11.3 C 8.26 g/m*3 11.3 C 0 km/h
918 02-06-2020 04:25:00 11.3 C 8.26 g/m*3 11.3 C 0 km/h
919 02-06-2020 04:30:00 11.2 C 8.31 g/m*3 11.2 C 0 km/h
920 02-06-2020 04:35:00 11.2 C 8.31 g/m*3 11.2 C 0 km/h
921 02-06-2020 04:40:00 11.1 C 8.26 g/m*3 11.1 C 0 km/h
922 02-06-2020 04:45:00 11.1 C 8.36 g/m*3 11.1 C 0 km/h
923 02-06-2020 04:50:00 11.1 C 8.46 g/m*3 11.1 C 0 km/h
924 02-06-2020 04:55:00 11 C 8.41 g/m*3 11 C 0 km/h
925 02-06-2020 05:00:00 10.9 C 8.36 g/m*3 10.9 C 0 km/h
Sensor: Nr:Datum:Temp:Abs-Feuchte:Windchill:Wind:
Aussen-T/F 926 02-06-2020 05:05:00 10.9 C 8.36 g/m*3 10.9 C 0 km/h
927 02-06-2020 05:10:00 10.8 C 8.3 g/m*3 10.8 C 0 km/h
928 02-06-2020 05:15:00 10.7 C 8.25 g/m*3 10.7 C 0 km/h
929 02-06-2020 05:20:00 10.7 C 8.35 g/m*3 10.7 C 1.6 km/h
930 02-06-2020 05:25:00 10.6 C 8.3 g/m*3 10.6 C 1.6 km/h
931 02-06-2020 05:30:00 10.6 C 8.3 g/m*3 10.6 C 0 km/h
932 02-06-2020 05:35:00 10.5 C 8.24 g/m*3 10.5 C 0 km/h
933 02-06-2020 05:40:00 10.4 C 8.29 g/m*3 10.4 C 0 km/h
934 02-06-2020 05:45:00 10.4 C 8.29 g/m*3 10.4 C 0 km/h
935 02-06-2020 05:50:00 10.4 C 8.29 g/m*3 10.4 C 0 km/h
936 02-06-2020 05:55:00 10.4 C 8.29 g/m*3 10.4 C 0 km/h
937 02-06-2020 06:00:00 10.4 C 8.38 g/m*3 10.4 C 0 km/h
938 02-06-2020 06:05:00 10.5 C 8.44 g/m*3 10.5 C 0 km/h
939 02-06-2020 06:10:00 10.5 C 8.44 g/m*3 10.5 C 1.6 km/h
940 02-06-2020 06:15:00 10.5 C 8.44 g/m*3 10.5 C 0 km/h
941 02-06-2020 06:20:00 10.6 C 8.59 g/m*3 10.6 C 0 km/h
942 02-06-2020 06:25:00 10.6 C 8.59 g/m*3 10.6 C 0 km/h
943 02-06-2020 06:30:00 10.6 C 8.59 g/m*3 10.6 C 0 km/h
944 02-06-2020 06:35:00 10.6 C 8.59 g/m*3 10.6 C 0 km/h
945 02-06-2020 06:40:00 10.7 C 8.64 g/m*3 10.7 C 0 km/h
946 02-06-2020 06:45:00 10.7 C 8.64 g/m*3 10.7 C 0 km/h
947 02-06-2020 06:50:00 10.7 C 8.64 g/m*3 10.7 C 0 km/h
948 02-06-2020 06:55:00 10.8 C 8.7 g/m*3 10.8 C 0 km/h
949 02-06-2020 07:00:00 10.8 C 8.7 g/m*3 10.8 C 0 km/h
950 02-06-2020 07:05:00 10.8 C 8.7 g/m*3 10.8 C 0 km/h
Sensor: Nr:Datum:Temp:Abs-Feuchte:Windchill:Wind:
Aussen-T/F 951 02-06-2020 07:10:00 10.8 C 8.7 g/m*3 10.8 C 0 km/h
952 02-06-2020 07:15:00 10.9 C 8.75 g/m*3 10.9 C 1.6 km/h
953 02-06-2020 07:20:00 10.9 C 8.85 g/m*3 10.9 C 0 km/h
954 02-06-2020 07:25:00 11 C 8.91 g/m*3 11 C 0 km/h
955 02-06-2020 07:30:00 11.1 C 8.96 g/m*3 11.1 C 0 km/h
956 02-06-2020 07:35:00 11.2 C 9.02 g/m*3 11.2 C 0 km/h
957 02-06-2020 07:40:00 11.2 C 9.02 g/m*3 11.2 C 0 km/h
958 02-06-2020 07:45:00 11.3 C 9.08 g/m*3 11.3 C 0 km/h
959 02-06-2020 07:50:00 11.4 C 9.14 g/m*3 11.4 C 1.6 km/h
960 02-06-2020 07:55:00 11.5 C 9.19 g/m*3 11.5 C 0 km/h
961 02-06-2020 08:00:00 11.6 C 9.15 g/m*3 11.6 C 0 km/h
962 02-06-2020 08:05:00 11.7 C 9.2 g/m*3 11.7 C 0 km/h
963 02-06-2020 08:10:00 11.9 C 9.43 g/m*3 11.9 C 0 km/h
964 02-06-2020 08:15:00 12 C 9.38 g/m*3 12 C 0 km/h
965 02-06-2020 08:20:00 12.2 C 9.5 g/m*3 12.2 C 0 km/h
966 02-06-2020 08:25:00 12.3 C 9.56 g/m*3 12.3 C 0 km/h
967 02-06-2020 08:30:00 12.4 C 9.62 g/m*3 12.4 C 0 km/h
968 02-06-2020 08:35:00 12.6 C 9.62 g/m*3 12.6 C 0 km/h
969 02-06-2020 08:40:00 12.8 C 9.74 g/m*3 12.8 C 0 km/h
970 02-06-2020 08:45:00 12.9 C 9.81 g/m*3 12.9 C 0 km/h
971 02-06-2020 08:50:00 13.1 C 9.93 g/m*3 13.1 C 0 km/h
972 02-06-2020 08:55:00 13.2 C 9.99 g/m*3 13.2 C 0 km/h
973 02-06-2020 09:00:00 13.4 C 10 g/m*3 13.4 C 0 km/h
974 02-06-2020 09:05:00 13.6 C 10.12 g/m*3 13.6 C 0 km/h
975 02-06-2020 09:10:00 13.8 C 10.13 g/m*3 13.8 C 0 km/h
Sensor: Nr:Datum:Temp:Abs-Feuchte:Windchill:Wind:
Aussen-T/F 976 02-06-2020 09:15:00 14.1 C 10.32 g/m*3 14.1 C 0 km/h
977 02-06-2020 09:20:00 14.4 C 10.38 g/m*3 14.4 C 0 km/h
978 02-06-2020 09:25:00 14.7 C 10.45 g/m*3 14.7 C 0 km/h
979 02-06-2020 09:30:00 14.9 C 10.45 g/m*3 14.9 C 0 km/h
980 02-06-2020 09:35:00 15.1 C 10.45 g/m*3 15.1 C 0 km/h
981 02-06-2020 09:40:00 15.3 C 10.45 g/m*3 15.3 C 0 km/h
982 02-06-2020 09:45:00 15.7 C 10.44 g/m*3 15.7 C 0 km/h
983 02-06-2020 09:50:00 15.9 C 10.56 g/m*3 15.9 C 0 km/h
984 02-06-2020 09:55:00 16.2 C 10.62 g/m*3 16.2 C 0 km/h
985 02-06-2020 10:00:00 16.5 C 10.67 g/m*3 16.5 C 0 km/h
986 02-06-2020 10:05:00 16.8 C 10.58 g/m*3 16.8 C 0 km/h
987 02-06-2020 10:10:00 17.2 C 10.54 g/m*3 17.2 C 1.6 km/h
988 02-06-2020 10:15:00 17.8 C 10.47 g/m*3 17.8 C 1.6 km/h
989 02-06-2020 10:20:00 18.3 C 10.94 g/m*3 18.3 C 1.6 km/h
990 02-06-2020 10:25:00 18.9 C 11.18 g/m*3 18.9 C 1.6 km/h
991 02-06-2020 10:30:00 19.4 C 10.34 g/m*3 19.4 C 1.6 km/h
992 02-06-2020 10:35:00 20.1 C 10.78 g/m*3 20.1 C 4.8 km/h
993 02-06-2020 10:40:00 20.8 C 9.96 g/m*3 20.8 C 6.4 km/h
994 02-06-2020 10:45:00 21.3 C 9.69 g/m*3 21.3 C 9.7 km/h
995 02-06-2020 10:50:00 21.7 C 10.3 g/m*3 21.7 C 9.7 km/h
996 02-06-2020 10:55:00 21.9 C 9.65 g/m*3 21.9 C 9.7 km/h
997 02-06-2020 11:00:00 22.2 C 10.01 g/m*3 22.2 C 9.7 km/h
998 02-06-2020 11:05:00 22.3 C 9.68 g/m*3 22.3 C 4.8 km/h
999 02-06-2020 11:10:00 22.4 C 9.53 g/m*3 22.4 C 8.1 km/h
1000 02-06-2020 11:15:00 22.7 C 9.5 g/m*3 22.7 C 8.1 km/h
Sensor: Nr:Datum:Temp:Abs-Feuchte:Windchill:Wind:
Aussen-T/F 1001 02-06-2020 11:20:00 22.9 C 9.4 g/m*3 22.9 C 8.1 km/h
1002 02-06-2020 11:25:00 22.9 C 9.4 g/m*3 22.9 C 6.4 km/h
1003 02-06-2020 11:30:00 23.1 C 9.51 g/m*3 23.1 C 6.4 km/h
1004 02-06-2020 11:35:00 23.2 C 9.56 g/m*3 23.2 C 9.7 km/h
1005 02-06-2020 11:40:00 23.3 C 9.41 g/m*3 23.3 C 9.7 km/h
1006 02-06-2020 11:45:00 23.6 C 9.36 g/m*3 23.6 C 8.1 km/h
1007 02-06-2020 11:50:00 23.7 C 9.2 g/m*3 23.7 C 11.3 km/h
1008 02-06-2020 11:55:00 23.7 C 9.41 g/m*3 23.7 C 12.9 km/h
1009 02-06-2020 12:00:00 23.8 C 9.46 g/m*3 23.8 C 8.1 km/h
1010 02-06-2020 12:05:00 23.9 C 9.3 g/m*3 23.9 C 16.1 km/h
1011 02-06-2020 12:10:00 23.8 C 9.25 g/m*3 23.8 C 9.7 km/h
1012 02-06-2020 12:15:00 23.8 C 9.25 g/m*3 23.8 C 14.5 km/h
1013 02-06-2020 12:20:00 23.8 C 9.25 g/m*3 23.8 C 11.3 km/h
1014 02-06-2020 12:25:00 23.8 C 9.46 g/m*3 23.8 C 8.1 km/h
1015 02-06-2020 12:30:00 23.9 C 9.3 g/m*3 23.9 C 9.7 km/h
1016 02-06-2020 12:35:00 23.9 C 9.3 g/m*3 23.9 C 4.8 km/h
1017 02-06-2020 12:40:00 24 C 9.36 g/m*3 24 C 14.5 km/h
1018 02-06-2020 12:45:00 24.2 C 9.46 g/m*3 24.2 C 17.7 km/h
1019 02-06-2020 12:50:00 24.3 C 9.29 g/m*3 24.3 C 9.7 km/h
1020 02-06-2020 12:55:00 24.3 C 9.52 g/m*3 24.3 C 8.1 km/h
1021 02-06-2020 13:00:00 24.4 C 9.35 g/m*3 24.4 C 8.1 km/h
1022 02-06-2020 13:05:00 24.6 C 9.45 g/m*3 24.6 C 8.1 km/h
1023 02-06-2020 13:10:00 24.7 C 9.28 g/m*3 24.7 C 9.7 km/h
1024 02-06-2020 13:15:00 24.8 C 9.56 g/m*3 24.8 C 9.7 km/h
1025 02-06-2020 13:20:00 24.9 C 9.39 g/m*3 24.9 C 6.4 km/h
Sensor: Nr:Datum:Temp:Abs-Feuchte:Windchill:Wind:
Aussen-T/F 1026 02-06-2020 13:25:00 24.9 C 9.61 g/m*3 24.9 C 6.4 km/h
1027 02-06-2020 13:30:00 25.1 C 9.72 g/m*3 25.1 C 14.5 km/h
1028 02-06-2020 13:35:00 25.3 C 9.6 g/m*3 25.3 C 9.7 km/h
1029 02-06-2020 13:40:00 25.5 C 9.47 g/m*3 25.5 C 11.3 km/h
1030 02-06-2020 13:45:00 25.6 C 9.76 g/m*3 25.6 C 14.5 km/h
1031 02-06-2020 13:50:00 25.7 C 9.58 g/m*3 25.7 C 6.4 km/h
1032 02-06-2020 13:55:00 25.8 C 9.63 g/m*3 25.8 C 6.4 km/h
1033 02-06-2020 14:00:00 25.8 C 9.39 g/m*3 25.8 C 14.5 km/h
1034 02-06-2020 14:05:00 25.9 C 9.93 g/m*3 25.9 C 6.4 km/h
1035 02-06-2020 14:10:00 25.9 C 9.2 g/m*3 25.9 C 8.1 km/h
1036 02-06-2020 14:15:00 26.1 C 9.3 g/m*3 26.1 C 11.3 km/h
1037 02-06-2020 14:20:00 26.2 C 9.35 g/m*3 26.2 C 11.3 km/h
1038 02-06-2020 14:25:00 26.2 C 9.35 g/m*3 26.2 C 12.9 km/h
1039 02-06-2020 14:30:00 26.4 C 9.21 g/m*3 26.4 C 17.7 km/h
1040 02-06-2020 14:35:00 26.4 C 9.46 g/m*3 26.4 C 19.3 km/h
1041 02-06-2020 14:40:00 26.5 C 9.01 g/m*3 26.5 C 9.7 km/h
1042 02-06-2020 14:45:00 26.6 C 9.31 g/m*3 26.6 C 14.5 km/h
1043 02-06-2020 14:50:00 26.7 C 8.86 g/m*3 26.7 C 9.7 km/h
1044 02-06-2020 14:55:00 26.8 C 8.91 g/m*3 26.8 C 12.9 km/h
1045 02-06-2020 15:00:00 26.9 C 9.47 g/m*3 26.9 C 4.8 km/h
1046 02-06-2020 15:05:00 27.4 C 9.21 g/m*3 27.4 C 9.7 km/h
1047 02-06-2020 15:10:00 27.8 C 9.15 g/m*3 27.8 C 4.8 km/h
1048 02-06-2020 15:15:00 27.9 C 8.92 g/m*3 27.9 C 6.4 km/h
1049 02-06-2020 15:20:00 27.8 C 8.88 g/m*3 27.8 C 6.4 km/h
1050 02-06-2020 15:25:00 27.9 C 8.92 g/m*3 27.9 C 9.7 km/h
Sensor: Nr:Datum:Temp:Abs-Feuchte:Windchill:Wind:
Aussen-T/F 1051 02-06-2020 15:30:00 28 C 8.97 g/m*3 28 C 11.3 km/h
1052 02-06-2020 15:35:00 28.1 C 9.02 g/m*3 28.1 C 12.9 km/h
1053 02-06-2020 15:40:00 28.3 C 9.12 g/m*3 28.3 C 12.9 km/h
1054 02-06-2020 15:45:00 28.3 C 9.12 g/m*3 28.3 C 17.7 km/h
1055 02-06-2020 15:50:00 28.6 C 8.99 g/m*3 28.6 C 8.1 km/h
1056 02-06-2020 15:55:00 28.6 C 8.99 g/m*3 28.6 C 12.9 km/h
1057 02-06-2020 16:00:00 28.7 C 9.04 g/m*3 28.7 C 8.1 km/h
1058 02-06-2020 16:05:00 29 C 8.9 g/m*3 29 C 9.7 km/h
1059 02-06-2020 16:10:00 29.2 C 9 g/m*3 29.2 C 4.8 km/h
1060 02-06-2020 16:15:00 29.2 C 8.71 g/m*3 29.2 C 11.3 km/h
1061 02-06-2020 16:20:00 29.1 C 9.24 g/m*3 29.1 C 9.7 km/h
1062 02-06-2020 16:25:00 29.1 C 8.66 g/m*3 29.1 C 16.1 km/h
1063 02-06-2020 16:30:00 29.2 C 8.71 g/m*3 29.2 C 9.7 km/h
1064 02-06-2020 16:35:00 29.2 C 8.71 g/m*3 29.2 C 11.3 km/h
1065 02-06-2020 16:40:00 29.3 C 9.05 g/m*3 29.3 C 8.1 km/h
1066 02-06-2020 16:45:00 29.5 C 8.26 g/m*3 29.5 C 9.7 km/h
1067 02-06-2020 16:50:00 29.8 C 9.3 g/m*3 29.8 C 4.8 km/h
1068 02-06-2020 16:55:00 29.9 C 8.45 g/m*3 29.9 C 8.1 km/h
1069 02-06-2020 17:00:00 29.9 C 8.45 g/m*3 29.9 C 9.7 km/h
1070 02-06-2020 17:05:00 30.2 C 8.58 g/m*3 30.2 C 9.7 km/h
1071 02-06-2020 17:10:00 30.3 C 8.01 g/m*3 30.3 C 6.4 km/h
1072 02-06-2020 17:15:00 30.4 C 8.68 g/m*3 30.4 C 6.4 km/h
1073 02-06-2020 17:20:00 30.7 C 9.45 g/m*3 30.7 C 3.2 km/h
1074 02-06-2020 17:25:00 31 C 8.32 g/m*3 31 C 6.4 km/h
1075 02-06-2020 17:30:00 31 C 8.64 g/m*3 31 C 4.8 km/h
Sensor: Nr:Datum:Temp:Abs-Feuchte:Windchill:Wind:
Aussen-T/F 1076 02-06-2020 17:35:00 30.8 C 8.23 g/m*3 30.8 C 4.8 km/h
1077 02-06-2020 17:40:00 30.3 C 8.32 g/m*3 30.3 C 6.4 km/h
1078 02-06-2020 17:45:00 29.9 C 8.45 g/m*3 29.9 C 6.4 km/h
1079 02-06-2020 17:50:00 29.8 C 9 g/m*3 29.8 C 6.4 km/h
1080 02-06-2020 17:55:00 29.7 C 8.65 g/m*3 29.7 C 9.7 km/h
1081 02-06-2020 18:00:00 29.4 C 8.51 g/m*3 29.4 C 11.3 km/h
1082 02-06-2020 18:05:00 29.1 C 8.66 g/m*3 29.1 C 6.4 km/h
1083 02-06-2020 18:10:00 28.8 C 8.52 g/m*3 28.8 C 11.3 km/h
1084 02-06-2020 18:15:00 28.8 C 8.81 g/m*3 28.8 C 4.8 km/h
1085 02-06-2020 18:20:00 28.9 C 8.57 g/m*3 28.9 C 8.1 km/h
1086 02-06-2020 18:25:00 29 C 8.62 g/m*3 29 C 8.1 km/h
1087 02-06-2020 18:30:00 28.9 C 8.28 g/m*3 28.9 C 8.1 km/h
1088 02-06-2020 18:35:00 28.8 C 8.52 g/m*3 28.8 C 6.4 km/h
1089 02-06-2020 18:40:00 28.8 C 8.52 g/m*3 28.8 C 4.8 km/h
1090 02-06-2020 18:45:00 28.6 C 8.43 g/m*3 28.6 C 9.7 km/h
1091 02-06-2020 18:50:00 28.4 C 8.34 g/m*3 28.4 C 4.8 km/h
1092 02-06-2020 18:55:00 28.7 C 8.76 g/m*3 28.7 C 1.6 km/h
1093 02-06-2020 19:00:00 28.8 C 8.52 g/m*3 28.8 C 4.8 km/h
1094 02-06-2020 19:05:00 28.7 C 8.48 g/m*3 28.7 C 8.1 km/h
1095 02-06-2020 19:10:00 28.7 C 8.48 g/m*3 28.7 C 8.1 km/h
1096 02-06-2020 19:15:00 28.6 C 8.43 g/m*3 28.6 C 3.2 km/h
1097 02-06-2020 19:20:00 28.7 C 8.48 g/m*3 28.7 C 3.2 km/h
1098 02-06-2020 19:25:00 28.8 C 9.09 g/m*3 28.8 C 3.2 km/h
1099 02-06-2020 19:30:00 28.8 C 10.51 g/m*3 28.8 C 1.6 km/h
1100 02-06-2020 19:35:00 28.7 C 10.74 g/m*3 28.7 C 4.8 km/h
Sensor: Nr:Datum:Temp:Abs-Feuchte:Windchill:Wind:
Aussen-T/F 1101 02-06-2020 19:40:00 28.5 C 10.34 g/m*3 28.5 C 1.6 km/h
1102 02-06-2020 19:45:00 28.2 C 10.72 g/m*3 28.2 C 1.6 km/h
1103 02-06-2020 19:50:00 27.6 C 10.64 g/m*3 27.6 C 3.2 km/h
1104 02-06-2020 19:55:00 26.9 C 10.49 g/m*3 26.9 C 4.8 km/h
1105 02-06-2020 20:00:00 26.3 C 10.4 g/m*3 26.3 C 4.8 km/h
1106 02-06-2020 20:05:00 25.8 C 10.35 g/m*3 25.8 C 4.8 km/h
1107 02-06-2020 20:10:00 25.4 C 10.12 g/m*3 25.4 C 6.4 km/h
1108 02-06-2020 20:15:00 25.1 C 10.19 g/m*3 25.1 C 6.4 km/h
1109 02-06-2020 20:20:00 24.8 C 10.24 g/m*3 24.8 C 6.4 km/h
1110 02-06-2020 20:25:00 24.4 C 10.24 g/m*3 24.4 C 4.8 km/h
1111 02-06-2020 20:30:00 24.2 C 10.12 g/m*3 24.2 C 4.8 km/h
1112 02-06-2020 20:35:00 23.9 C 9.95 g/m*3 23.9 C 4.8 km/h
1113 02-06-2020 20:40:00 23.7 C 9.84 g/m*3 23.7 C 4.8 km/h
1114 02-06-2020 20:45:00 23.3 C 9.83 g/m*3 23.3 C 6.4 km/h
1115 02-06-2020 20:50:00 23.1 C 9.72 g/m*3 23.1 C 6.4 km/h
1116 02-06-2020 20:55:00 22.8 C 9.75 g/m*3 22.8 C 6.4 km/h
1117 02-06-2020 21:00:00 22.6 C 9.64 g/m*3 22.6 C 6.4 km/h
1118 02-06-2020 21:05:00 22.3 C 9.48 g/m*3 22.3 C 8.1 km/h
1119 02-06-2020 21:10:00 22.2 C 9.42 g/m*3 22.2 C 6.4 km/h
1120 02-06-2020 21:15:00 22 C 9.32 g/m*3 22 C 6.4 km/h
1121 02-06-2020 21:20:00 21.8 C 9.21 g/m*3 21.8 C 6.4 km/h
1122 02-06-2020 21:25:00 21.6 C 9.1 g/m*3 21.6 C 6.4 km/h
1123 02-06-2020 21:30:00 21.4 C 9.19 g/m*3 21.4 C 6.4 km/h
1124 02-06-2020 21:35:00 21.3 C 9.13 g/m*3 21.3 C 6.4 km/h
1125 02-06-2020 21:40:00 21.2 C 9.08 g/m*3 21.2 C 6.4 km/h
Sensor: Nr:Datum:Temp:Abs-Feuchte:Windchill:Wind:
Aussen-T/F 1126 02-06-2020 21:45:00 20.9 C 9.11 g/m*3 20.9 C 1.6 km/h
1127 02-06-2020 21:50:00 20.7 C 9.36 g/m*3 20.7 C 1.6 km/h
1128 02-06-2020 21:55:00 20.4 C 9.2 g/m*3 20.4 C 6.4 km/h
1129 02-06-2020 22:00:00 20.2 C 9.09 g/m*3 20.2 C 6.4 km/h
1130 02-06-2020 22:05:00 20.1 C 9.21 g/m*3 20.1 C 1.6 km/h
1131 02-06-2020 22:10:00 19.9 C 9.28 g/m*3 19.9 C 0 km/h
1132 02-06-2020 22:15:00 19.8 C 9.22 g/m*3 19.8 C 3.2 km/h
1133 02-06-2020 22:20:00 19.7 C 9.51 g/m*3 19.7 C 1.6 km/h
1134 02-06-2020 22:25:00 19.4 C 9.51 g/m*3 19.4 C 0 km/h
1135 02-06-2020 22:30:00 19.2 C 9.56 g/m*3 19.2 C 0 km/h
1136 02-06-2020 22:35:00 19 C 9.61 g/m*3 19 C 1.6 km/h
1137 02-06-2020 22:40:00 18.8 C 9.66 g/m*3 18.8 C 0 km/h
1138 02-06-2020 22:45:00 18.6 C 9.55 g/m*3 18.6 C 0 km/h
1139 02-06-2020 22:50:00 18.4 C 9.44 g/m*3 18.4 C 0 km/h
1140 02-06-2020 22:55:00 18.3 C 9.54 g/m*3 18.3 C 0 km/h
1141 02-06-2020 23:00:00 18.1 C 9.58 g/m*3 18.1 C 0 km/h
1142 02-06-2020 23:05:00 17.9 C 9.47 g/m*3 17.9 C 0 km/h
1143 02-06-2020 23:10:00 17.8 C 9.41 g/m*3 17.8 C 0 km/h
1144 02-06-2020 23:15:00 17.7 C 9.51 g/m*3 17.7 C 0 km/h
1145 02-06-2020 23:20:00 17.6 C 9.45 g/m*3 17.6 C 0 km/h
1146 02-06-2020 23:25:00 17.6 C 9.6 g/m*3 17.6 C 0 km/h
1147 02-06-2020 23:30:00 17.5 C 9.54 g/m*3 17.5 C 0 km/h
1148 02-06-2020 23:35:00 17.5 C 9.54 g/m*3 17.5 C 0 km/h
1149 02-06-2020 23:40:00 17.4 C 9.63 g/m*3 17.4 C 0 km/h
1150 02-06-2020 23:45:00 17.4 C 9.63 g/m*3 17.4 C 0 km/h
Sensor: Nr:Datum:Temp:Abs-Feuchte:Windchill:Wind:
Aussen-T/F 1151 02-06-2020 23:50:00 17.4 C 9.63 g/m*3 17.4 C 0 km/h
1152 02-06-2020 23:55:00 17.3 C 9.58 g/m*3 17.3 C 0 km/h
1153 03-06-2020 00:00:00 17.2 C 9.67 g/m*3 17.2 C 0 km/h
1154 03-06-2020 00:05:00 17.1 C 9.61 g/m*3 17.1 C 0 km/h
1155 03-06-2020 00:10:00 16.9 C 9.35 g/m*3 16.9 C 0 km/h
1156 03-06-2020 00:15:00 16.8 C 9.44 g/m*3 16.8 C 0 km/h
1157 03-06-2020 00:20:00 16.6 C 9.32 g/m*3 16.6 C 0 km/h
1158 03-06-2020 00:25:00 16.4 C 9.21 g/m*3 16.4 C 0 km/h
1159 03-06-2020 00:30:00 16.3 C 9.3 g/m*3 16.3 C 0 km/h
1160 03-06-2020 00:35:00 16.2 C 9.38 g/m*3 16.2 C 0 km/h
1161 03-06-2020 00:40:00 16.1 C 9.32 g/m*3 16.1 C 0 km/h
1162 03-06-2020 00:45:00 15.9 C 9.07 g/m*3 15.9 C 0 km/h
1163 03-06-2020 00:50:00 15.8 C 9.29 g/m*3 15.8 C 0 km/h
1164 03-06-2020 00:55:00 15.7 C 9.23 g/m*3 15.7 C 0 km/h
1165 03-06-2020 01:00:00 15.6 C 9.31 g/m*3 15.6 C 0 km/h
1166 03-06-2020 01:05:00 15.4 C 9.2 g/m*3 15.4 C 1.6 km/h
1167 03-06-2020 01:10:00 15.3 C 9.14 g/m*3 15.3 C 1.6 km/h
1168 03-06-2020 01:15:00 15.3 C 9.14 g/m*3 15.3 C 11.3 km/h
1169 03-06-2020 01:20:00 15.5 C 9.52 g/m*3 15.5 C 3.2 km/h
1170 03-06-2020 01:25:00 15.6 C 9.58 g/m*3 15.6 C 0 km/h
1171 03-06-2020 01:30:00 15.7 C 9.63 g/m*3 15.7 C 0 km/h
1172 03-06-2020 01:35:00 15.7 C 9.63 g/m*3 15.7 C 0 km/h
1173 03-06-2020 01:40:00 15.7 C 9.77 g/m*3 15.7 C 3.2 km/h
1174 03-06-2020 01:45:00 15.8 C 9.83 g/m*3 15.8 C 4.8 km/h
1175 03-06-2020 01:50:00 15.9 C 9.89 g/m*3 15.9 C 3.2 km/h
Sensor: Nr:Datum:Temp:Abs-Feuchte:Windchill:Wind:
Aussen-T/F 1176 03-06-2020 01:55:00 15.9 C 9.89 g/m*3 15.9 C 3.2 km/h
1177 03-06-2020 02:00:00 15.9 C 9.89 g/m*3 15.9 C 0 km/h
1178 03-06-2020 02:05:00 15.9 C 9.89 g/m*3 15.9 C 0 km/h
1179 03-06-2020 02:10:00 15.9 C 9.89 g/m*3 15.9 C 4.8 km/h
1180 03-06-2020 02:15:00 15.8 C 9.83 g/m*3 15.8 C 4.8 km/h
1181 03-06-2020 02:20:00 15.8 C 9.83 g/m*3 15.8 C 1.6 km/h
1182 03-06-2020 02:25:00 15.8 C 9.83 g/m*3 15.8 C 0 km/h
1183 03-06-2020 02:30:00 15.7 C 9.9 g/m*3 15.7 C 0 km/h
1184 03-06-2020 02:35:00 15.6 C 9.84 g/m*3 15.6 C 0 km/h
1185 03-06-2020 02:40:00 15.4 C 9.72 g/m*3 15.4 C 0 km/h
1186 03-06-2020 02:45:00 15.2 C 9.73 g/m*3 15.2 C 0 km/h
1187 03-06-2020 02:50:00 15.1 C 9.8 g/m*3 15.1 C 0 km/h
1188 03-06-2020 02:55:00 14.9 C 9.69 g/m*3 14.9 C 0 km/h
1189 03-06-2020 03:00:00 14.8 C 9.75 g/m*3 14.8 C 0 km/h
1190 03-06-2020 03:05:00 14.7 C 9.82 g/m*3 14.7 C 3.2 km/h
1191 03-06-2020 03:10:00 14.7 C 9.82 g/m*3 14.7 C 0 km/h
1192 03-06-2020 03:15:00 14.7 C 9.82 g/m*3 14.7 C 0 km/h
1193 03-06-2020 03:20:00 14.7 C 9.82 g/m*3 14.7 C 0 km/h
1194 03-06-2020 03:25:00 14.7 C 9.82 g/m*3 14.7 C 0 km/h
1195 03-06-2020 03:30:00 14.6 C 9.76 g/m*3 14.6 C 0 km/h
1196 03-06-2020 03:35:00 14.6 C 9.89 g/m*3 14.6 C 0 km/h
1197 03-06-2020 03:40:00 14.6 C 9.89 g/m*3 14.6 C 0 km/h
1198 03-06-2020 03:45:00 14.5 C 9.83 g/m*3 14.5 C 0 km/h
1199 03-06-2020 03:50:00 14.4 C 9.77 g/m*3 14.4 C 0 km/h
1200 03-06-2020 03:55:00 14.3 C 9.71 g/m*3 14.3 C 0 km/h
Sensor: Nr:Datum:Temp:Abs-Feuchte:Windchill:Wind:
Aussen-T/F 1201 03-06-2020 04:00:00 14.2 C 9.77 g/m*3 14.2 C 0 km/h
1202 03-06-2020 04:05:00 14.2 C 9.77 g/m*3 14.2 C 0 km/h
1203 03-06-2020 04:10:00 14.1 C 9.71 g/m*3 14.1 C 0 km/h
1204 03-06-2020 04:15:00 14.1 C 9.83 g/m*3 14.1 C 0 km/h
1205 03-06-2020 04:20:00 14 C 9.77 g/m*3 14 C 0 km/h
1206 03-06-2020 04:25:00 14 C 9.77 g/m*3 14 C 0 km/h
1207 03-06-2020 04:30:00 14 C 9.77 g/m*3 14 C 0 km/h
1208 03-06-2020 04:35:00 14 C 9.77 g/m*3 14 C 0 km/h
1209 03-06-2020 04:40:00 14 C 9.77 g/m*3 14 C 0 km/h
1210 03-06-2020 04:45:00 14.1 C 9.95 g/m*3 14.1 C 0 km/h
1211 03-06-2020 04:50:00 14.1 C 9.95 g/m*3 14.1 C 0 km/h
1212 03-06-2020 04:55:00 14.1 C 9.95 g/m*3 14.1 C 0 km/h
1213 03-06-2020 05:00:00 14.2 C 10.01 g/m*3 14.2 C 0 km/h
1214 03-06-2020 05:05:00 14.2 C 10.01 g/m*3 14.2 C 0 km/h
1215 03-06-2020 05:10:00 14.2 C 10.01 g/m*3 14.2 C 0 km/h
1216 03-06-2020 05:15:00 14.1 C 9.95 g/m*3 14.1 C 0 km/h
1217 03-06-2020 05:20:00 14.1 C 9.83 g/m*3 14.1 C 0 km/h
1218 03-06-2020 05:25:00 14.1 C 9.83 g/m*3 14.1 C 0 km/h
1219 03-06-2020 05:30:00 14 C 9.77 g/m*3 14 C 1.6 km/h
1220 03-06-2020 05:35:00 13.9 C 9.83 g/m*3 13.9 C 0 km/h
1221 03-06-2020 05:40:00 13.9 C 9.83 g/m*3 13.9 C 0 km/h
1222 03-06-2020 05:45:00 13.8 C 9.65 g/m*3 13.8 C 0 km/h
1223 03-06-2020 05:50:00 13.8 C 9.77 g/m*3 13.8 C 0 km/h
1224 03-06-2020 05:55:00 13.7 C 9.71 g/m*3 13.7 C 0 km/h
1225 03-06-2020 06:00:00 13.7 C 9.71 g/m*3 13.7 C 0 km/h
Sensor: Nr:Datum:Temp:Abs-Feuchte:Windchill:Wind:
Aussen-T/F 1226 03-06-2020 06:05:00 13.7 C 9.83 g/m*3 13.7 C 0 km/h
1227 03-06-2020 06:10:00 13.6 C 9.77 g/m*3 13.6 C 0 km/h
1228 03-06-2020 06:15:00 13.6 C 9.77 g/m*3 13.6 C 0 km/h
1229 03-06-2020 06:20:00 13.6 C 9.89 g/m*3 13.6 C 0 km/h
1230 03-06-2020 06:25:00 13.6 C 9.89 g/m*3 13.6 C 0 km/h
1231 03-06-2020 06:30:00 13.6 C 9.89 g/m*3 13.6 C 0 km/h
1232 03-06-2020 06:35:00 13.6 C 9.89 g/m*3 13.6 C 0 km/h
1233 03-06-2020 06:40:00 13.7 C 9.95 g/m*3 13.7 C 0 km/h
1234 03-06-2020 06:45:00 13.7 C 9.95 g/m*3 13.7 C 0 km/h
1235 03-06-2020 06:50:00 13.7 C 10.07 g/m*3 13.7 C 0 km/h
1236 03-06-2020 06:55:00 13.7 C 10.07 g/m*3 13.7 C 0 km/h
1237 03-06-2020 07:00:00 13.8 C 10.25 g/m*3 13.8 C 0 km/h
1238 03-06-2020 07:05:00 13.8 C 10.13 g/m*3 13.8 C 0 km/h
1239 03-06-2020 07:10:00 13.9 C 10.31 g/m*3 13.9 C 0 km/h
1240 03-06-2020 07:15:00 14 C 10.37 g/m*3 14 C 0 km/h
1241 03-06-2020 07:20:00 14.1 C 10.44 g/m*3 14.1 C 0 km/h
1242 03-06-2020 07:25:00 14.1 C 10.44 g/m*3 14.1 C 0 km/h
1243 03-06-2020 07:30:00 14.2 C 10.5 g/m*3 14.2 C 0 km/h
1244 03-06-2020 07:35:00 14.2 C 10.5 g/m*3 14.2 C 0 km/h
1245 03-06-2020 07:40:00 14.3 C 10.57 g/m*3 14.3 C 0 km/h
1246 03-06-2020 07:45:00 14.5 C 10.7 g/m*3 14.5 C 0 km/h
1247 03-06-2020 07:50:00 14.7 C 10.95 g/m*3 14.7 C 0 km/h
1248 03-06-2020 07:55:00 14.9 C 11.09 g/m*3 14.9 C 0 km/h
1249 03-06-2020 08:00:00 15.1 C 11.09 g/m*3 15.1 C 0 km/h
1250 03-06-2020 08:05:00 15.2 C 11.03 g/m*3 15.2 C 0 km/h
Sensor: Nr:Datum:Temp:Abs-Feuchte:Windchill:Wind:
Aussen-T/F 1251 03-06-2020 08:10:00 15.3 C 11.1 g/m*3 15.3 C 0 km/h
1252 03-06-2020 08:15:00 15.4 C 11.17 g/m*3 15.4 C 0 km/h
1253 03-06-2020 08:20:00 15.5 C 11.24 g/m*3 15.5 C 0 km/h
1254 03-06-2020 08:25:00 15.6 C 11.3 g/m*3 15.6 C 0 km/h
1255 03-06-2020 08:30:00 15.7 C 11.11 g/m*3 15.7 C 1.6 km/h
1256 03-06-2020 08:35:00 15.9 C 11.38 g/m*3 15.9 C 0 km/h
1257 03-06-2020 08:40:00 16.1 C 11.38 g/m*3 16.1 C 0 km/h
1258 03-06-2020 08:45:00 16.3 C 11.24 g/m*3 16.3 C 0 km/h
1259 03-06-2020 08:50:00 16.6 C 11.44 g/m*3 16.6 C 1.6 km/h
1260 03-06-2020 08:55:00 16.8 C 11.58 g/m*3 16.8 C 0 km/h
1261 03-06-2020 09:00:00 16.9 C 11.08 g/m*3 16.9 C 0 km/h
1262 03-06-2020 09:05:00 17.2 C 10.69 g/m*3 17.2 C 3.2 km/h
1263 03-06-2020 09:10:00 17.4 C 10.82 g/m*3 17.4 C 1.6 km/h
1264 03-06-2020 09:15:00 17.8 C 11.54 g/m*3 17.8 C 1.6 km/h
1265 03-06-2020 09:20:00 18 C 11.67 g/m*3 18 C 0 km/h
1266 03-06-2020 09:25:00 18.2 C 11.35 g/m*3 18.2 C 0 km/h
1267 03-06-2020 09:30:00 18.3 C 11.1 g/m*3 18.3 C 0 km/h
1268 03-06-2020 09:35:00 18.5 C 10.6 g/m*3 18.5 C 1.6 km/h
1269 03-06-2020 09:40:00 18.7 C 11.05 g/m*3 18.7 C 0 km/h
1270 03-06-2020 09:45:00 18.9 C 11.18 g/m*3 18.9 C 1.6 km/h
1271 03-06-2020 09:50:00 19.1 C 11.31 g/m*3 19.1 C 1.6 km/h
1272 03-06-2020 09:55:00 19.2 C 11.38 g/m*3 19.2 C 0 km/h
1273 03-06-2020 10:00:00 19.2 C 11.38 g/m*3 19.2 C 0 km/h
1274 03-06-2020 10:05:00 19.3 C 10.95 g/m*3 19.3 C 0 km/h
1275 03-06-2020 10:10:00 19.4 C 10.68 g/m*3 19.4 C 1.6 km/h
Sensor: Nr:Datum:Temp:Abs-Feuchte:Windchill:Wind:
Aussen-T/F 1276 03-06-2020 10:15:00 19.7 C 11.21 g/m*3 19.7 C 1.6 km/h
1277 03-06-2020 10:20:00 20 C 10.71 g/m*3 20 C 1.6 km/h
1278 03-06-2020 10:25:00 20.5 C 10.68 g/m*3 20.5 C 1.6 km/h
1279 03-06-2020 10:30:00 20.9 C 10.75 g/m*3 20.9 C 4.8 km/h
1280 03-06-2020 10:35:00 21.3 C 10.62 g/m*3 21.3 C 4.8 km/h
1281 03-06-2020 10:40:00 21.7 C 10.68 g/m*3 21.7 C 3.2 km/h
1282 03-06-2020 10:45:00 22 C 10.29 g/m*3 22 C 1.6 km/h
1283 03-06-2020 10:50:00 22.3 C 10.27 g/m*3 22.3 C 4.8 km/h
1284 03-06-2020 10:55:00 22.4 C 10.13 g/m*3 22.4 C 6.4 km/h
1285 03-06-2020 11:00:00 22.6 C 9.84 g/m*3 22.6 C 1.6 km/h
1286 03-06-2020 11:05:00 22.7 C 9.9 g/m*3 22.7 C 3.2 km/h
1287 03-06-2020 11:10:00 22.8 C 9.55 g/m*3 22.8 C 3.2 km/h
1288 03-06-2020 11:15:00 22.8 C 9.75 g/m*3 22.8 C 6.4 km/h
1289 03-06-2020 11:20:00 22.9 C 9.81 g/m*3 22.9 C 3.2 km/h
1290 03-06-2020 11:25:00 23.1 C 9.51 g/m*3 23.1 C 8.1 km/h
1291 03-06-2020 11:30:00 23.2 C 9.56 g/m*3 23.2 C 6.4 km/h
1292 03-06-2020 11:35:00 23.3 C 9.83 g/m*3 23.3 C 8.1 km/h
1293 03-06-2020 11:40:00 23.4 C 10.09 g/m*3 23.4 C 3.2 km/h
1294 03-06-2020 11:45:00 23.6 C 9.36 g/m*3 23.6 C 6.4 km/h
1295 03-06-2020 11:50:00 23.7 C 9.63 g/m*3 23.7 C 9.7 km/h
1296 03-06-2020 11:55:00 23.8 C 9.68 g/m*3 23.8 C 6.4 km/h
1297 03-06-2020 12:00:00 23.8 C 9.46 g/m*3 23.8 C 6.4 km/h
1298 03-06-2020 12:05:00 23.9 C 9.3 g/m*3 23.9 C 9.7 km/h
1299 03-06-2020 12:10:00 23.9 C 9.3 g/m*3 23.9 C 3.2 km/h
1300 03-06-2020 12:15:00 24 C 9.36 g/m*3 24 C 3.2 km/h
Sensor: Nr:Datum:Temp:Abs-Feuchte:Windchill:Wind:
Aussen-T/F 1301 03-06-2020 12:20:00 24.1 C 9.63 g/m*3 24.1 C 4.8 km/h
1302 03-06-2020 12:25:00 24.1 C 9.63 g/m*3 24.1 C 9.7 km/h
1303 03-06-2020 12:30:00 24.2 C 9.68 g/m*3 24.2 C 6.4 km/h
1304 03-06-2020 12:35:00 24.2 C 9.46 g/m*3 24.2 C 6.4 km/h
1305 03-06-2020 12:40:00 24.4 C 9.57 g/m*3 24.4 C 9.7 km/h
1306 03-06-2020 12:45:00 24.6 C 9.68 g/m*3 24.6 C 11.3 km/h
1307 03-06-2020 12:50:00 24.6 C 9.68 g/m*3 24.6 C 6.4 km/h
1308 03-06-2020 12:55:00 24.8 C 9.33 g/m*3 24.8 C 8.1 km/h
1309 03-06-2020 13:00:00 24.9 C 9.39 g/m*3 24.9 C 8.1 km/h
1310 03-06-2020 13:05:00 25 C 9.44 g/m*3 25 C 9.7 km/h
1311 03-06-2020 13:10:00 25.2 C 9.54 g/m*3 25.2 C 12.9 km/h
1312 03-06-2020 13:15:00 25.3 C 9.36 g/m*3 25.3 C 8.1 km/h
1313 03-06-2020 13:20:00 25.4 C 9.42 g/m*3 25.4 C 8.1 km/h
1314 03-06-2020 13:25:00 25.7 C 9.58 g/m*3 25.7 C 9.7 km/h
1315 03-06-2020 13:30:00 25.8 C 9.63 g/m*3 25.8 C 8.1 km/h
1316 03-06-2020 13:35:00 25.7 C 9.34 g/m*3 25.7 C 11.3 km/h
1317 03-06-2020 13:40:00 25.6 C 9.05 g/m*3 25.6 C 8.1 km/h
1318 03-06-2020 13:45:00 25.4 C 9.18 g/m*3 25.4 C 9.7 km/h
1319 03-06-2020 13:50:00 25.3 C 9.6 g/m*3 25.3 C 8.1 km/h
1320 03-06-2020 13:55:00 25.3 C 9.36 g/m*3 25.3 C 8.1 km/h
1321 03-06-2020 14:00:00 25.2 C 9.31 g/m*3 25.2 C 8.1 km/h
1322 03-06-2020 14:05:00 25 C 9.44 g/m*3 25 C 9.7 km/h
1323 03-06-2020 14:10:00 24.8 C 9.56 g/m*3 24.8 C 25.7 km/h
1324 03-06-2020 14:15:00 24.4 C 9.79 g/m*3 24.4 C 19.3 km/h
1325 03-06-2020 14:20:00 23.8 C 9.03 g/m*3 23.8 C 22.5 km/h
Sensor: Nr:Datum:Temp:Abs-Feuchte:Windchill:Wind:
Aussen-T/F 1326 03-06-2020 14:25:00 23.3 C 9.2 g/m*3 23.3 C 14.5 km/h
1327 03-06-2020 14:30:00 23 C 8.84 g/m*3 23 C 8.1 km/h
1328 03-06-2020 14:35:00 22.9 C 8.79 g/m*3 22.9 C 12.9 km/h
1329 03-06-2020 14:40:00 22.8 C 9.14 g/m*3 22.8 C 12.9 km/h
1330 03-06-2020 14:45:00 22.5 C 9.59 g/m*3 22.5 C 8.1 km/h
1331 03-06-2020 14:50:00 22.4 C 9.93 g/m*3 22.4 C 3.2 km/h
1332 03-06-2020 14:55:00 22.4 C 10.33 g/m*3 22.4 C 3.2 km/h
1333 03-06-2020 15:00:00 22.6 C 10.04 g/m*3 22.6 C 9.7 km/h
1334 03-06-2020 15:05:00 22.9 C 10.83 g/m*3 22.9 C 3.2 km/h
1335 03-06-2020 15:10:00 23.9 C 9.95 g/m*3 23.9 C 6.4 km/h
1336 03-06-2020 15:15:00 24.3 C 9.96 g/m*3 24.3 C 4.8 km/h
1337 03-06-2020 15:20:00 24.5 C 9.4 g/m*3 24.5 C 12.9 km/h
1338 03-06-2020 15:25:00 24.6 C 9.23 g/m*3 24.6 C 8.1 km/h
1339 03-06-2020 15:30:00 24.4 C 9.57 g/m*3 24.4 C 6.4 km/h
1340 03-06-2020 15:35:00 24.4 C 9.57 g/m*3 24.4 C 3.2 km/h
1341 03-06-2020 15:40:00 24.2 C 9.24 g/m*3 24.2 C 9.7 km/h
1342 03-06-2020 15:45:00 24.2 C 9.24 g/m*3 24.2 C 8.1 km/h
1343 03-06-2020 15:50:00 24.4 C 9.57 g/m*3 24.4 C 6.4 km/h
1344 03-06-2020 15:55:00 25.1 C 9.49 g/m*3 25.1 C 8.1 km/h
1345 03-06-2020 16:00:00 25.7 C 9.34 g/m*3 25.7 C 9.7 km/h
1346 03-06-2020 16:05:00 25.9 C 9.2 g/m*3 25.9 C 8.1 km/h
1347 03-06-2020 16:10:00 26.2 C 9.35 g/m*3 26.2 C 6.4 km/h
1348 03-06-2020 16:15:00 26.4 C 9.21 g/m*3 26.4 C 6.4 km/h
1349 03-06-2020 16:20:00 26.6 C 8.81 g/m*3 26.6 C 4.8 km/h
1350 03-06-2020 16:25:00 26.8 C 9.16 g/m*3 26.8 C 6.4 km/h
Sensor: Nr:Datum:Temp:Abs-Feuchte:Windchill:Wind:
Aussen-T/F 1351 03-06-2020 16:30:00 27 C 9.26 g/m*3 27 C 8.1 km/h
1352 03-06-2020 16:35:00 27 C 9.52 g/m*3 27 C 6.4 km/h
1353 03-06-2020 16:40:00 27.1 C 9.32 g/m*3 27.1 C 6.4 km/h
1354 03-06-2020 16:45:00 27.3 C 9.16 g/m*3 27.3 C 6.4 km/h
1355 03-06-2020 16:50:00 27.1 C 9.06 g/m*3 27.1 C 11.3 km/h
1356 03-06-2020 16:55:00 26.9 C 9.21 g/m*3 26.9 C 4.8 km/h
1357 03-06-2020 17:00:00 26.9 C 9.47 g/m*3 26.9 C 8.1 km/h
1358 03-06-2020 17:05:00 26.9 C 9.47 g/m*3 26.9 C 3.2 km/h
1359 03-06-2020 17:10:00 27.1 C 9.58 g/m*3 27.1 C 8.1 km/h
1360 03-06-2020 17:15:00 26.9 C 9.47 g/m*3 26.9 C 9.7 km/h
1361 03-06-2020 17:20:00 27.1 C 9.32 g/m*3 27.1 C 8.1 km/h
1362 03-06-2020 17:25:00 27.1 C 9.32 g/m*3 27.1 C 8.1 km/h
1363 03-06-2020 17:30:00 27.1 C 9.58 g/m*3 27.1 C 6.4 km/h
1364 03-06-2020 17:35:00 27.3 C 9.68 g/m*3 27.3 C 4.8 km/h
1365 03-06-2020 17:40:00 26.9 C 9.47 g/m*3 26.9 C 9.7 km/h
1366 03-06-2020 17:45:00 26.5 C 9.76 g/m*3 26.5 C 3.2 km/h
1367 03-06-2020 17:50:00 26.3 C 9.65 g/m*3 26.3 C 3.2 km/h
1368 03-06-2020 17:55:00 26.1 C 9.55 g/m*3 26.1 C 6.4 km/h
1369 03-06-2020 18:00:00 25.8 C 9.87 g/m*3 25.8 C 4.8 km/h
1370 03-06-2020 18:05:00 25.7 C 9.58 g/m*3 25.7 C 3.2 km/h
1371 03-06-2020 18:10:00 25.7 C 9.58 g/m*3 25.7 C 6.4 km/h
1372 03-06-2020 18:15:00 25.6 C 9.76 g/m*3 25.6 C 3.2 km/h
1373 03-06-2020 18:20:00 25.4 C 9.65 g/m*3 25.4 C 4.8 km/h
1374 03-06-2020 18:25:00 25.3 C 9.83 g/m*3 25.3 C 0 km/h
1375 03-06-2020 18:30:00 25.3 C 9.6 g/m*3 25.3 C 4.8 km/h
Sensor: Nr:Datum:Temp:Abs-Feuchte:Windchill:Wind:
Aussen-T/F 1376 03-06-2020 18:35:00 25.2 C 9.54 g/m*3 25.2 C 6.4 km/h
1377 03-06-2020 18:40:00 25 C 9.21 g/m*3 25 C 8.1 km/h
1378 03-06-2020 18:45:00 24.9 C 9.39 g/m*3 24.9 C 6.4 km/h
1379 03-06-2020 18:50:00 24.9 C 9.39 g/m*3 24.9 C 4.8 km/h
1380 03-06-2020 18:55:00 25.1 C 9.49 g/m*3 25.1 C 4.8 km/h
1381 03-06-2020 19:00:00 25.3 C 9.6 g/m*3 25.3 C 3.2 km/h
1382 03-06-2020 19:05:00 25.3 C 10.07 g/m*3 25.3 C 3.2 km/h
1383 03-06-2020 19:10:00 25.4 C 9.89 g/m*3 25.4 C 8.1 km/h
1384 03-06-2020 19:15:00 25.5 C 9.71 g/m*3 25.5 C 4.8 km/h
1385 03-06-2020 19:20:00 25.8 C 9.87 g/m*3 25.8 C 3.2 km/h
1386 03-06-2020 19:25:00 25.8 C 9.63 g/m*3 25.8 C 6.4 km/h
1387 03-06-2020 19:30:00 25.8 C 9.87 g/m*3 25.8 C 4.8 km/h
1388 03-06-2020 19:35:00 25.8 C 10.35 g/m*3 25.8 C 1.6 km/h
1389 03-06-2020 19:40:00 25.8 C 11.32 g/m*3 25.8 C 0 km/h
1390 03-06-2020 19:45:00 25.7 C 11.25 g/m*3 25.7 C 1.6 km/h
1391 03-06-2020 19:50:00 25.3 C 9.6 g/m*3 25.3 C 1.6 km/h
1392 03-06-2020 19:55:00 25.1 C 9.72 g/m*3 25.1 C 6.4 km/h
1393 03-06-2020 20:00:00 25.1 C 9.72 g/m*3 25.1 C 4.8 km/h
1394 03-06-2020 20:05:00 24.9 C 9.61 g/m*3 24.9 C 3.2 km/h
1395 03-06-2020 20:10:00 24.8 C 9.79 g/m*3 24.8 C 3.2 km/h
1396 03-06-2020 20:15:00 24.7 C 9.73 g/m*3 24.7 C 4.8 km/h
1397 03-06-2020 20:20:00 24.6 C 9.45 g/m*3 24.6 C 4.8 km/h
1398 03-06-2020 20:25:00 24.3 C 9.52 g/m*3 24.3 C 6.4 km/h
1399 03-06-2020 20:30:00 24.2 C 9.46 g/m*3 24.2 C 3.2 km/h
1400 03-06-2020 20:35:00 24.1 C 9.63 g/m*3 24.1 C 1.6 km/h
Sensor: Nr:Datum:Temp:Abs-Feuchte:Windchill:Wind:
Aussen-T/F 1401 03-06-2020 20:40:00 24.1 C 10.06 g/m*3 24.1 C 3.2 km/h
1402 03-06-2020 20:45:00 24 C 10.66 g/m*3 24 C 1.6 km/h
1403 03-06-2020 20:50:00 23.8 C 10.76 g/m*3 23.8 C 1.6 km/h
1404 03-06-2020 20:55:00 23.6 C 10 g/m*3 23.6 C 3.2 km/h
1405 03-06-2020 21:00:00 23.4 C 10.51 g/m*3 23.4 C 1.6 km/h
1406 03-06-2020 21:05:00 23.1 C 10.54 g/m*3 23.1 C 3.2 km/h
1407 03-06-2020 21:10:00 22.5 C 10.59 g/m*3 22.5 C 3.2 km/h
1408 03-06-2020 21:15:00 22 C 10.48 g/m*3 22 C 4.8 km/h
1409 03-06-2020 21:20:00 21.6 C 10.43 g/m*3 21.6 C 4.8 km/h
1410 03-06-2020 21:25:00 21.1 C 10.32 g/m*3 21.1 C 1.6 km/h
1411 03-06-2020 21:30:00 20.7 C 10.26 g/m*3 20.7 C 4.8 km/h
1412 03-06-2020 21:35:00 20.4 C 10.26 g/m*3 20.4 C 4.8 km/h
1413 03-06-2020 21:40:00 20.1 C 10.08 g/m*3 20.1 C 4.8 km/h
1414 03-06-2020 21:45:00 19.8 C 10.08 g/m*3 19.8 C 6.4 km/h
1415 03-06-2020 21:50:00 19.6 C 10.13 g/m*3 19.6 C 6.4 km/h
1416 03-06-2020 21:55:00 19.4 C 10.01 g/m*3 19.4 C 6.4 km/h
1417 03-06-2020 22:00:00 19.4 C 10.01 g/m*3 19.4 C 6.4 km/h
1418 03-06-2020 22:05:00 19.3 C 10.12 g/m*3 19.3 C 8.1 km/h
1419 03-06-2020 22:10:00 19.2 C 10.06 g/m*3 19.2 C 6.4 km/h
1420 03-06-2020 22:15:00 19.2 C 10.06 g/m*3 19.2 C 6.4 km/h
1421 03-06-2020 22:20:00 19.1 C 10.16 g/m*3 19.1 C 6.4 km/h
1422 03-06-2020 22:25:00 19.1 C 10.16 g/m*3 19.1 C 4.8 km/h
1423 03-06-2020 22:30:00 18.9 C 10.21 g/m*3 18.9 C 4.8 km/h
1424 03-06-2020 22:35:00 18.8 C 10.31 g/m*3 18.8 C 1.6 km/h
1425 03-06-2020 22:40:00 18.7 C 10.41 g/m*3 18.7 C 3.2 km/h
Sensor: Nr:Datum:Temp:Abs-Feuchte:Windchill:Wind:
Aussen-T/F 1426 03-06-2020 22:45:00 18.4 C 10.22 g/m*3 18.4 C 1.6 km/h
1427 03-06-2020 22:50:00 18.3 C 10.16 g/m*3 18.3 C 1.6 km/h
1428 03-06-2020 22:55:00 18.1 C 10.35 g/m*3 18.1 C 0 km/h
1429 03-06-2020 23:00:00 17.8 C 10.17 g/m*3 17.8 C 0 km/h
1430 03-06-2020 23:05:00 17.6 C 10.2 g/m*3 17.6 C 3.2 km/h
1431 03-06-2020 23:10:00 17.4 C 10.23 g/m*3 17.4 C 3.2 km/h
1432 03-06-2020 23:15:00 17.3 C 10.16 g/m*3 17.3 C 3.2 km/h
1433 03-06-2020 23:20:00 17.1 C 10.04 g/m*3 17.1 C 0 km/h
1434 03-06-2020 23:25:00 17 C 10.13 g/m*3 17 C 3.2 km/h
1435 03-06-2020 23:30:00 16.9 C 10.07 g/m*3 16.9 C 3.2 km/h
1436 03-06-2020 23:35:00 16.9 C 10.36 g/m*3 16.9 C 1.6 km/h
1437 03-06-2020 23:40:00 16.9 C 10.36 g/m*3 16.9 C 3.2 km/h
1438 03-06-2020 23:45:00 16.9 C 10.21 g/m*3 16.9 C 4.8 km/h
1439 03-06-2020 23:50:00 17 C 10.42 g/m*3 17 C 1.6 km/h
1440 03-06-2020 23:55:00 17.1 C 10.92 g/m*3 17.1 C 1.6 km/h
1441 04-06-2020 00:00:00 17.4 C 11.26 g/m*3 17.4 C 11.3 km/h
1442 04-06-2020 00:05:00 17.8 C 11.08 g/m*3 17.8 C 6.4 km/h
1443 04-06-2020 00:10:00 18 C 11.06 g/m*3 18 C 4.8 km/h
1444 04-06-2020 00:15:00 18.1 C 11.12 g/m*3 18.1 C 9.7 km/h
1445 04-06-2020 00:20:00 18.3 C 11.26 g/m*3 18.3 C 9.7 km/h
1446 04-06-2020 00:25:00 18.4 C 11.17 g/m*3 18.4 C 6.4 km/h
1447 04-06-2020 00:30:00 18.4 C 11.17 g/m*3 18.4 C 11.3 km/h
1448 04-06-2020 00:35:00 18.4 C 11.17 g/m*3 18.4 C 9.7 km/h
1449 04-06-2020 00:40:00 18.4 C 11.32 g/m*3 18.4 C 6.4 km/h
1450 04-06-2020 00:45:00 18.4 C 11.32 g/m*3 18.4 C 11.3 km/h
Sensor: Nr:Datum:Temp:Abs-Feuchte:Windchill:Wind:
Aussen-T/F 1451 04-06-2020 00:50:00 18.4 C 11.32 g/m*3 18.4 C 8.1 km/h
1452 04-06-2020 00:55:00 18.4 C 11.32 g/m*3 18.4 C 8.1 km/h
1453 04-06-2020 01:00:00 18.4 C 11.32 g/m*3 18.4 C 11.3 km/h
1454 04-06-2020 01:05:00 18.4 C 11.48 g/m*3 18.4 C 8.1 km/h
1455 04-06-2020 01:10:00 18.4 C 11.48 g/m*3 18.4 C 8.1 km/h
1456 04-06-2020 01:15:00 18.3 C 11.88 g/m*3 18.3 C 16.1 km/h
1457 04-06-2020 01:20:00 18.1 C 12.05 g/m*3 18.1 C 11.3 km/h
1458 04-06-2020 01:25:00 17.6 C 12.15 g/m*3 17.6 C 9.7 km/h
1459 04-06-2020 01:30:00 17.3 C 12.23 g/m*3 17.3 C 9.7 km/h
1460 04-06-2020 01:35:00 17.1 C 12.23 g/m*3 17.1 C 6.4 km/h
1461 04-06-2020 01:40:00 16.9 C 12.23 g/m*3 16.9 C 12.9 km/h
1462 04-06-2020 01:45:00 16.7 C 12.22 g/m*3 16.7 C 9.7 km/h
1463 04-06-2020 01:50:00 16.6 C 12.15 g/m*3 16.6 C 8.1 km/h
1464 04-06-2020 01:55:00 16.4 C 12.14 g/m*3 16.4 C 8.1 km/h
1465 04-06-2020 02:00:00 16.3 C 12.21 g/m*3 16.3 C 8.1 km/h
1466 04-06-2020 02:05:00 16.2 C 12.14 g/m*3 16.2 C 6.4 km/h
1467 04-06-2020 02:10:00 16.1 C 12.2 g/m*3 16.1 C 6.4 km/h
1468 04-06-2020 02:15:00 16 C 12.13 g/m*3 16 C 6.4 km/h
1469 04-06-2020 02:20:00 15.9 C 12.05 g/m*3 15.9 C 4.8 km/h
1470 04-06-2020 02:25:00 15.7 C 11.91 g/m*3 15.7 C 8.1 km/h
1471 04-06-2020 02:30:00 15.6 C 11.84 g/m*3 15.6 C 8.1 km/h
1472 04-06-2020 02:35:00 15.4 C 11.82 g/m*3 15.4 C 6.4 km/h
1473 04-06-2020 02:40:00 15.3 C 11.75 g/m*3 15.3 C 8.1 km/h
1474 04-06-2020 02:45:00 15.2 C 11.68 g/m*3 15.2 C 8.1 km/h
1475 04-06-2020 02:50:00 15.1 C 11.74 g/m*3 15.1 C 6.4 km/h
Sensor: Nr:Datum:Temp:Abs-Feuchte:Windchill:Wind:
Aussen-T/F 1476 04-06-2020 02:55:00 15 C 11.67 g/m*3 15 C 4.8 km/h
1477 04-06-2020 03:00:00 15 C 11.8 g/m*3 15 C 4.8 km/h
1478 04-06-2020 03:05:00 14.9 C 11.73 g/m*3 14.9 C 1.6 km/h
1479 04-06-2020 03:10:00 14.9 C 11.73 g/m*3 14.9 C 0 km/h
1480 04-06-2020 03:15:00 15 C 11.8 g/m*3 15 C 0 km/h
1481 04-06-2020 03:20:00 14.9 C 11.73 g/m*3 14.9 C 0 km/h
1482 04-06-2020 03:25:00 14.9 C 11.73 g/m*3 14.9 C 1.6 km/h
1483 04-06-2020 03:30:00 14.9 C 11.85 g/m*3 14.9 C 0 km/h
1484 04-06-2020 03:35:00 14.9 C 11.85 g/m*3 14.9 C 0 km/h
1485 04-06-2020 03:40:00 14.9 C 11.85 g/m*3 14.9 C 0 km/h
1486 04-06-2020 03:45:00 14.9 C 11.85 g/m*3 14.9 C 0 km/h
1487 04-06-2020 03:50:00 14.9 C 11.98 g/m*3 14.9 C 0 km/h
1488 04-06-2020 03:55:00 14.9 C 11.98 g/m*3 14.9 C 0 km/h
1489 04-06-2020 04:00:00 14.9 C 11.98 g/m*3 14.9 C 0 km/h
1490 04-06-2020 04:05:00 14.9 C 11.98 g/m*3 14.9 C 0 km/h
1491 04-06-2020 04:10:00 14.8 C 11.91 g/m*3 14.8 C 0 km/h
1492 04-06-2020 04:15:00 14.8 C 11.91 g/m*3 14.8 C 0 km/h
1493 04-06-2020 04:20:00 14.8 C 11.91 g/m*3 14.8 C 3.2 km/h
1494 04-06-2020 04:25:00 14.8 C 11.91 g/m*3 14.8 C 3.2 km/h
1495 04-06-2020 04:30:00 14.8 C 11.91 g/m*3 14.8 C 3.2 km/h
1496 04-06-2020 04:35:00 14.8 C 11.91 g/m*3 14.8 C 4.8 km/h
1497 04-06-2020 04:40:00 14.7 C 11.83 g/m*3 14.7 C 1.6 km/h
1498 04-06-2020 04:45:00 14.8 C 11.91 g/m*3 14.8 C 0 km/h
1499 04-06-2020 04:50:00 14.7 C 11.83 g/m*3 14.7 C 1.6 km/h
1500 04-06-2020 04:55:00 14.7 C 11.83 g/m*3 14.7 C 0 km/h
Sensor: Nr:Datum:Temp:Abs-Feuchte:Windchill:Wind:
Aussen-T/F 1501 04-06-2020 05:00:00 14.7 C 11.83 g/m*3 14.7 C 0 km/h
1502 04-06-2020 05:05:00 14.7 C 11.83 g/m*3 14.7 C 0 km/h
1503 04-06-2020 05:10:00 14.7 C 11.83 g/m*3 14.7 C 1.6 km/h
1504 04-06-2020 05:15:00 14.7 C 11.83 g/m*3 14.7 C 1.6 km/h
1505 04-06-2020 05:20:00 14.6 C 11.76 g/m*3 14.6 C 3.2 km/h
1506 04-06-2020 05:25:00 14.6 C 11.76 g/m*3 14.6 C 0 km/h
1507 04-06-2020 05:30:00 14.6 C 11.76 g/m*3 14.6 C 1.6 km/h
1508 04-06-2020 05:35:00 14.5 C 11.69 g/m*3 14.5 C 0 km/h
1509 04-06-2020 05:40:00 14.4 C 11.62 g/m*3 14.4 C 0 km/h
1510 04-06-2020 05:45:00 14.4 C 11.62 g/m*3 14.4 C 3.2 km/h
1511 04-06-2020 05:50:00 14.3 C 11.55 g/m*3 14.3 C 0 km/h
1512 04-06-2020 05:55:00 14.3 C 11.67 g/m*3 14.3 C 0 km/h
1513 04-06-2020 06:00:00 14.3 C 11.67 g/m*3 14.3 C 0 km/h
1514 04-06-2020 06:05:00 14.3 C 11.67 g/m*3 14.3 C 0 km/h
1515 04-06-2020 06:10:00 14.3 C 11.67 g/m*3 14.3 C 0 km/h
1516 04-06-2020 06:15:00 14.3 C 11.67 g/m*3 14.3 C 0 km/h
1517 04-06-2020 06:20:00 14.3 C 11.67 g/m*3 14.3 C 0 km/h
1518 04-06-2020 06:25:00 14.3 C 11.67 g/m*3 14.3 C 0 km/h
1519 04-06-2020 06:30:00 14.3 C 11.67 g/m*3 14.3 C 0 km/h
1520 04-06-2020 06:35:00 14.3 C 11.67 g/m*3 14.3 C 0 km/h
1521 04-06-2020 06:40:00 14.3 C 11.67 g/m*3 14.3 C 0 km/h
1522 04-06-2020 06:45:00 14.3 C 11.67 g/m*3 14.3 C 0 km/h
1523 04-06-2020 06:50:00 14.3 C 11.67 g/m*3 14.3 C 0 km/h
1524 04-06-2020 06:55:00 14.3 C 11.67 g/m*3 14.3 C 0 km/h
1525 04-06-2020 07:00:00 14.4 C 11.74 g/m*3 14.4 C 0 km/h
Sensor: Nr:Datum:Temp:Abs-Feuchte:Windchill:Wind:
Aussen-T/F 1526 04-06-2020 07:05:00 14.4 C 11.74 g/m*3 14.4 C 0 km/h
1527 04-06-2020 07:10:00 14.4 C 11.74 g/m*3 14.4 C 0 km/h
1528 04-06-2020 07:15:00 14.4 C 11.74 g/m*3 14.4 C 0 km/h
1529 04-06-2020 07:20:00 14.4 C 11.74 g/m*3 14.4 C 0 km/h
1530 04-06-2020 07:25:00 14.4 C 11.74 g/m*3 14.4 C 0 km/h
1531 04-06-2020 07:30:00 14.4 C 11.74 g/m*3 14.4 C 0 km/h
1532 04-06-2020 07:35:00 14.5 C 11.82 g/m*3 14.5 C 0 km/h
1533 04-06-2020 07:40:00 14.5 C 11.82 g/m*3 14.5 C 0 km/h
1534 04-06-2020 07:45:00 14.6 C 12.01 g/m*3 14.6 C 0 km/h
1535 04-06-2020 07:50:00 14.6 C 12.01 g/m*3 14.6 C 0 km/h
1536 04-06-2020 07:55:00 14.6 C 12.01 g/m*3 14.6 C 0 km/h
1537 04-06-2020 08:00:00 14.6 C 12.01 g/m*3 14.6 C 0 km/h
1538 04-06-2020 08:05:00 14.6 C 12.01 g/m*3 14.6 C 0 km/h
1539 04-06-2020 08:10:00 14.6 C 12.01 g/m*3 14.6 C 0 km/h
1540 04-06-2020 08:15:00 14.6 C 12.01 g/m*3 14.6 C 0 km/h
1541 04-06-2020 08:20:00 14.6 C 12.01 g/m*3 14.6 C 0 km/h
1542 04-06-2020 08:25:00 14.6 C 12.01 g/m*3 14.6 C 0 km/h
1543 04-06-2020 08:30:00 14.6 C 12.01 g/m*3 14.6 C 0 km/h
1544 04-06-2020 08:35:00 14.6 C 12.01 g/m*3 14.6 C 0 km/h
1545 04-06-2020 08:40:00 14.6 C 12.01 g/m*3 14.6 C 0 km/h
1546 04-06-2020 08:45:00 14.7 C 12.09 g/m*3 14.7 C 0 km/h
1547 04-06-2020 08:50:00 14.7 C 12.09 g/m*3 14.7 C 0 km/h
1548 04-06-2020 08:55:00 14.7 C 12.09 g/m*3 14.7 C 0 km/h
1549 04-06-2020 09:00:00 14.7 C 12.09 g/m*3 14.7 C 0 km/h
1550 04-06-2020 09:05:00 14.7 C 12.09 g/m*3 14.7 C 0 km/h
Sensor: Nr:Datum:Temp:Abs-Feuchte:Windchill:Wind:
Aussen-T/F 1551 04-06-2020 09:10:00 14.8 C 12.16 g/m*3 14.8 C 0 km/h
1552 04-06-2020 09:15:00 14.9 C 12.24 g/m*3 14.9 C 0 km/h
1553 04-06-2020 09:20:00 14.9 C 12.24 g/m*3 14.9 C 0 km/h
1554 04-06-2020 09:25:00 15 C 12.31 g/m*3 15 C 0 km/h
1555 04-06-2020 09:30:00 15.1 C 12.39 g/m*3 15.1 C 0 km/h
1556 04-06-2020 09:35:00 15.1 C 12.39 g/m*3 15.1 C 0 km/h
1557 04-06-2020 09:40:00 15.1 C 12.39 g/m*3 15.1 C 0 km/h
1558 04-06-2020 09:45:00 15.1 C 12.39 g/m*3 15.1 C 0 km/h
1559 04-06-2020 09:50:00 14.9 C 12.24 g/m*3 14.9 C 0 km/h
1560 04-06-2020 09:55:00 14.9 C 12.24 g/m*3 14.9 C 0 km/h
1561 04-06-2020 10:00:00 14.9 C 12.24 g/m*3 14.9 C 0 km/h
1562 04-06-2020 10:05:00 14.9 C 12.24 g/m*3 14.9 C 0 km/h
1563 04-06-2020 10:10:00 15 C 12.31 g/m*3 15 C 0 km/h
1564 04-06-2020 10:15:00 15.1 C 12.39 g/m*3 15.1 C 0 km/h
1565 04-06-2020 10:20:00 15.1 C 12.39 g/m*3 15.1 C 3.2 km/h
1566 04-06-2020 10:25:00 14.9 C 12.24 g/m*3 14.9 C 0 km/h
1567 04-06-2020 10:30:00 14.9 C 12.24 g/m*3 14.9 C 0 km/h
1568 04-06-2020 10:35:00 15.1 C 12.39 g/m*3 15.1 C 0 km/h
1569 04-06-2020 10:40:00 15.2 C 12.46 g/m*3 15.2 C 0 km/h
1570 04-06-2020 10:45:00 15.4 C 12.61 g/m*3 15.4 C 0 km/h
1571 04-06-2020 10:50:00 15.5 C 12.69 g/m*3 15.5 C 0 km/h
1572 04-06-2020 10:55:00 15.5 C 12.69 g/m*3 15.5 C 0 km/h
1573 04-06-2020 11:00:00 15.4 C 12.61 g/m*3 15.4 C 0 km/h
1574 04-06-2020 11:05:00 15.4 C 12.61 g/m*3 15.4 C 3.2 km/h
1575 04-06-2020 11:10:00 15.5 C 12.69 g/m*3 15.5 C 3.2 km/h
Sensor: Nr:Datum:Temp:Abs-Feuchte:Windchill:Wind:
Aussen-T/F 1576 04-06-2020 11:15:00 15.6 C 12.77 g/m*3 15.6 C 3.2 km/h
1577 04-06-2020 11:20:00 15.7 C 12.84 g/m*3 15.7 C 0 km/h
1578 04-06-2020 11:25:00 15.7 C 12.84 g/m*3 15.7 C 0 km/h
1579 04-06-2020 11:30:00 15.9 C 13.14 g/m*3 15.9 C 0 km/h
1580 04-06-2020 11:35:00 15.9 C 13 g/m*3 15.9 C 0 km/h
1581 04-06-2020 11:40:00 16.1 C 13.16 g/m*3 16.1 C 0 km/h
1582 04-06-2020 11:45:00 16.1 C 13.16 g/m*3 16.1 C 1.6 km/h
1583 04-06-2020 11:50:00 16.2 C 13.24 g/m*3 16.2 C 0 km/h
1584 04-06-2020 11:55:00 16.1 C 13.02 g/m*3 16.1 C 1.6 km/h
1585 04-06-2020 12:00:00 16 C 12.94 g/m*3 16 C 0 km/h
1586 04-06-2020 12:05:00 15.8 C 12.65 g/m*3 15.8 C 4.8 km/h
1587 04-06-2020 12:10:00 15.5 C 12.29 g/m*3 15.5 C 4.8 km/h
1588 04-06-2020 12:15:00 15.4 C 12.22 g/m*3 15.4 C 4.8 km/h
1589 04-06-2020 12:20:00 15.5 C 12.43 g/m*3 15.5 C 1.6 km/h
1590 04-06-2020 12:25:00 15.5 C 12.43 g/m*3 15.5 C 3.2 km/h
1591 04-06-2020 12:30:00 15.6 C 12.5 g/m*3 15.6 C 1.6 km/h
1592 04-06-2020 12:35:00 15.8 C 12.79 g/m*3 15.8 C 1.6 km/h
1593 04-06-2020 12:40:00 15.9 C 12.87 g/m*3 15.9 C 0 km/h
1594 04-06-2020 12:45:00 16.2 C 13.1 g/m*3 16.2 C 0 km/h
1595 04-06-2020 12:50:00 16.2 C 12.96 g/m*3 16.2 C 1.6 km/h
1596 04-06-2020 12:55:00 16.3 C 13.04 g/m*3 16.3 C 3.2 km/h
1597 04-06-2020 13:00:00 16.2 C 12.55 g/m*3 16.2 C 6.4 km/h
1598 04-06-2020 13:05:00 16.2 C 12.55 g/m*3 16.2 C 3.2 km/h
1599 04-06-2020 13:10:00 16.2 C 12.41 g/m*3 16.2 C 4.8 km/h
1600 04-06-2020 13:15:00 16.3 C 12.35 g/m*3 16.3 C 6.4 km/h
Sensor: Nr:Datum:Temp:Abs-Feuchte:Windchill:Wind:
Aussen-T/F 1601 04-06-2020 13:20:00 16.5 C 12.5 g/m*3 16.5 C 3.2 km/h
1602 04-06-2020 13:25:00 16.6 C 12.57 g/m*3 16.6 C 3.2 km/h
1603 04-06-2020 13:30:00 16.7 C 12.65 g/m*3 16.7 C 0 km/h
1604 04-06-2020 13:35:00 16.8 C 13.01 g/m*3 16.8 C 0 km/h
1605 04-06-2020 13:40:00 16.7 C 12.51 g/m*3 16.7 C 9.7 km/h
1606 04-06-2020 13:45:00 16.6 C 12.29 g/m*3 16.6 C 9.7 km/h
1607 04-06-2020 13:50:00 16.2 C 12 g/m*3 16.2 C 12.9 km/h
1608 04-06-2020 13:55:00 16 C 11.99 g/m*3 16 C 6.4 km/h
1609 04-06-2020 14:00:00 15.8 C 11.85 g/m*3 15.8 C 4.8 km/h
1610 04-06-2020 14:05:00 15.6 C 11.97 g/m*3 15.6 C 8.1 km/h
1611 04-06-2020 14:10:00 15.4 C 11.96 g/m*3 15.4 C 0 km/h
1612 04-06-2020 14:15:00 15.4 C 11.96 g/m*3 15.4 C 0 km/h
1613 04-06-2020 14:20:00 15.4 C 12.09 g/m*3 15.4 C 6.4 km/h
1614 04-06-2020 14:25:00 15.3 C 12.01 g/m*3 15.3 C 1.6 km/h
1615 04-06-2020 14:30:00 15.3 C 12.01 g/m*3 15.3 C 0 km/h
1616 04-06-2020 14:35:00 15.3 C 12.01 g/m*3 15.3 C 6.4 km/h
1617 04-06-2020 14:40:00 15.3 C 12.01 g/m*3 15.3 C 6.4 km/h
1618 04-06-2020 14:45:00 15.2 C 11.94 g/m*3 15.2 C 6.4 km/h
1619 04-06-2020 14:50:00 15.1 C 11.87 g/m*3 15.1 C 4.8 km/h
1620 04-06-2020 14:55:00 15 C 11.67 g/m*3 15 C 8.1 km/h
1621 04-06-2020 15:00:00 15 C 11.67 g/m*3 15 C 6.4 km/h
1622 04-06-2020 15:05:00 15.1 C 12 g/m*3 15.1 C 1.6 km/h
1623 04-06-2020 15:10:00 15.1 C 11.87 g/m*3 15.1 C 4.8 km/h
1624 04-06-2020 15:15:00 15.1 C 11.87 g/m*3 15.1 C 8.1 km/h
1625 04-06-2020 15:20:00 15.1 C 11.87 g/m*3 15.1 C 8.1 km/h
Sensor: Nr:Datum:Temp:Abs-Feuchte:Windchill:Wind:
Aussen-T/F 1626 04-06-2020 15:25:00 15.3 C 12.14 g/m*3 15.3 C 3.2 km/h
1627 04-06-2020 15:30:00 15.3 C 12.01 g/m*3 15.3 C 9.7 km/h
1628 04-06-2020 15:35:00 15.2 C 11.94 g/m*3 15.2 C 9.7 km/h
1629 04-06-2020 15:40:00 15.3 C 12.01 g/m*3 15.3 C 6.4 km/h
1630 04-06-2020 15:45:00 15.3 C 12.01 g/m*3 15.3 C 6.4 km/h
1631 04-06-2020 15:50:00 15.3 C 11.88 g/m*3 15.3 C 8.1 km/h
1632 04-06-2020 15:55:00 15.2 C 11.81 g/m*3 15.2 C 12.9 km/h
1633 04-06-2020 16:00:00 15.2 C 11.81 g/m*3 15.2 C 8.1 km/h
1634 04-06-2020 16:05:00 15.2 C 11.68 g/m*3 15.2 C 11.3 km/h
1635 04-06-2020 16:10:00 15.2 C 11.68 g/m*3 15.2 C 9.7 km/h
1636 04-06-2020 16:15:00 15.3 C 11.88 g/m*3 15.3 C 9.7 km/h
1637 04-06-2020 16:20:00 15.2 C 11.68 g/m*3 15.2 C 6.4 km/h
1638 04-06-2020 16:25:00 15.2 C 11.81 g/m*3 15.2 C 1.6 km/h
1639 04-06-2020 16:30:00 15.1 C 11.74 g/m*3 15.1 C 9.7 km/h
1640 04-06-2020 16:35:00 15 C 11.54 g/m*3 15 C 6.4 km/h
1641 04-06-2020 16:40:00 15 C 11.67 g/m*3 15 C 11.3 km/h
1642 04-06-2020 16:45:00 14.9 C 11.6 g/m*3 14.9 C 3.2 km/h
1643 04-06-2020 16:50:00 14.9 C 11.6 g/m*3 14.9 C 8.1 km/h
1644 04-06-2020 16:55:00 15 C 11.54 g/m*3 15 C 6.4 km/h
1645 04-06-2020 17:00:00 15.1 C 11.74 g/m*3 15.1 C 6.4 km/h
1646 04-06-2020 17:05:00 15 C 11.54 g/m*3 15 C 12.9 km/h
1647 04-06-2020 17:10:00 14.9 C 11.34 g/m*3 14.9 C 14.5 km/h
1648 04-06-2020 17:15:00 14.9 C 11.34 g/m*3 14.9 C 11.3 km/h
1649 04-06-2020 17:20:00 14.8 C 11.27 g/m*3 14.8 C 14.5 km/h
1650 04-06-2020 17:25:00 14.7 C 11.21 g/m*3 14.7 C 11.3 km/h
Sensor: Nr:Datum:Temp:Abs-Feuchte:Windchill:Wind:
Aussen-T/F 1651 04-06-2020 17:30:00 14.6 C 11.14 g/m*3 14.6 C 11.3 km/h
1652 04-06-2020 17:35:00 14.5 C 11.07 g/m*3 14.5 C 19.3 km/h
1653 04-06-2020 17:40:00 14.3 C 10.93 g/m*3 14.3 C 6.4 km/h
1654 04-06-2020 17:45:00 14.3 C 10.93 g/m*3 14.3 C 6.4 km/h
1655 04-06-2020 17:50:00 14.2 C 10.87 g/m*3 14.2 C 9.7 km/h
1656 04-06-2020 17:55:00 14.2 C 10.87 g/m*3 14.2 C 16.1 km/h
1657 04-06-2020 18:00:00 14.1 C 10.8 g/m*3 14.1 C 16.1 km/h
1658 04-06-2020 18:05:00 14 C 10.74 g/m*3 14 C 6.4 km/h
1659 04-06-2020 18:10:00 13.9 C 10.67 g/m*3 13.9 C 9.7 km/h
1660 04-06-2020 18:15:00 13.8 C 10.48 g/m*3 13.8 C 11.3 km/h
1661 04-06-2020 18:20:00 13.7 C 10.42 g/m*3 13.7 C 11.3 km/h
1662 04-06-2020 18:25:00 13.6 C 10.47 g/m*3 13.6 C 4.8 km/h
1663 04-06-2020 18:30:00 13.6 C 10.59 g/m*3 13.6 C 4.8 km/h
1664 04-06-2020 18:35:00 13.5 C 10.53 g/m*3 13.5 C 3.2 km/h
1665 04-06-2020 18:40:00 13.4 C 10.46 g/m*3 13.4 C 1.6 km/h
1666 04-06-2020 18:45:00 13.4 C 10.58 g/m*3 13.4 C 1.6 km/h
1667 04-06-2020 18:50:00 13.4 C 10.58 g/m*3 13.4 C 1.6 km/h
1668 04-06-2020 18:55:00 13.4 C 10.69 g/m*3 13.4 C 0 km/h
1669 04-06-2020 19:00:00 13.4 C 10.69 g/m*3 13.4 C 1.6 km/h
1670 04-06-2020 19:05:00 13.3 C 10.63 g/m*3 13.3 C 4.8 km/h
1671 04-06-2020 19:10:00 13.3 C 10.63 g/m*3 13.3 C 1.6 km/h
1672 04-06-2020 19:15:00 13.2 C 10.56 g/m*3 13.2 C 3.2 km/h
1673 04-06-2020 19:20:00 13.2 C 10.56 g/m*3 13.2 C 3.2 km/h
1674 04-06-2020 19:25:00 13.2 C 10.56 g/m*3 13.2 C 1.6 km/h
1675 04-06-2020 19:30:00 13.2 C 10.68 g/m*3 13.2 C 0 km/h
Sensor: Nr:Datum:Temp:Abs-Feuchte:Windchill:Wind:
Aussen-T/F 1676 04-06-2020 19:35:00 13.2 C 10.68 g/m*3 13.2 C 1.6 km/h
1677 04-06-2020 19:40:00 13 C 10.43 g/m*3 13 C 3.2 km/h
1678 04-06-2020 19:45:00 12.9 C 10.48 g/m*3 12.9 C 0 km/h
1679 04-06-2020 19:50:00 12.9 C 10.48 g/m*3 12.9 C 0 km/h
1680 04-06-2020 19:55:00 12.9 C 10.48 g/m*3 12.9 C 0 km/h
1681 04-06-2020 20:00:00 12.9 C 10.48 g/m*3 12.9 C 0 km/h
1682 04-06-2020 20:05:00 12.9 C 10.48 g/m*3 12.9 C 1.6 km/h
1683 04-06-2020 20:10:00 12.9 C 10.48 g/m*3 12.9 C 3.2 km/h
1684 04-06-2020 20:15:00 12.8 C 10.42 g/m*3 12.8 C 4.8 km/h
1685 04-06-2020 20:20:00 12.7 C 10.35 g/m*3 12.7 C 1.6 km/h
1686 04-06-2020 20:25:00 12.7 C 10.35 g/m*3 12.7 C 6.4 km/h
1687 04-06-2020 20:30:00 12.7 C 10.24 g/m*3 12.7 C 8.1 km/h
1688 04-06-2020 20:35:00 12.7 C 10.24 g/m*3 12.7 C 4.8 km/h
1689 04-06-2020 20:40:00 12.6 C 10.18 g/m*3 12.6 C 4.8 km/h
1690 04-06-2020 20:45:00 12.7 C 10.24 g/m*3 12.7 C 0 km/h
1691 04-06-2020 20:50:00 12.7 C 10.24 g/m*3 12.7 C 4.8 km/h
1692 04-06-2020 20:55:00 12.7 C 10.24 g/m*3 12.7 C 1.6 km/h
1693 04-06-2020 21:00:00 12.7 C 10.24 g/m*3 12.7 C 6.4 km/h
1694 04-06-2020 21:05:00 12.6 C 10.18 g/m*3 12.6 C 3.2 km/h
1695 04-06-2020 21:10:00 12.6 C 10.18 g/m*3 12.6 C 6.4 km/h
1696 04-06-2020 21:15:00 12.5 C 10 g/m*3 12.5 C 11.3 km/h
1697 04-06-2020 21:20:00 12.4 C 9.83 g/m*3 12.4 C 8.1 km/h
1698 04-06-2020 21:25:00 12.4 C 9.94 g/m*3 12.4 C 4.8 km/h
1699 04-06-2020 21:30:00 12.4 C 9.94 g/m*3 12.4 C 6.4 km/h
1700 04-06-2020 21:35:00 12.3 C 9.77 g/m*3 12.3 C 0 km/h
Sensor: Nr:Datum:Temp:Abs-Feuchte:Windchill:Wind:
Aussen-T/F 1701 04-06-2020 21:40:00 12.3 C 9.88 g/m*3 12.3 C 4.8 km/h
1702 04-06-2020 21:45:00 12.2 C 9.82 g/m*3 12.2 C 4.8 km/h
1703 04-06-2020 21:50:00 12.2 C 9.82 g/m*3 12.2 C 1.6 km/h
1704 04-06-2020 21:55:00 12.1 C 9.87 g/m*3 12.1 C 3.2 km/h
1705 04-06-2020 22:00:00 12.1 C 9.87 g/m*3 12.1 C 4.8 km/h
1706 04-06-2020 22:05:00 11.9 C 9.74 g/m*3 11.9 C 4.8 km/h
1707 04-06-2020 22:10:00 11.9 C 9.74 g/m*3 11.9 C 1.6 km/h
1708 04-06-2020 22:15:00 11.8 C 9.68 g/m*3 11.8 C 6.4 km/h
1709 04-06-2020 22:20:00 11.8 C 9.68 g/m*3 11.8 C 4.8 km/h
1710 04-06-2020 22:25:00 11.7 C 9.73 g/m*3 11.7 C 4.8 km/h
1711 04-06-2020 22:30:00 11.7 C 9.73 g/m*3 11.7 C 4.8 km/h
1712 04-06-2020 22:35:00 11.6 C 9.67 g/m*3 11.6 C 4.8 km/h
1713 04-06-2020 22:40:00 11.6 C 9.67 g/m*3 11.6 C 4.8 km/h
1714 04-06-2020 22:45:00 11.5 C 9.61 g/m*3 11.5 C 4.8 km/h
1715 04-06-2020 22:50:00 11.4 C 9.55 g/m*3 11.4 C 6.4 km/h
1716 04-06-2020 22:55:00 11.3 C 9.49 g/m*3 11.3 C 8.1 km/h
1717 04-06-2020 23:00:00 11.3 C 9.49 g/m*3 11.3 C 4.8 km/h
1718 04-06-2020 23:05:00 11.3 C 9.59 g/m*3 11.3 C 4.8 km/h
1719 04-06-2020 23:10:00 11.2 C 9.53 g/m*3 11.2 C 6.4 km/h
1720 04-06-2020 23:15:00 11.2 C 9.53 g/m*3 11.2 C 6.4 km/h
1721 04-06-2020 23:20:00 11.2 C 9.53 g/m*3 11.2 C 6.4 km/h
1722 04-06-2020 23:25:00 11.2 C 9.53 g/m*3 11.2 C 6.4 km/h
1723 04-06-2020 23:30:00 11.1 C 9.47 g/m*3 11.1 C 4.8 km/h
1724 04-06-2020 23:35:00 11.1 C 9.47 g/m*3 11.1 C 4.8 km/h
1725 04-06-2020 23:40:00 11.1 C 9.47 g/m*3 11.1 C 4.8 km/h
Sensor: Nr:Datum:Temp:Abs-Feuchte:Windchill:Wind:
Aussen-T/F 1726 04-06-2020 23:45:00 11.1 C 9.47 g/m*3 11.1 C 1.6 km/h
1727 04-06-2020 23:50:00 11.1 C 9.47 g/m*3 11.1 C 3.2 km/h
1728 04-06-2020 23:55:00 11.1 C 9.57 g/m*3 11.1 C 1.6 km/h
1729 05-06-2020 00:00:00 11.1 C 9.57 g/m*3 11.1 C 3.2 km/h
1730 05-06-2020 00:05:00 11.1 C 9.57 g/m*3 11.1 C 3.2 km/h
1731 05-06-2020 00:10:00 11.2 C 9.63 g/m*3 11.2 C 1.6 km/h
1732 05-06-2020 00:15:00 11.2 C 9.63 g/m*3 11.2 C 6.4 km/h
1733 05-06-2020 00:20:00 11.1 C 9.37 g/m*3 11.1 C 11.3 km/h
1734 05-06-2020 00:25:00 11.1 C 9.27 g/m*3 11.1 C 11.3 km/h
1735 05-06-2020 00:30:00 11.2 C 9.33 g/m*3 11.2 C 3.2 km/h
1736 05-06-2020 00:35:00 11.3 C 9.28 g/m*3 11.3 C 6.4 km/h
1737 05-06-2020 00:40:00 11.3 C 9.28 g/m*3 11.3 C 4.8 km/h
1738 05-06-2020 00:45:00 11.2 C 9.22 g/m*3 11.2 C 1.6 km/h
1739 05-06-2020 00:50:00 11.2 C 9.22 g/m*3 11.2 C 6.4 km/h
1740 05-06-2020 00:55:00 11.2 C 9.22 g/m*3 11.2 C 0 km/h
1741 05-06-2020 01:00:00 11.1 C 9.17 g/m*3 11.1 C 6.4 km/h
1742 05-06-2020 01:05:00 11.2 C 9.22 g/m*3 11.2 C 1.6 km/h
1743 05-06-2020 01:10:00 11.1 C 9.17 g/m*3 11.1 C 4.8 km/h
1744 05-06-2020 01:15:00 11.1 C 9.07 g/m*3 11.1 C 6.4 km/h
1745 05-06-2020 01:20:00 11 C 9.01 g/m*3 11 C 3.2 km/h
1746 05-06-2020 01:25:00 11.1 C 9.17 g/m*3 11.1 C 1.6 km/h
1747 05-06-2020 01:30:00 11.1 C 9.17 g/m*3 11.1 C 1.6 km/h
1748 05-06-2020 01:35:00 11 C 9.11 g/m*3 11 C 3.2 km/h
1749 05-06-2020 01:40:00 11 C 9.01 g/m*3 11 C 4.8 km/h
1750 05-06-2020 01:45:00 11 C 9.01 g/m*3 10.52 C 6.4 km/h
Sensor: Nr:Datum:Temp:Abs-Feuchte:Windchill:Wind:
Aussen-T/F 1751 05-06-2020 01:50:00 10.9 C 8.75 g/m*3 9.76 C 9.7 km/h
1752 05-06-2020 01:55:00 11 C 8.71 g/m*3 9.88 C 9.7 km/h
1753 05-06-2020 02:00:00 11.1 C 8.76 g/m*3 11.1 C 11.3 km/h
1754 05-06-2020 02:05:00 11.1 C 8.66 g/m*3 11.1 C 8.1 km/h
1755 05-06-2020 02:10:00 11.1 C 8.66 g/m*3 11.1 C 6.4 km/h
1756 05-06-2020 02:15:00 11.1 C 8.56 g/m*3 11.1 C 11.3 km/h
1757 05-06-2020 02:20:00 11.1 C 8.56 g/m*3 11.1 C 4.8 km/h
1758 05-06-2020 02:25:00 11.1 C 8.56 g/m*3 11.1 C 8.1 km/h
1759 05-06-2020 02:30:00 11.1 C 8.66 g/m*3 11.1 C 1.6 km/h
1760 05-06-2020 02:35:00 11.1 C 8.66 g/m*3 11.1 C 3.2 km/h
1761 05-06-2020 02:40:00 10.9 C 8.55 g/m*3 10.9 C 1.6 km/h
1762 05-06-2020 02:45:00 10.8 C 8.6 g/m*3 10.29 C 6.4 km/h
1763 05-06-2020 02:50:00 10.8 C 8.6 g/m*3 10.8 C 1.6 km/h
1764 05-06-2020 02:55:00 10.7 C 8.64 g/m*3 10.7 C 1.6 km/h
1765 05-06-2020 03:00:00 10.7 C 8.64 g/m*3 10.7 C 4.8 km/h
1766 05-06-2020 03:05:00 10.6 C 8.59 g/m*3 10.6 C 1.6 km/h
1767 05-06-2020 03:10:00 10.6 C 8.69 g/m*3 10.6 C 1.6 km/h
1768 05-06-2020 03:15:00 10.5 C 8.53 g/m*3 10.5 C 0 km/h
1769 05-06-2020 03:20:00 10.5 C 8.53 g/m*3 10.5 C 0 km/h
1770 05-06-2020 03:25:00 10.4 C 8.48 g/m*3 10.4 C 1.6 km/h
1771 05-06-2020 03:30:00 10.4 C 8.48 g/m*3 10.4 C 3.2 km/h
1772 05-06-2020 03:35:00 10.5 C 8.53 g/m*3 10.5 C 4.8 km/h
1773 05-06-2020 03:40:00 10.5 C 8.44 g/m*3 10.5 C 1.6 km/h
1774 05-06-2020 03:45:00 10.5 C 8.44 g/m*3 10.5 C 1.6 km/h
1775 05-06-2020 03:50:00 10.6 C 8.49 g/m*3 10.6 C 1.6 km/h
Sensor: Nr:Datum:Temp:Abs-Feuchte:Windchill:Wind:
Aussen-T/F 1776 05-06-2020 03:55:00 10.6 C 8.59 g/m*3 10.6 C 1.6 km/h
1777 05-06-2020 04:00:00 10.4 C 8.48 g/m*3 10.4 C 1.6 km/h
1778 05-06-2020 04:05:00 10.3 C 8.43 g/m*3 10.3 C 3.2 km/h
1779 05-06-2020 04:10:00 10.1 C 8.32 g/m*3 10.1 C 3.2 km/h
1780 05-06-2020 04:15:00 9.8 C 8.26 g/m*3 9.14 C 6.4 km/h
1781 05-06-2020 04:20:00 9.6 C 8.15 g/m*3 9.6 C 4.8 km/h
1782 05-06-2020 04:25:00 9.4 C 8.05 g/m*3 9.4 C 4.8 km/h
1783 05-06-2020 04:30:00 9.3 C 8.09 g/m*3 9.3 C 0 km/h
1784 05-06-2020 04:35:00 9.2 C 8.13 g/m*3 9.2 C 4.8 km/h
1785 05-06-2020 04:40:00 9.1 C 8.07 g/m*3 9.1 C 4.8 km/h
1786 05-06-2020 04:45:00 8.9 C 7.97 g/m*3 8.9 C 4.8 km/h
1787 05-06-2020 04:50:00 8.9 C 7.97 g/m*3 8.9 C 1.6 km/h
1788 05-06-2020 04:55:00 8.8 C 8.01 g/m*3 8.8 C 1.6 km/h
1789 05-06-2020 05:00:00 8.8 C 8.01 g/m*3 8.8 C 3.2 km/h
1790 05-06-2020 05:05:00 8.8 C 8.09 g/m*3 8.8 C 1.6 km/h
1791 05-06-2020 05:10:00 8.8 C 8.09 g/m*3 8.8 C 3.2 km/h
1792 05-06-2020 05:15:00 8.8 C 8.09 g/m*3 8.8 C 3.2 km/h
1793 05-06-2020 05:20:00 8.8 C 8.09 g/m*3 8.8 C 3.2 km/h
1794 05-06-2020 05:25:00 8.9 C 8.15 g/m*3 8.9 C 1.6 km/h
1795 05-06-2020 05:30:00 8.9 C 8.15 g/m*3 8.9 C 0 km/h
1796 05-06-2020 05:35:00 9 C 8.2 g/m*3 9 C 0 km/h
1797 05-06-2020 05:40:00 9 C 8.2 g/m*3 9 C 0 km/h
1798 05-06-2020 05:45:00 9.1 C 8.34 g/m*3 9.1 C 0 km/h
1799 05-06-2020 05:50:00 9.1 C 8.34 g/m*3 9.1 C 0 km/h
1800 05-06-2020 05:55:00 9.1 C 8.34 g/m*3 9.1 C 0 km/h
Sensor: Nr:Datum:Temp:Abs-Feuchte:Windchill:Wind:
Aussen-T/F 1801 05-06-2020 06:00:00 9.1 C 8.34 g/m*3 9.1 C 0 km/h
1802 05-06-2020 06:05:00 9.1 C 8.34 g/m*3 9.1 C 1.6 km/h
1803 05-06-2020 06:10:00 9.2 C 8.39 g/m*3 9.2 C 3.2 km/h
1804 05-06-2020 06:15:00 9.2 C 8.3 g/m*3 9.2 C 1.6 km/h
1805 05-06-2020 06:20:00 9.3 C 8.36 g/m*3 9.3 C 0 km/h
1806 05-06-2020 06:25:00 9.3 C 8.36 g/m*3 9.3 C 1.6 km/h
1807 05-06-2020 06:30:00 9.4 C 8.41 g/m*3 9.4 C 4.8 km/h
1808 05-06-2020 06:35:00 9.5 C 8.37 g/m*3 9.5 C 4.8 km/h
1809 05-06-2020 06:40:00 9.5 C 8.37 g/m*3 8.79 C 6.4 km/h
1810 05-06-2020 06:45:00 9.6 C 8.43 g/m*3 9.6 C 3.2 km/h
1811 05-06-2020 06:50:00 9.6 C 8.34 g/m*3 9.6 C 3.2 km/h
1812 05-06-2020 06:55:00 9.7 C 8.39 g/m*3 9.7 C 1.6 km/h
1813 05-06-2020 07:00:00 9.7 C 8.39 g/m*3 9.7 C 3.2 km/h
1814 05-06-2020 07:05:00 9.7 C 8.39 g/m*3 9.7 C 3.2 km/h
1815 05-06-2020 07:10:00 9.8 C 8.44 g/m*3 9.8 C 1.6 km/h
1816 05-06-2020 07:15:00 9.8 C 8.35 g/m*3 9.8 C 1.6 km/h
1817 05-06-2020 07:20:00 9.9 C 8.5 g/m*3 9.9 C 1.6 km/h
1818 05-06-2020 07:25:00 10 C 8.46 g/m*3 10 C 4.8 km/h
1819 05-06-2020 07:30:00 10.1 C 8.51 g/m*3 10.1 C 4.8 km/h
1820 05-06-2020 07:35:00 10.3 C 8.52 g/m*3 9.04 C 9.7 km/h
1821 05-06-2020 07:40:00 10.4 C 8.58 g/m*3 9.16 C 9.7 km/h
1822 05-06-2020 07:45:00 10.6 C 8.59 g/m*3 9.69 C 8.1 km/h
1823 05-06-2020 07:50:00 10.7 C 8.64 g/m*3 9.52 C 9.7 km/h
1824 05-06-2020 07:55:00 10.7 C 8.64 g/m*3 10.7 C 3.2 km/h
1825 05-06-2020 08:00:00 10.7 C 8.55 g/m*3 10.7 C 4.8 km/h
Sensor: Nr:Datum:Temp:Abs-Feuchte:Windchill:Wind:
Aussen-T/F 1826 05-06-2020 08:05:00 10.7 C 8.64 g/m*3 10.7 C 1.6 km/h
1827 05-06-2020 08:10:00 10.7 C 8.55 g/m*3 9.81 C 8.1 km/h
1828 05-06-2020 08:15:00 10.7 C 8.55 g/m*3 9.26 C 11.3 km/h
1829 05-06-2020 08:20:00 10.7 C 8.55 g/m*3 10.18 C 6.4 km/h
1830 05-06-2020 08:25:00 10.6 C 8.49 g/m*3 9.69 C 8.1 km/h
1831 05-06-2020 08:30:00 10.7 C 8.55 g/m*3 10.7 C 3.2 km/h
1832 05-06-2020 08:35:00 10.7 C 8.64 g/m*3 10.7 C 1.6 km/h
1833 05-06-2020 08:40:00 10.8 C 8.7 g/m*3 10.8 C 4.8 km/h
1834 05-06-2020 08:45:00 10.8 C 8.6 g/m*3 9.93 C 8.1 km/h
1835 05-06-2020 08:50:00 11 C 8.71 g/m*3 9.88 C 9.7 km/h
1836 05-06-2020 08:55:00 11.2 C 8.82 g/m*3 11.2 C 9.7 km/h
1837 05-06-2020 09:00:00 11.3 C 8.87 g/m*3 11.3 C 9.7 km/h
1838 05-06-2020 09:05:00 11.4 C 8.93 g/m*3 11.4 C 6.4 km/h
1839 05-06-2020 09:10:00 11.6 C 8.94 g/m*3 11.6 C 9.7 km/h
1840 05-06-2020 09:15:00 11.6 C 8.83 g/m*3 11.6 C 9.7 km/h
1841 05-06-2020 09:20:00 11.6 C 8.73 g/m*3 11.6 C 8.1 km/h
1842 05-06-2020 09:25:00 11.7 C 8.68 g/m*3 11.7 C 9.7 km/h
1843 05-06-2020 09:30:00 11.8 C 8.84 g/m*3 11.8 C 11.3 km/h
1844 05-06-2020 09:35:00 11.8 C 8.74 g/m*3 11.8 C 11.3 km/h
1845 05-06-2020 09:40:00 11.9 C 8.79 g/m*3 11.9 C 9.7 km/h
1846 05-06-2020 09:45:00 12 C 8.85 g/m*3 12 C 12.9 km/h
1847 05-06-2020 09:50:00 12.1 C 9.01 g/m*3 12.1 C 6.4 km/h
1848 05-06-2020 09:55:00 12.1 C 8.79 g/m*3 12.1 C 6.4 km/h
1849 05-06-2020 10:00:00 12.1 C 8.79 g/m*3 12.1 C 9.7 km/h
1850 05-06-2020 10:05:00 12.2 C 8.85 g/m*3 12.2 C 6.4 km/h
Sensor: Nr:Datum:Temp:Abs-Feuchte:Windchill:Wind:
Aussen-T/F 1851 05-06-2020 10:10:00 12.2 C 8.85 g/m*3 12.2 C 6.4 km/h
1852 05-06-2020 10:15:00 12.3 C 8.9 g/m*3 12.3 C 4.8 km/h
1853 05-06-2020 10:20:00 12.4 C 8.85 g/m*3 12.4 C 8.1 km/h
1854 05-06-2020 10:25:00 12.5 C 8.91 g/m*3 12.5 C 8.1 km/h
1855 05-06-2020 10:30:00 12.7 C 9.02 g/m*3 12.7 C 12.9 km/h
1856 05-06-2020 10:35:00 12.8 C 8.96 g/m*3 12.8 C 4.8 km/h
1857 05-06-2020 10:40:00 12.9 C 9.02 g/m*3 12.9 C 6.4 km/h
1858 05-06-2020 10:45:00 13.2 C 9.19 g/m*3 13.2 C 8.1 km/h
1859 05-06-2020 10:50:00 13.4 C 9.18 g/m*3 13.4 C 11.3 km/h
1860 05-06-2020 10:55:00 13.7 C 9.12 g/m*3 13.7 C 11.3 km/h
1861 05-06-2020 11:00:00 14.1 C 9.22 g/m*3 14.1 C 12.9 km/h
1862 05-06-2020 11:05:00 14.3 C 9.09 g/m*3 14.3 C 12.9 km/h
1863 05-06-2020 11:10:00 14.6 C 9.13 g/m*3 14.6 C 12.9 km/h
1864 05-06-2020 11:15:00 14.4 C 8.78 g/m*3 14.4 C 20.9 km/h
1865 05-06-2020 11:20:00 14.1 C 8.62 g/m*3 14.1 C 17.7 km/h
1866 05-06-2020 11:25:00 13.8 C 8.7 g/m*3 13.8 C 16.1 km/h
1867 05-06-2020 11:30:00 13.8 C 8.7 g/m*3 13.8 C 11.3 km/h
1868 05-06-2020 11:35:00 13.7 C 8.64 g/m*3 13.7 C 14.5 km/h
1869 05-06-2020 11:40:00 13.7 C 8.76 g/m*3 13.7 C 17.7 km/h
1870 05-06-2020 11:45:00 13.6 C 8.59 g/m*3 13.6 C 9.7 km/h
1871 05-06-2020 11:50:00 13.6 C 8.59 g/m*3 13.6 C 9.7 km/h
1872 05-06-2020 11:55:00 13.5 C 8.66 g/m*3 13.5 C 9.7 km/h
1873 05-06-2020 12:00:00 13.6 C 8.59 g/m*3 13.6 C 12.9 km/h
1874 05-06-2020 12:05:00 13.8 C 8.94 g/m*3 13.8 C 8.1 km/h
1875 05-06-2020 12:10:00 14.1 C 8.74 g/m*3 14.1 C 12.9 km/h
Sensor: Nr:Datum:Temp:Abs-Feuchte:Windchill:Wind:
Aussen-T/F 1876 05-06-2020 12:15:00 14.3 C 8.85 g/m*3 14.3 C 8.1 km/h
1877 05-06-2020 12:20:00 14.4 C 8.78 g/m*3 14.4 C 6.4 km/h
1878 05-06-2020 12:25:00 14.6 C 9.01 g/m*3 14.6 C 6.4 km/h
1879 05-06-2020 12:30:00 14.6 C 8.76 g/m*3 14.6 C 14.5 km/h
1880 05-06-2020 12:35:00 14.5 C 8.71 g/m*3 14.5 C 9.7 km/h
1881 05-06-2020 12:40:00 14.5 C 8.83 g/m*3 14.5 C 14.5 km/h
1882 05-06-2020 12:45:00 14.7 C 8.81 g/m*3 14.7 C 12.9 km/h
1883 05-06-2020 12:50:00 14.8 C 8.74 g/m*3 14.8 C 14.5 km/h
1884 05-06-2020 12:55:00 14.9 C 8.79 g/m*3 14.9 C 17.7 km/h
1885 05-06-2020 13:00:00 14.9 C 8.79 g/m*3 14.9 C 16.1 km/h
1886 05-06-2020 13:05:00 14.8 C 8.74 g/m*3 14.8 C 9.7 km/h
1887 05-06-2020 13:10:00 14.5 C 8.58 g/m*3 14.5 C 11.3 km/h
1888 05-06-2020 13:15:00 14.2 C 8.43 g/m*3 14.2 C 17.7 km/h
1889 05-06-2020 13:20:00 14.1 C 8.5 g/m*3 14.1 C 12.9 km/h
1890 05-06-2020 13:25:00 13.9 C 8.51 g/m*3 13.9 C 12.9 km/h
1891 05-06-2020 13:30:00 13.8 C 8.34 g/m*3 13.8 C 20.9 km/h
1892 05-06-2020 13:35:00 13.9 C 8.63 g/m*3 13.9 C 14.5 km/h
1893 05-06-2020 13:40:00 13.9 C 8.75 g/m*3 13.9 C 14.5 km/h
1894 05-06-2020 13:45:00 13.9 C 8.75 g/m*3 13.9 C 12.9 km/h
1895 05-06-2020 13:50:00 14 C 8.81 g/m*3 14 C 12.9 km/h
1896 05-06-2020 13:55:00 14.2 C 9.04 g/m*3 14.2 C 11.3 km/h
1897 05-06-2020 14:00:00 14.2 C 8.91 g/m*3 14.2 C 22.5 km/h
1898 05-06-2020 14:05:00 14.2 C 8.79 g/m*3 14.2 C 24.1 km/h
1899 05-06-2020 14:10:00 14.2 C 9.04 g/m*3 14.2 C 16.1 km/h
1900 05-06-2020 14:15:00 14.1 C 9.1 g/m*3 14.1 C 16.1 km/h
Sensor: Nr:Datum:Temp:Abs-Feuchte:Windchill:Wind:
Aussen-T/F 1901 05-06-2020 14:20:00 13.9 C 9.35 g/m*3 13.9 C 12.9 km/h
1902 05-06-2020 14:25:00 13.7 C 9.24 g/m*3 13.7 C 16.1 km/h
1903 05-06-2020 14:30:00 13.6 C 9.3 g/m*3 13.6 C 11.3 km/h
1904 05-06-2020 14:35:00 13.5 C 9.36 g/m*3 13.5 C 14.5 km/h
1905 05-06-2020 14:40:00 13.4 C 9.53 g/m*3 13.4 C 9.7 km/h
1906 05-06-2020 14:45:00 13.3 C 9.59 g/m*3 13.3 C 8.1 km/h
1907 05-06-2020 14:50:00 13.2 C 9.64 g/m*3 13.2 C 4.8 km/h
1908 05-06-2020 14:55:00 13.2 C 9.64 g/m*3 13.2 C 4.8 km/h
1909 05-06-2020 15:00:00 13.2 C 9.87 g/m*3 13.2 C 12.9 km/h
1910 05-06-2020 15:05:00 13.3 C 9.94 g/m*3 13.3 C 6.4 km/h
1911 05-06-2020 15:10:00 13.4 C 10.11 g/m*3 13.4 C 12.9 km/h
1912 05-06-2020 15:15:00 13.6 C 10.12 g/m*3 13.6 C 8.1 km/h
1913 05-06-2020 15:20:00 13.7 C 10.3 g/m*3 13.7 C 6.4 km/h
1914 05-06-2020 15:25:00 13.8 C 10.13 g/m*3 13.8 C 9.7 km/h
1915 05-06-2020 15:30:00 13.9 C 10.31 g/m*3 13.9 C 14.5 km/h
1916 05-06-2020 15:35:00 14 C 10.13 g/m*3 14 C 14.5 km/h
1917 05-06-2020 15:40:00 14.1 C 10.32 g/m*3 14.1 C 4.8 km/h
1918 05-06-2020 15:45:00 14 C 10.01 g/m*3 14 C 17.7 km/h
1919 05-06-2020 15:50:00 13.9 C 10.07 g/m*3 13.9 C 14.5 km/h
1920 05-06-2020 15:55:00 13.8 C 10.01 g/m*3 13.8 C 11.3 km/h
1921 05-06-2020 16:00:00 13.7 C 9.95 g/m*3 13.7 C 14.5 km/h
1922 05-06-2020 16:05:00 13.7 C 10.07 g/m*3 13.7 C 17.7 km/h
1923 05-06-2020 16:10:00 13.7 C 10.07 g/m*3 13.7 C 19.3 km/h
1924 05-06-2020 16:15:00 13.4 C 10 g/m*3 13.4 C 19.3 km/h
1925 05-06-2020 16:20:00 13.1 C 9.93 g/m*3 13.1 C 27.4 km/h
Sensor: Nr:Datum:Temp:Abs-Feuchte:Windchill:Wind:
Aussen-T/F 1926 05-06-2020 16:25:00 12.8 C 9.97 g/m*3 12.8 C 20.9 km/h
1927 05-06-2020 16:30:00 12.5 C 10 g/m*3 12.5 C 14.5 km/h
1928 05-06-2020 16:35:00 12.2 C 9.71 g/m*3 12.2 C 20.9 km/h
1929 05-06-2020 16:40:00 11.9 C 9.64 g/m*3 11.9 C 11.3 km/h
1930 05-06-2020 16:45:00 11.7 C 9.52 g/m*3 11.7 C 11.3 km/h
1931 05-06-2020 16:50:00 11.4 C 9.34 g/m*3 11.4 C 12.9 km/h
1932 05-06-2020 16:55:00 11.3 C 9.28 g/m*3 11.3 C 12.9 km/h
1933 05-06-2020 17:00:00 11.2 C 9.33 g/m*3 11.2 C 12.9 km/h
1934 05-06-2020 17:05:00 11.2 C 9.33 g/m*3 11.2 C 12.9 km/h
1935 05-06-2020 17:10:00 11.2 C 9.43 g/m*3 11.2 C 8.1 km/h
1936 05-06-2020 17:15:00 11.3 C 9.49 g/m*3 11.3 C 6.4 km/h
1937 05-06-2020 17:20:00 12.2 C 10.25 g/m*3 12.2 C 8.1 km/h
1938 05-06-2020 17:25:00 13.1 C 10.95 g/m*3 13.1 C 8.1 km/h
1939 05-06-2020 17:30:00 12.9 C 10.26 g/m*3 12.9 C 14.5 km/h
1940 05-06-2020 17:35:00 12.8 C 10.08 g/m*3 12.8 C 11.3 km/h
1941 05-06-2020 17:40:00 12.8 C 10.19 g/m*3 12.8 C 6.4 km/h
1942 05-06-2020 17:45:00 12.6 C 9.85 g/m*3 12.6 C 9.7 km/h
1943 05-06-2020 17:50:00 12.6 C 9.85 g/m*3 12.6 C 9.7 km/h
1944 05-06-2020 17:55:00 12.6 C 9.96 g/m*3 12.6 C 9.7 km/h
1945 05-06-2020 18:00:00 12.4 C 9.72 g/m*3 12.4 C 17.7 km/h
1946 05-06-2020 18:05:00 12.2 C 9.17 g/m*3 12.2 C 19.3 km/h
1947 05-06-2020 18:10:00 12.1 C 9.33 g/m*3 12.1 C 4.8 km/h
1948 05-06-2020 18:15:00 11.9 C 9.43 g/m*3 11.9 C 4.8 km/h
1949 05-06-2020 18:20:00 11.8 C 9.37 g/m*3 11.8 C 14.5 km/h
1950 05-06-2020 18:25:00 11.4 C 9.03 g/m*3 11.4 C 14.5 km/h
Sensor: Nr:Datum:Temp:Abs-Feuchte:Windchill:Wind:
Aussen-T/F 1951 05-06-2020 18:30:00 11.2 C 9.12 g/m*3 11.2 C 6.4 km/h
1952 05-06-2020 18:35:00 11.1 C 9.17 g/m*3 11.1 C 9.7 km/h
1953 05-06-2020 18:40:00 11.1 C 9.17 g/m*3 11.1 C 9.7 km/h
1954 05-06-2020 18:45:00 11.1 C 9.17 g/m*3 11.1 C 11.3 km/h
1955 05-06-2020 18:50:00 11 C 9.11 g/m*3 8.86 C 17.7 km/h
1956 05-06-2020 18:55:00 11 C 9.11 g/m*3 9.88 C 9.7 km/h
1957 05-06-2020 19:00:00 11.1 C 9.27 g/m*3 11.1 C 8.1 km/h
1958 05-06-2020 19:05:00 11.2 C 9.33 g/m*3 11.2 C 8.1 km/h
1959 05-06-2020 19:10:00 11.2 C 9.33 g/m*3 11.2 C 9.7 km/h
1960 05-06-2020 19:15:00 11.2 C 9.33 g/m*3 11.2 C 4.8 km/h
1961 05-06-2020 19:20:00 11.3 C 9.49 g/m*3 11.3 C 4.8 km/h
1962 05-06-2020 19:25:00 11.6 C 9.77 g/m*3 11.6 C 4.8 km/h
1963 05-06-2020 19:30:00 11.8 C 9.79 g/m*3 11.8 C 11.3 km/h
1964 05-06-2020 19:35:00 11.7 C 9.31 g/m*3 11.7 C 11.3 km/h
1965 05-06-2020 19:40:00 11.7 C 8.99 g/m*3 11.7 C 14.5 km/h
1966 05-06-2020 19:45:00 11.7 C 8.99 g/m*3 11.7 C 11.3 km/h
1967 05-06-2020 19:50:00 11.7 C 9.1 g/m*3 11.7 C 6.4 km/h
1968 05-06-2020 19:55:00 11.7 C 9.2 g/m*3 11.7 C 4.8 km/h
1969 05-06-2020 20:00:00 11.6 C 9.15 g/m*3 11.6 C 9.7 km/h
1970 05-06-2020 20:05:00 11.7 C 9.41 g/m*3 11.7 C 1.6 km/h
1971 05-06-2020 20:10:00 11.8 C 9.16 g/m*3 11.8 C 8.1 km/h
1972 05-06-2020 20:15:00 11.6 C 8.94 g/m*3 11.6 C 11.3 km/h
1973 05-06-2020 20:20:00 11.4 C 8.72 g/m*3 11.4 C 8.1 km/h
1974 05-06-2020 20:25:00 11.2 C 8.72 g/m*3 11.2 C 9.7 km/h
1975 05-06-2020 20:30:00 11.2 C 8.92 g/m*3 11.2 C 8.1 km/h
Sensor: Nr:Datum:Temp:Abs-Feuchte:Windchill:Wind:
Aussen-T/F 1976 05-06-2020 20:35:00 11 C 8.71 g/m*3 10.52 C 6.4 km/h
1977 05-06-2020 20:40:00 10.9 C 8.75 g/m*3 10.41 C 6.4 km/h
1978 05-06-2020 20:45:00 10.8 C 8.7 g/m*3 10.29 C 6.4 km/h
1979 05-06-2020 20:50:00 10.8 C 8.8 g/m*3 10.8 C 4.8 km/h
1980 05-06-2020 20:55:00 10.7 C 8.74 g/m*3 10.18 C 6.4 km/h
1981 05-06-2020 21:00:00 10.6 C 8.69 g/m*3 10.06 C 6.4 km/h
1982 05-06-2020 21:05:00 10.5 C 8.63 g/m*3 9.28 C 9.7 km/h
1983 05-06-2020 21:10:00 10.4 C 8.58 g/m*3 9.83 C 6.4 km/h
1984 05-06-2020 21:15:00 10.4 C 8.48 g/m*3 9.46 C 8.1 km/h
1985 05-06-2020 21:20:00 10.5 C 8.63 g/m*3 9.95 C 6.4 km/h
1986 05-06-2020 21:25:00 10.4 C 8.48 g/m*3 9.46 C 8.1 km/h
1987 05-06-2020 21:30:00 10.4 C 8.48 g/m*3 9.16 C 9.7 km/h
1988 05-06-2020 21:35:00 10.4 C 8.48 g/m*3 8.67 C 12.9 km/h
1989 05-06-2020 21:40:00 10.3 C 8.43 g/m*3 9.04 C 9.7 km/h
1990 05-06-2020 21:45:00 10.3 C 8.33 g/m*3 8.55 C 12.9 km/h
1991 05-06-2020 21:50:00 10.3 C 8.43 g/m*3 9.04 C 9.7 km/h
1992 05-06-2020 21:55:00 10.3 C 8.43 g/m*3 9.34 C 8.1 km/h
1993 05-06-2020 22:00:00 10.3 C 8.33 g/m*3 8.78 C 11.3 km/h
1994 05-06-2020 22:05:00 10.3 C 8.33 g/m*3 8.55 C 12.9 km/h
1995 05-06-2020 22:10:00 10.2 C 8.28 g/m*3 8.43 C 12.9 km/h
1996 05-06-2020 22:15:00 10.3 C 8.24 g/m*3 8.78 C 11.3 km/h
1997 05-06-2020 22:20:00 10.3 C 8.33 g/m*3 9.72 C 6.4 km/h
1998 05-06-2020 22:25:00 10.2 C 8.28 g/m*3 8.92 C 9.7 km/h
1999 05-06-2020 22:30:00 10.1 C 8.32 g/m*3 9.48 C 6.4 km/h
2000 05-06-2020 22:35:00 10.1 C 8.32 g/m*3 9.48 C 6.4 km/h
Sensor: Nr:Datum:Temp:Abs-Feuchte:Windchill:Wind:
Aussen-T/F 2001 05-06-2020 22:40:00 10 C 8.27 g/m*3 8.42 C 11.3 km/h
2002 05-06-2020 22:45:00 10 C 8.17 g/m*3 8.42 C 11.3 km/h
2003 05-06-2020 22:50:00 10 C 8.17 g/m*3 8.68 C 9.7 km/h
2004 05-06-2020 22:55:00 10 C 8.17 g/m*3 10 C 4.8 km/h
2005 05-06-2020 23:00:00 10 C 8.17 g/m*3 9.37 C 6.4 km/h
2006 05-06-2020 23:05:00 9.9 C 8.12 g/m*3 9.9 C 4.8 km/h
2007 05-06-2020 23:10:00 9.8 C 8.16 g/m*3 8.75 C 8.1 km/h
2008 05-06-2020 23:15:00 9.7 C 8.11 g/m*3 8.33 C 9.7 km/h
2009 05-06-2020 23:20:00 9.7 C 8.11 g/m*3 9.02 C 6.4 km/h
2010 05-06-2020 23:25:00 9.7 C 8.11 g/m*3 7.41 C 16.1 km/h
2011 05-06-2020 23:30:00 9.8 C 8.07 g/m*3 8.75 C 8.1 km/h
2012 05-06-2020 23:35:00 9.8 C 8.16 g/m*3 8.45 C 9.7 km/h
2013 05-06-2020 23:40:00 9.8 C 8.07 g/m*3 8.75 C 8.1 km/h
2014 05-06-2020 23:45:00 9.8 C 8.07 g/m*3 9.14 C 6.4 km/h
2015 05-06-2020 23:50:00 9.8 C 8.07 g/m*3 9.14 C 6.4 km/h
2016 05-06-2020 23:55:00 9.8 C 7.98 g/m*3 8.18 C 11.3 km/h

Legende:
   Min
   Max


Maximal/Minimal-Werte vom 30.05.2020 - 05.06.2020

Sensor Min Max Avg
Temp
(Aussen-T/F)
8 °C
30-05-2020  06:20:00
31 °C
02-06-2020  17:25:00
16.37 °C
Abs-Feuchte
(Aussen-T/F)
6.43 g/m*3
30-05-2020  11:25:00
13.24 g/m*3
04-06-2020  11:50:00
8.94 g/m*3
Windchill
(Aussen-T/F)
7.41 C
05-06-2020  23:25:00
31 C
02-06-2020  17:25:00
16.33 C

Die Daten stammen von einer Davis Vantage Pro 2 Wetter-Station und werden unter Linux mit der Software wview2wettercgi und aufbereitet. Alle Angaben erfolgen ohne Gewähr für ihre Vollständigkeit oder Richtigkeit.
Kontakt: Rainer Krienke krienke@uni-koblenz.de . Meine Webseiten an der Uni Koblenz oder privat.
Version: $Revision: 0.78 $